[[{"header":{"parameterUnit":"m.s-1","parameterCategory":1,"la1":31.0,"la2":29.5877,"lo1":-88.7671,"lo2":-86.6584,"dy":0.0162,"dx":0.0185,"nx":115,"ny":88,"refTime":"2024-05-19T06:00:00:Z","depth":0,"parameterNumber":2,"parameterNumberName":"U-component_of_WINDS"},"data":[0.0,0.0,0.0,0.0,0.0,0.0,0.0,0.0,0.0,0.0,0.0,0.0,0.0,0.0,0.0,0.0,0.0,0.0,0.0,0.0,0.0,0.0,0.0,0.0,0.0,0.0,0.0,0.0,0.0,0.0,0.0,0.0,0.0,0.0,0.0,0.0,0.0,0.0,0.0,0.0,0.0,0.0,0.0,0.0,0.0,0.0,0.0,0.0,0.0,0.0,0.0,0.0,0.0,0.0,0.0,0.0,0.0,0.0,0.0,0.0,0.0,0.0,0.0,0.0,0.0,0.0,0.0,0.0,0.0,0.0,0.0,0.0,0.0,0.0,0.0,0.0,0.0,0.0,0.0,0.0,0.0,0.0,0.0,0.0,0.0,0.0,0.0,0.0,0.0,0.0,0.0,0.0,0.0,0.0,0.0,0.0,0.0,0.0,0.0,0.0,0.0,0.0,0.0,0.0,0.0,0.0,0.0,0.0,0.0,0.0,0.0,0.0,0.0,0.0,0.0,0.0,0.0,0.0,0.0,0.0,0.0,0.0,0.0,0.0,0.0,0.0,0.0,0.0,0.0,0.0,0.0,0.0,0.0,0.0,0.0,0.0,0.0,0.0,0.0,0.0,0.0,0.0,0.0,0.0,0.0,0.0,0.0,0.0,0.0,0.0,0.0,0.0,0.0,0.0,0.0,0.0,0.0,0.0,0.0,0.0,0.0,0.0,0.0,0.0,0.0,0.0,0.0,0.0,0.0,0.0,0.0,0.0,0.0,0.0,0.0,0.0,0.0,0.0,0.0,0.0,0.0,0.0,0.0,0.0,0.0,0.0,0.0,0.0,0.0,0.0,0.0,0.0,0.0,0.0,0.0,0.0,0.0,0.0,0.0,0.0,0.0,0.0,0.0,0.0,0.0,0.0,0.0,0.0,0.0,0.0,0.0,0.0,0.0,0.0,0.0,0.0,0.0,0.0,0.0,0.0,0.0,0.0,0.0,0.0,0.0,0.0,0.0,0.0,0.0,0.0,0.0,0.0,0.0,0.0,0.0,0.0,0.0,0.0,0.0,0.0,0.0,0.0,0.0,0.0,0.0,0.0,0.0,0.0,0.0,0.0,0.0,0.0,0.0,0.0,0.0,0.0,0.0,0.0,0.0,0.0,0.0,0.0,0.0,0.0,0.0,0.0,0.0,0.0,0.0,0.0,0.0,0.0,0.0,0.0,0.0,0.0,0.0,0.0,0.0,0.0,0.0,0.0,0.0,0.0,0.0,0.0,0.0,0.0,0.0,0.0,0.0,0.0,0.0,0.0,0.0,0.0,0.0,0.0,0.0,0.0,0.0,0.0,0.0,0.0,0.0,0.0,0.0,0.0,0.0,0.0,0.0,0.0,0.0,0.0,0.0,0.0,0.0,0.0,0.0,0.0,0.0,0.0,0.0,0.0,0.0,0.0,0.0,0.0,0.0,0.0,0.0,0.0,0.0,0.0,0.0,0.0,0.0,0.0,0.0,0.0,0.0,0.0,0.0,0.0,0.0,0.0,0.0,0.0,0.0,0.0,0.0,0.0,0.0,0.0,0.0,0.0,0.0,0.0,0.0,0.0,0.0,0.0,0.0,0.0,0.0,0.0,0.0,0.0,0.0,0.0,0.0,0.0,0.0,0.0,0.0,0.0,0.0,0.0,0.0,0.0,0.0,0.0,0.0,0.0,0.0,0.0,0.0,0.0,0.0,0.0,0.0,0.0,0.0,0.0,0.0,0.0,0.0,0.0,0.0,0.0,0.0,0.0,0.0,0.0,0.0,0.0,0.0,0.0,0.0,0.0,0.0,0.0,0.0,0.0,0.0,0.0,0.0,0.0,0.0,0.0,0.0,0.0,0.0,0.0,0.0,0.0,0.0,0.0,0.0,0.0,0.0,0.0,0.0,0.0,0.0,0.0,0.0,0.0,0.0,0.0,0.0,0.0,0.0,0.0,0.0,0.0,0.0,0.0,0.0,0.0,0.0,0.0,0.0,0.0,0.0,0.0,0.0,0.0,0.0,0.0,0.0,0.0,0.0,0.0,0.0,0.0,0.0,0.0,0.0,0.0,0.0,0.0,0.0,0.0,0.0,0.0,0.0,0.0,0.0,0.0,0.0,0.0,0.0,0.0,0.0,0.0,0.0,0.0,0.0,0.0,0.0,0.0,0.0,0.0,0.0,0.0,0.0,0.0,0.0,0.0,0.0,0.0,0.0,0.0,0.0,0.0,0.0,0.0,0.0,0.0,0.0,0.0,0.0,0.0,0.0,0.0,0.0,0.0,0.0,0.0,0.0,0.0,0.0,0.0,0.0,0.0,0.0,0.0,0.0,0.0,0.0,0.0,0.0,0.0,0.0,0.0,0.0,0.0,0.0,0.0,0.0,0.0,0.0,0.0,0.0,0.0,0.0,0.0,0.0,0.0,0.0,0.0,0.0,0.0,0.0,0.0,0.0,0.0,0.0,0.0,0.0,0.0,0.0,0.0,0.0,0.0,0.0,0.0,0.0,0.0,0.0,0.0,0.0,0.0,0.0,0.0,0.0,0.0,0.0,0.0,0.0,0.0,0.0,0.0,0.0,0.0,0.0,0.0,0.0,0.0,0.0,0.0,0.0,0.0,0.0,0.0,0.0,0.0,0.0,0.0,0.0,0.0,0.0,0.0,0.0,0.0,0.0,0.0,0.0,0.0,0.0,0.0,0.0,0.0,0.0,0.0,0.0,0.0,0.0,0.0,0.0,0.0,0.0,0.0,0.0,0.0,0.0,0.0,0.0,0.0,0.0,0.0,0.0,0.0,0.0,0.0,0.0,0.0,0.0,0.0,0.0,0.0,0.0,0.0,0.0,0.0,0.0,0.0,0.0,0.0,0.0,0.0,0.0,0.0,0.0,0.0,0.0,0.0,0.0,0.0,0.0,0.0,0.0,0.0,0.0,0.0,0.0,0.0,0.0,0.0,0.0,0.0,0.0,0.0,0.0,0.0,0.0,0.0,0.0,0.0,0.0,0.0,0.0,0.0,0.0,0.0,0.0,0.0,0.0,0.0,0.0,0.0,0.0,0.0,0.0,0.0,0.0,0.0,0.0,0.0,0.0,0.0,0.0,0.0,0.0,0.0,0.0,0.0,0.0,0.0,0.0,0.0,0.0,0.0,0.0,0.0,0.0,0.0,0.0,0.0,0.0,0.0,0.0,0.0,0.0,0.0,0.0,0.0,0.0,0.0,0.0,0.0,0.0,0.0,0.0,0.0,0.0,0.0,0.0,0.0,0.0,0.0,0.0,0.0,0.0,0.0,0.0,0.0,0.0,0.0,0.0,0.0,0.0,0.0,0.0,0.0,0.0,0.0,0.0,0.0,0.0,0.0,0.0,0.0,0.0,0.0,0.0,0.0,0.0,0.0,0.0,0.0,0.0,0.0,0.0,0.0,0.0,0.0,0.0,0.0,0.0,0.0,0.0,0.0,0.0,0.0,0.0,0.0,0.0,0.0,0.0,0.0,0.0,0.0,0.0,0.0,0.0,0.0,0.0,0.0,0.0,0.0,0.0,0.0,0.0,0.0,0.0,0.0,0.0,0.0,0.0,0.0,0.0,0.0,0.0,0.0,0.0,0.0,0.0,0.0,0.0,0.0,0.0,0.0,0.0,0.0,0.0,0.0,0.0,0.0,0.0,0.0,0.0,0.0,0.0,0.0,0.0,0.0,0.0,0.0,0.0,0.0,0.0,0.0,0.0,0.0,0.0,0.0,0.0,0.0,0.0,0.0,0.0,0.0,0.0,0.0,0.0,0.0,0.0,0.0,0.0,0.0,0.0,0.0,0.0,0.0,0.0,0.0,0.0,0.0,0.0,0.0,0.0,0.0,0.0,0.0,0.0,0.0,0.0,0.0,0.0,0.0,0.0,0.0,0.0,0.0,0.0,0.0,0.0,0.0,0.0,0.0,0.0,0.0,0.0,0.0,0.0,0.0,0.0,0.0,0.0,0.0,0.0,0.0,0.0,0.0,0.0,0.0,0.0,0.0,0.0,0.0,0.0,0.0,0.0,0.0,0.0,0.0,0.0,0.0,0.0,0.0,0.0,0.0,0.0,0.0,0.0,0.0,0.0,0.0,0.0,0.0,0.0,0.0,0.0,0.0,0.0,0.0,0.0,0.0,0.0,0.0,0.0,0.0,0.0,0.0,0.0,0.0,0.0,0.0,0.0,0.0,0.0,0.0,0.0,0.0,0.0,0.0,0.0,0.0,0.0,0.0,0.0,0.0,0.0,0.0,-2.0601,0.0,0.0,0.0,0.0,0.0,0.0,0.0,0.0,0.0,0.0,0.0,0.0,0.0,0.0,0.0,0.0,0.0,0.0,0.0,0.0,0.0,0.0,0.0,0.0,0.0,0.0,0.0,0.0,0.0,0.0,0.0,0.0,0.0,0.0,0.0,0.0,0.0,0.0,0.0,0.0,0.0,0.0,0.0,0.0,0.0,0.0,0.0,0.0,0.0,0.0,0.0,0.0,0.0,0.0,0.0,0.0,0.0,0.0,0.0,0.0,0.0,0.0,0.0,0.0,0.0,0.0,0.0,0.0,0.0,0.0,0.0,0.0,0.0,0.0,0.0,0.0,0.0,0.0,0.0,0.0,0.0,0.0,0.0,0.0,0.0,0.0,0.0,0.0,0.0,0.0,0.0,0.0,0.0,0.0,0.0,0.0,0.0,0.0,0.0,0.0,0.0,0.0,0.0,0.0,0.0,0.0,0.0,0.0,0.0,0.0,-2.0603,-2.0601,-2.0601,-2.0601,-2.0601,0.0,0.0,0.0,0.0,0.0,0.0,0.0,0.0,0.0,0.0,0.0,0.0,0.0,0.0,0.0,0.0,0.0,0.0,0.0,0.0,0.0,0.0,0.0,0.0,0.0,0.0,0.0,0.0,0.0,0.0,0.0,0.0,0.0,0.0,0.0,0.0,0.0,0.0,0.0,0.0,0.0,0.0,0.0,0.0,0.0,0.0,0.0,0.0,0.0,0.0,0.0,0.0,0.0,0.0,0.0,0.0,0.0,0.0,0.0,0.0,0.0,0.0,0.0,0.0,0.0,0.0,0.0,0.0,0.0,0.0,0.0,0.0,0.0,0.0,0.0,0.0,0.0,0.0,0.0,0.0,0.0,0.0,0.0,0.0,0.0,0.0,0.0,0.0,0.0,0.0,0.0,0.0,0.0,0.0,0.0,0.0,0.0,0.0,0.0,0.0,0.0,0.0,0.0,0.0,0.0,0.0,0.0,0.0,0.0,0.0,0.0,0.0,-2.0994,-2.0896,-2.0896,0.0,0.0,0.0,0.0,0.0,0.0,0.0,0.0,0.0,0.0,0.0,0.0,0.0,0.0,0.0,0.0,0.0,0.0,0.0,0.0,0.0,0.0,0.0,0.0,0.0,0.0,0.0,0.0,0.0,0.0,0.0,0.0,0.0,0.0,0.0,0.0,0.0,0.0,0.0,0.0,0.0,0.0,0.0,0.0,0.0,0.0,0.0,0.0,0.0,0.0,0.0,0.0,0.0,0.0,0.0,0.0,0.0,0.0,0.0,0.0,0.0,0.0,0.0,0.0,0.0,0.0,0.0,0.0,0.0,0.0,0.0,0.0,0.0,0.0,0.0,0.0,0.0,0.0,0.0,0.0,0.0,0.0,0.0,0.0,0.0,0.0,0.0,0.0,0.0,0.0,0.0,0.0,0.0,0.0,0.0,0.0,0.0,0.0,0.0,0.0,0.0,0.0,0.0,0.0,0.0,0.0,0.0,0.0,0.0,0.0,-2.1348,-2.2891,-2.2187,0.0,-2.1797,0.0,0.0,0.0,0.0,0.0,0.0,0.0,0.0,0.0,0.0,0.0,0.0,0.0,0.0,0.0,0.0,0.0,0.0,0.0,0.0,0.0,0.0,0.0,0.0,0.0,0.0,0.0,0.0,0.0,0.0,0.0,0.0,0.0,0.0,0.0,0.0,0.0,0.0,0.0,0.0,0.0,0.0,0.0,0.0,0.0,0.0,0.0,0.0,0.0,0.0,0.0,0.0,0.0,0.0,0.0,0.0,0.0,0.0,0.0,0.0,0.0,0.0,0.0,0.0,0.0,0.0,0.0,0.0,0.0,0.0,0.0,0.0,0.0,0.0,0.0,0.0,0.0,0.0,0.0,0.0,0.0,0.0,0.0,0.0,0.0,0.0,0.0,0.0,0.0,0.0,0.0,0.0,0.0,0.0,0.0,0.0,0.0,0.0,0.0,0.0,0.0,0.0,0.0,0.0,0.0,0.0,0.0,0.0,0.0,0.0,-2.248,-2.3184,-2.2852,-2.2422,0.0,0.0,0.0,0.0,0.0,0.0,0.0,0.0,0.0,0.0,0.0,0.0,0.0,0.0,0.0,0.0,0.0,0.0,0.0,0.0,0.0,0.0,0.0,0.0,0.0,0.0,0.0,0.0,0.0,0.0,0.0,0.0,0.0,0.0,0.0,0.0,0.0,0.0,0.0,0.0,0.0,0.0,0.0,0.0,0.0,0.0,0.0,0.0,0.0,0.0,0.0,0.0,0.0,0.0,0.0,0.0,0.0,0.0,0.0,0.0,0.0,0.0,0.0,0.0,0.0,0.0,0.0,0.0,0.0,0.0,0.0,0.0,0.0,0.0,0.0,0.0,0.0,0.0,0.0,0.0,0.0,0.0,0.0,0.0,0.0,0.0,0.0,0.0,0.0,0.0,0.0,0.0,0.0,0.0,0.0,0.0,0.0,0.0,0.0,0.0,0.0,0.0,0.0,0.0,0.0,0.0,0.0,0.0,0.0,0.0,-2.2773,-2.3281,-2.3496,-2.332,-2.2773,-2.1934,0.0,0.0,0.0,0.0,0.0,0.0,0.0,0.0,0.0,0.0,0.0,0.0,0.0,0.0,0.0,0.0,0.0,0.0,0.0,0.0,0.0,0.0,0.0,0.0,0.0,0.0,0.0,0.0,0.0,0.0,0.0,0.0,0.0,0.0,0.0,0.0,0.0,0.0,0.0,0.0,0.0,0.0,0.0,0.0,0.0,0.0,0.0,0.0,0.0,0.0,0.0,0.0,0.0,0.0,0.0,0.0,0.0,0.0,0.0,0.0,0.0,0.0,0.0,0.0,0.0,0.0,0.0,0.0,0.0,0.0,0.0,0.0,0.0,0.0,0.0,0.0,0.0,0.0,0.0,0.0,0.0,0.0,0.0,0.0,0.0,0.0,0.0,0.0,0.0,0.0,0.0,0.0,0.0,0.0,0.0,0.0,0.0,0.0,0.0,0.0,0.0,0.0,0.0,0.0,0.0,0.0,0.0,0.0,-2.5195,-2.3887,-2.3496,-2.4297,-2.3613,-2.2793,0.0,0.0,0.0,0.0,0.0,0.0,0.0,0.0,0.0,0.0,0.0,0.0,0.0,0.0,0.0,0.0,0.0,0.0,0.0,0.0,0.0,0.0,0.0,0.0,0.0,0.0,0.0,0.0,0.0,0.0,0.0,0.0,0.0,0.0,0.0,0.0,0.0,0.0,0.0,0.0,0.0,0.0,0.0,0.0,0.0,0.0,0.0,0.0,0.0,0.0,0.0,0.0,0.0,0.0,0.0,0.0,0.0,0.0,0.0,0.0,0.0,0.0,0.0,0.0,0.0,0.0,0.0,0.0,0.0,0.0,0.0,0.0,0.0,0.0,0.0,0.0,0.0,0.0,0.0,0.0,0.0,0.0,0.0,0.0,0.0,0.0,0.0,0.0,0.0,0.0,0.0,0.0,0.0,0.0,0.0,0.0,0.0,0.0,0.0,0.0,0.0,0.0,0.0,0.0,0.0,0.0,0.0,0.0,0.0,-2.2363,-2.2852,-2.3789,-2.5117,-2.3926,-2.3027,0.0,0.0,0.0,0.0,0.0,0.0,0.0,0.0,0.0,0.0,0.0,0.0,0.0,0.0,0.0,0.0,0.0,0.0,0.0,0.0,0.0,0.0,0.0,0.0,0.0,0.0,0.0,0.0,0.0,0.0,0.0,0.0,0.0,0.0,0.0,0.0,0.0,0.0,0.0,0.0,0.0,0.0,0.0,0.0,0.0,0.0,0.0,0.0,0.0,0.0,0.0,0.0,0.0,0.0,0.0,0.0,0.0,0.0,0.0,0.0,0.0,0.0,0.0,0.0,0.0,0.0,0.0,0.0,0.0,0.0,0.0,0.0,0.0,0.0,0.0,0.0,0.0,0.0,0.0,0.0,0.0,0.0,0.0,0.0,0.0,0.0,0.0,0.0,0.0,0.0,0.0,0.0,0.0,0.0,0.0,0.0,0.0,0.0,0.0,0.0,0.0,0.0,0.0,0.0,0.0,0.0,0.0,0.0,0.0,-2.2246,0.0,-2.4824,0.0,-2.4062,-2.291,0.0,0.0,0.0,0.0,0.0,0.0,0.0,0.0,0.0,0.0,0.0,0.0,0.0,0.0,0.0,0.0,0.0,0.0,0.0,0.0,0.0,0.0,0.0,0.0,0.0,0.0,0.0,0.0,0.0,0.0,0.0,0.0,0.0,0.0,0.0,0.0,0.0,0.0,0.0,0.0,0.0,0.0,0.0,0.0,0.0,0.0,0.0,0.0,0.0,0.0,0.0,0.0,0.0,0.0,0.0,0.0,0.0,0.0,0.0,0.0,0.0,0.0,0.0,0.0,0.0,0.0,0.0,0.0,0.0,0.0,0.0,0.0,0.0,0.0,0.0,0.0,0.0,0.0,0.0,0.0,0.0,0.0,0.0,0.0,0.0,0.0,0.0,0.0,0.0,0.0,0.0,0.0,0.0,0.0,0.0,0.0,0.0,0.0,0.0,0.0,0.0,0.0,0.0,0.0,0.0,0.0,0.0,0.0,-2.2304,-2.5449,-2.6387,-2.6406,-2.5703,-2.4003,-2.2324,0.0,0.0,0.0,0.0,0.0,0.0,0.0,0.0,0.0,0.0,0.0,0.0,0.0,0.0,0.0,0.0,0.0,0.0,0.0,0.0,0.0,0.0,0.0,0.0,0.0,0.0,0.0,0.0,0.0,0.0,0.0,0.0,0.0,0.0,0.0,0.0,0.0,0.0,0.0,0.0,0.0,0.0,0.0,0.0,0.0,0.0,0.0,0.0,0.0,0.0,0.0,0.0,0.0,0.0,0.0,0.0,0.0,0.0,0.0,0.0,0.0,0.0,0.0,0.0,0.0,0.0,0.0,0.0,0.0,0.0,0.0,0.0,0.0,0.0,0.0,0.0,0.0,0.0,0.0,0.0,0.0,0.0,0.0,0.0,0.0,0.0,0.0,0.0,0.0,0.0,0.0,0.0,0.0,0.0,0.0,0.0,0.0,0.0,0.0,0.0,0.0,0.0,0.0,0.0,0.0,0.0,0.0,0.0,0.0,-2.3945,-2.4766,-2.5644,-2.6445,-2.3789,-2.2578,0.0,0.0,0.0,0.0,0.0,0.0,0.0,0.0,0.0,0.0,0.0,0.0,0.0,0.0,0.0,0.0,0.0,0.0,0.0,0.0,0.0,0.0,0.0,0.0,0.0,0.0,0.0,0.0,0.0,0.0,0.0,0.0,0.0,0.0,0.0,0.0,0.0,0.0,0.0,0.0,0.0,0.0,0.0,0.0,0.0,0.0,0.0,0.0,0.0,0.0,0.0,0.0,0.0,0.0,0.0,0.0,0.0,0.0,0.0,0.0,0.0,0.0,0.0,0.0,0.0,0.0,0.0,0.0,0.0,0.0,0.0,0.0,0.0,0.0,0.0,0.0,0.0,0.0,0.0,0.0,0.0,0.0,0.0,0.0,0.0,0.0,0.0,0.0,0.0,0.0,0.0,0.0,0.0,0.0,0.0,0.0,0.0,0.0,0.0,0.0,0.0,0.0,0.0,0.0,0.0,0.0,0.0,0.0,0.0,-2.5602,-2.6054,-2.6543,-2.6992,-2.4609,-2.3359,-2.3417,0.0,0.0,0.0,0.0,0.0,0.0,0.0,0.0,0.0,0.0,0.0,0.0,0.0,0.0,0.0,0.0,0.0,0.0,0.0,0.0,0.0,0.0,0.0,0.0,0.0,0.0,0.0,0.0,0.0,0.0,0.0,0.0,0.0,0.0,0.0,0.0,0.0,0.0,0.0,0.0,0.0,0.0,0.0,0.0,0.0,0.0,0.0,0.0,0.0,0.0,0.0,0.0,0.0,0.0,0.0,0.0,0.0,0.0,0.0,0.0,0.0,0.0,0.0,0.0,0.0,0.0,0.0,0.0,0.0,0.0,0.0,0.0,0.0,0.0,0.0,0.0,0.0,0.0,0.0,0.0,0.0,0.0,0.0,0.0,0.0,0.0,0.0,0.0,0.0,0.0,0.0,0.0,0.0,0.0,0.0,0.0,0.0,0.0,0.0,0.0,0.0,0.0,0.0,0.0,0.0,0.0,0.0,0.0,-2.9657,-2.9764,-2.9004,-2.7381,-2.6306,-2.4646,0.0,0.0,0.0,0.0,0.0,0.0,0.0,0.0,0.0,0.0,0.0,0.0,0.0,0.0,0.0,0.0,0.0,0.0,0.0,0.0,0.0,0.0,0.0,0.0,0.0,0.0,0.0,0.0,0.0,0.0,0.0,0.0,0.0,0.0,0.0,0.0,0.0,0.0,0.0,0.0,0.0,0.0,0.0,0.0,0.0,0.0,0.0,0.0,0.0,0.0,0.0,0.0,0.0,0.0,0.0,0.0,0.0,0.0,0.0,0.0,0.0,0.0,0.0,0.0,0.0,0.0,0.0,0.0,0.0,0.0,0.0,0.0,0.0,0.0,0.0,0.0,0.0,0.0,0.0,0.0,0.0,0.0,0.0,0.0,0.0,0.0,0.0,0.0,0.0,0.0,0.0,0.0,0.0,0.0,0.0,0.0,0.0,0.0,0.0,0.0,0.0,0.0,0.0,0.0,0.0,0.0,0.0,0.0,0.0,-3.0491,-3.1732,-3.1872,-3.0741,-2.8102,-2.6364,0.0,0.0,0.0,0.0,0.0,0.0,0.0,0.0,0.0,0.0,0.0,0.0,0.0,0.0,0.0,0.0,0.0,0.0,0.0,0.0,0.0,0.0,0.0,0.0,0.0,0.0,0.0,0.0,0.0,0.0,0.0,0.0,0.0,0.0,0.0,0.0,0.0,0.0,0.0,0.0,0.0,0.0,0.0,0.0,0.0,0.0,0.0,0.0,0.0,0.0,0.0,0.0,0.0,0.0,0.0,0.0,0.0,0.0,0.0,0.0,0.0,0.0,0.0,0.0,0.0,0.0,0.0,0.0,0.0,0.0,0.0,0.0,0.0,0.0,0.0,0.0,0.0,0.0,0.0,0.0,0.0,0.0,0.0,0.0,0.0,0.0,0.0,0.0,0.0,0.0,0.0,0.0,0.0,0.0,0.0,0.0,0.0,0.0,0.0,0.0,0.0,0.0,0.0,0.0,0.0,0.0,0.0,0.0,-3.0863,-3.2402,-3.3794,-3.4093,-3.3198,-3.0579,-2.8294,0.0,0.0,0.0,0.0,0.0,0.0,0.0,0.0,0.0,0.0,0.0,0.0,0.0,0.0,0.0,0.0,0.0,0.0,0.0,0.0,0.0,0.0,0.0,0.0,0.0,0.0,0.0,0.0,0.0,0.0,0.0,0.0,0.0,0.0,0.0,0.0,0.0,0.0,0.0,0.0,0.0,0.0,0.0,0.0,0.0,0.0,0.0,0.0,0.0,0.0,0.0,0.0,0.0,0.0,0.0,0.0,0.0,0.0,0.0,0.0,0.0,0.0,0.0,0.0,0.0,0.0,0.0,0.0,0.0,0.0,0.0,0.0,0.0,0.0,0.0,0.0,0.0,0.0,0.0,0.0,0.0,0.0,0.0,0.0,0.0,0.0,0.0,0.0,0.0,0.0,0.0,0.0,0.0,0.0,0.0,0.0,0.0,0.0,0.0,0.0,0.0,0.0,0.0,0.0,0.0,0.0,0.0,0.0,-3.2148,-3.4627,-3.5563,-3.5585,-3.4694,-3.3015,-3.0222,0.0,0.0,0.0,0.0,0.0,0.0,0.0,0.0,0.0,0.0,0.0,0.0,0.0,0.0,0.0,0.0,0.0,0.0,0.0,0.0,0.0,0.0,0.0,0.0,0.0,0.0,0.0,0.0,0.0,0.0,0.0,0.0,0.0,0.0,0.0,0.0,0.0,0.0,0.0,0.0,0.0,0.0,0.0,0.0,0.0,0.0,0.0,0.0,0.0,0.0,0.0,0.0,0.0,0.0,0.0,0.0,0.0,0.0,0.0,0.0,0.0,0.0,0.0,0.0,0.0,0.0,0.0,0.0,0.0,0.0,0.0,0.0,0.0,0.0,0.0,0.0,0.0,0.0,0.0,0.0,0.0,0.0,0.0,0.0,0.0,0.0,0.0,0.0,0.0,0.0,0.0,0.0,0.0,0.0,0.0,0.0,0.0,0.0,0.0,0.0,0.0,0.0,0.0,0.0,0.0,0.0,0.0,0.0,-3.2753,-3.4648,-3.5563,-3.5584,-3.4727,-3.301,-3.1059,0.0,0.0,0.0,0.0,0.0,0.0,0.0,0.0,0.0,0.0,0.0,0.0,0.0,0.0,0.0,0.0,0.0,0.0,0.0,0.0,0.0,0.0,0.0,0.0,0.0,0.0,0.0,0.0,0.0,0.0,0.0,0.0,0.0,0.0,0.0,0.0,0.0,0.0,0.0,0.0,0.0,0.0,0.0,0.0,0.0,0.0,0.0,0.0,-2.1468,0.0,0.0,0.0,0.0,0.0,0.0,0.0,0.0,0.0,0.0,0.0,0.0,0.0,0.0,0.0,0.0,0.0,0.0,0.0,0.0,0.0,0.0,0.0,0.0,0.0,0.0,0.0,0.0,0.0,0.0,0.0,0.0,0.0,0.0,0.0,0.0,0.0,0.0,0.0,0.0,0.0,0.0,0.0,0.0,0.0,0.0,0.0,0.0,0.0,0.0,0.0,0.0,0.0,0.0,0.0,0.0,0.0,0.0,0.0,-3.3554,-3.5252,-3.5758,-3.5778,-3.5291,-3.4022,-3.2151,0.0,0.0,0.0,0.0,0.0,0.0,0.0,0.0,0.0,0.0,0.0,0.0,0.0,0.0,0.0,0.0,0.0,0.0,0.0,0.0,0.0,0.0,0.0,0.0,0.0,0.0,0.0,0.0,0.0,0.0,0.0,0.0,0.0,0.0,0.0,0.0,0.0,0.0,0.0,0.0,0.0,0.0,0.0,0.0,0.0,0.0,0.0,0.0,0.0,0.0,0.0,0.0,0.0,0.0,0.0,0.0,0.0,0.0,0.0,0.0,0.0,0.0,0.0,0.0,0.0,0.0,0.0,0.0,0.0,0.0,0.0,0.0,0.0,0.0,0.0,0.0,0.0,0.0,0.0,0.0,0.0,0.0,0.0,0.0,0.0,0.0,0.0,0.0,0.0,0.0,0.0,0.0,0.0,0.0,0.0,0.0,0.0,0.0,0.0,0.0,0.0,0.0,0.0,0.0,0.0,0.0,0.0,-3.2653,-3.4255,-3.5914,-3.6129,-3.6129,-3.5992,-3.5174,-3.3165,-2.9924,0.0,0.0,0.0,0.0,0.0,0.0,0.0,0.0,0.0,0.0,0.0,0.0,0.0,0.0,0.0,0.0,0.0,0.0,0.0,0.0,0.0,0.0,0.0,0.0,0.0,0.0,0.0,0.0,0.0,0.0,0.0,0.0,0.0,0.0,0.0,0.0,0.0,0.0,-2.0936,-2.1719,0.0,0.0,0.0,0.0,0.0,0.0,0.0,0.0,-2.1934,0.0,0.0,0.0,0.0,0.0,0.0,0.0,0.0,0.0,0.0,0.0,0.0,0.0,0.0,0.0,0.0,0.0,0.0,0.0,0.0,0.0,0.0,0.0,0.0,0.0,0.0,0.0,0.0,0.0,0.0,0.0,0.0,0.0,0.0,0.0,0.0,0.0,0.0,0.0,0.0,0.0,0.0,0.0,0.0,0.0,0.0,0.0,0.0,0.0,0.0,0.0,0.0,0.0,0.0,0.0,0.0,-3.2895,-3.3256,-3.4236,-3.5953,-3.6714,-3.6734,-3.6031,-3.5154,-3.3398,-3.0743,0.0,0.0,0.0,0.0,0.0,0.0,0.0,0.0,0.0,0.0,0.0,0.0,0.0,0.0,0.0,0.0,0.0,0.0,0.0,0.0,0.0,0.0,0.0,0.0,0.0,0.0,0.0,0.0,0.0,0.0,0.0,0.0,0.0,0.0,0.0,0.0,0.0,0.0,0.0,-2.3437,-2.4043,0.0,0.0,0.0,0.0,0.0,0.0,0.0,0.0,-2.2292,0.0,0.0,0.0,0.0,0.0,0.0,0.0,0.0,0.0,0.0,0.0,0.0,0.0,0.0,0.0,0.0,0.0,0.0,0.0,0.0,0.0,0.0,0.0,0.0,0.0,0.0,0.0,0.0,0.0,0.0,0.0,0.0,0.0,0.0,0.0,0.0,0.0,0.0,0.0,0.0,0.0,0.0,0.0,0.0,0.0,0.0,0.0,0.0,0.0,0.0,0.0,0.0,0.0,0.0,0.0,-3.2599,-3.4505,-3.6052,-3.7282,-3.7301,-3.7106,-3.6656,-3.4959,-3.3024,0.0,0.0,0.0,0.0,0.0,0.0,0.0,0.0,0.0,0.0,0.0,0.0,0.0,0.0,0.0,0.0,0.0,0.0,0.0,0.0,0.0,0.0,0.0,0.0,0.0,0.0,0.0,0.0,0.0,0.0,0.0,0.0,0.0,0.0,0.0,0.0,0.0,0.0,0.0,0.0,-2.4198,-2.4878,-2.4445,0.0,0.0,0.0,0.0,0.0,0.0,-2.2986,-2.2879,0.0,0.0,0.0,0.0,0.0,0.0,0.0,0.0,0.0,0.0,0.0,0.0,0.0,0.0,0.0,0.0,0.0,0.0,0.0,0.0,0.0,0.0,0.0,0.0,0.0,0.0,0.0,0.0,0.0,0.0,0.0,0.0,0.0,0.0,0.0,0.0,0.0,0.0,0.0,0.0,0.0,0.0,0.0,0.0,0.0,0.0,0.0,0.0,0.0,0.0,0.0,0.0,0.0,0.0,0.0,-3.2106,-3.5362,-3.7536,-3.8513,-3.7906,-3.7477,-3.7262,-3.492,-3.2769,0.0,0.0,0.0,0.0,0.0,0.0,0.0,0.0,0.0,0.0,0.0,0.0,0.0,0.0,0.0,0.0,0.0,0.0,0.0,0.0,0.0,0.0,0.0,0.0,0.0,0.0,0.0,0.0,0.0,0.0,0.0,0.0,0.0,0.0,0.0,0.0,0.0,0.0,0.0,0.0,0.0,-2.5824,-2.5031,-2.5308,0.0,0.0,0.0,0.0,-2.4456,-2.4163,0.0,0.0,0.0,0.0,0.0,0.0,0.0,0.0,0.0,0.0,0.0,0.0,0.0,0.0,0.0,0.0,0.0,0.0,0.0,0.0,0.0,0.0,0.0,0.0,0.0,0.0,0.0,0.0,0.0,0.0,0.0,0.0,0.0,0.0,0.0,0.0,0.0,0.0,0.0,0.0,0.0,0.0,0.0,0.0,0.0,0.0,0.0,0.0,0.0,0.0,0.0,0.0,0.0,0.0,0.0,0.0,-3.2032,-3.4771,-3.6968,-3.8513,-3.8494,-3.8082,-3.7301,-3.5506,-3.3377,0.0,0.0,0.0,0.0,0.0,0.0,0.0,0.0,0.0,0.0,0.0,0.0,0.0,0.0,0.0,0.0,0.0,0.0,0.0,0.0,0.0,0.0,0.0,0.0,0.0,0.0,0.0,0.0,0.0,0.0,0.0,0.0,0.0,0.0,0.0,0.0,0.0,0.0,0.0,0.0,0.0,-2.7586,-2.6725,-2.6034,-2.581,0.0,0.0,-2.5251,-2.534,-2.5928,0.0,0.0,0.0,0.0,0.0,0.0,0.0,0.0,0.0,0.0,0.0,0.0,0.0,0.0,0.0,0.0,0.0,0.0,0.0,0.0,0.0,0.0,0.0,0.0,0.0,0.0,0.0,0.0,0.0,0.0,0.0,0.0,0.0,0.0,0.0,0.0,0.0,0.0,0.0,0.0,0.0,0.0,0.0,0.0,0.0,0.0,0.0,0.0,0.0,0.0,0.0,0.0,0.0,0.0,0.0,-2.926,-3.2067,-3.5162,-3.734,-3.8533,-3.8121,-3.7692,-3.7321,-3.4648,-3.2458,0.0,0.0,0.0,0.0,0.0,0.0,0.0,0.0,0.0,0.0,0.0,0.0,0.0,0.0,0.0,0.0,0.0,0.0,0.0,0.0,0.0,0.0,0.0,0.0,0.0,0.0,0.0,0.0,0.0,0.0,0.0,0.0,0.0,0.0,0.0,0.0,0.0,0.0,0.0,0.0,0.0,0.0,-2.7626,-2.7668,0.0,0.0,0.0,-2.6979,-2.6971,0.0,0.0,0.0,0.0,0.0,0.0,0.0,0.0,0.0,0.0,0.0,0.0,0.0,0.0,0.0,0.0,0.0,0.0,0.0,0.0,0.0,0.0,0.0,0.0,0.0,0.0,0.0,0.0,0.0,0.0,0.0,0.0,0.0,0.0,0.0,0.0,0.0,0.0,0.0,0.0,0.0,0.0,0.0,0.0,0.0,0.0,0.0,0.0,0.0,0.0,0.0,0.0,0.0,0.0,0.0,0.0,0.0,-3.2097,-3.5506,-3.7707,-3.8507,-3.7749,-3.7301,-3.7243,-3.412,0.0,0.0,0.0,0.0,0.0,0.0,0.0,0.0,0.0,0.0,0.0,0.0,0.0,0.0,0.0,0.0,0.0,0.0,0.0,0.0,0.0,0.0,0.0,0.0,0.0,0.0,0.0,-1.6577,0.0,0.0,0.0,0.0,0.0,0.0,0.0,0.0,0.0,0.0,0.0,0.0,0.0,0.0,-2.843,-2.8424,-2.8971,-2.9221,0.0,0.0,-2.8411,-2.841,-2.8054,-2.718,0.0,0.0,0.0,0.0,0.0,0.0,0.0,0.0,0.0,0.0,0.0,0.0,0.0,0.0,0.0,0.0,0.0,0.0,0.0,0.0,0.0,0.0,0.0,0.0,0.0,0.0,0.0,0.0,0.0,0.0,0.0,0.0,0.0,0.0,0.0,0.0,0.0,0.0,0.0,0.0,0.0,0.0,0.0,0.0,0.0,0.0,0.0,0.0,0.0,0.0,0.0,0.0,0.0,0.0,-2.9515,-3.203,-3.5427,-3.7609,-3.8448,-3.7723,-3.7301,-3.7262,-3.4705,-3.2167,0.0,0.0,0.0,0.0,0.0,0.0,0.0,0.0,0.0,0.0,0.0,0.0,0.0,0.0,0.0,0.0,0.0,0.0,0.0,0.0,0.0,0.0,0.0,0.0,0.0,0.0,0.0,0.0,0.0,0.0,0.0,0.0,0.0,0.0,0.0,0.0,0.0,0.0,0.0,0.0,0.0,-2.9301,-2.9302,-2.9315,-2.9586,0.0,-2.9741,-2.9203,-2.9218,-2.9852,-2.8982,-2.4958,0.0,0.0,0.0,0.0,0.0,0.0,0.0,0.0,0.0,0.0,0.0,0.0,0.0,0.0,0.0,0.0,0.0,0.0,0.0,0.0,0.0,0.0,0.0,0.0,0.0,0.0,0.0,0.0,0.0,0.0,0.0,0.0,0.0,0.0,0.0,0.0,0.0,0.0,0.0,0.0,0.0,0.0,0.0,0.0,0.0,0.0,0.0,0.0,0.0,0.0,0.0,0.0,0.0,-2.9179,-3.1201,-3.4645,-3.6557,-3.6863,-3.6598,-3.6471,-3.65,-3.4489,-3.244,0.0,0.0,0.0,0.0,0.0,0.0,0.0,0.0,0.0,0.0,0.0,0.0,0.0,0.0,0.0,0.0,0.0,0.0,0.0,0.0,0.0,0.0,0.0,0.0,0.0,0.0,0.0,0.0,-1.9099,-1.9509,-2.0036,0.0,0.0,0.0,0.0,0.0,0.0,0.0,0.0,0.0,0.0,-2.9586,-3.0059,-3.0121,0.0,0.0,-3.0335,-3.0107,-3.0104,-2.9476,-2.8257,-2.6087,-2.5143,0.0,0.0,0.0,0.0,0.0,0.0,0.0,0.0,0.0,0.0,0.0,0.0,0.0,0.0,0.0,0.0,0.0,0.0,0.0,0.0,0.0,0.0,0.0,0.0,0.0,0.0,0.0,0.0,0.0,0.0,0.0,0.0,0.0,0.0,0.0,0.0,0.0,0.0,0.0,0.0,0.0,0.0,0.0,0.0,0.0,0.0,0.0,0.0,0.0,0.0,0.0,0.0,-2.9121,-3.108,-3.4266,-3.5886,-3.5885,-3.5892,-3.5927,-3.5907,-3.4306,-3.2592,0.0,0.0,0.0,0.0,0.0,0.0,0.0,0.0,0.0,0.0,0.0,0.0,0.0,0.0,0.0,0.0,0.0,0.0,0.0,0.0,0.0,0.0,0.0,0.0,0.0,0.0,0.0,0.0,-1.9685,-1.992,-2.0526,0.0,0.0,0.0,0.0,0.0,0.0,0.0,0.0,0.0,0.0,-2.966,-3.0473,-3.0604,-3.0692,-3.0931,-3.0761,-3.0668,-3.0931,-2.994,-2.8664,-2.7305,0.0,0.0,0.0,0.0,0.0,0.0,0.0,0.0,0.0,0.0,0.0,0.0,0.0,0.0,0.0,0.0,0.0,0.0,0.0,0.0,0.0,0.0,0.0,0.0,0.0,0.0,0.0,-2.0131,0.0,0.0,-2.0117,0.0,0.0,0.0,0.0,0.0,0.0,0.0,0.0,0.0,0.0,0.0,0.0,0.0,0.0,0.0,0.0,0.0,0.0,0.0,0.0,0.0,0.0,-2.9369,-3.193,-3.4561,-3.5885,-3.5885,-3.5894,-3.5883,-3.5867,-3.4289,-3.258,-3.08,0.0,0.0,0.0,0.0,0.0,0.0,0.0,0.0,0.0,0.0,0.0,0.0,0.0,0.0,0.0,0.0,0.0,0.0,0.0,0.0,0.0,0.0,0.0,0.0,0.0,0.0,-2.0541,-2.0562,-2.0565,0.0,0.0,0.0,0.0,0.0,0.0,0.0,0.0,0.0,-2.6646,-2.8248,-2.964,-3.0506,-3.0622,-3.0912,-3.1676,-3.1139,-3.0907,-3.1657,-3.1695,-3.0868,0.0,0.0,0.0,0.0,0.0,0.0,0.0,0.0,0.0,0.0,0.0,0.0,0.0,0.0,0.0,0.0,0.0,0.0,0.0,0.0,0.0,0.0,0.0,0.0,0.0,0.0,0.0,-2.3574,-2.2784,0.0,0.0,0.0,0.0,0.0,0.0,0.0,0.0,0.0,0.0,0.0,-2.9871,-3.0434,0.0,0.0,0.0,0.0,0.0,0.0,0.0,0.0,0.0,0.0,0.0,0.0,-2.9385,-3.1969,-3.4529,-3.5853,-3.5882,-3.5892,-3.5894,-3.5883,-3.4278,-3.2053,-2.9219,0.0,0.0,0.0,0.0,0.0,0.0,0.0,0.0,0.0,0.0,0.0,0.0,0.0,0.0,0.0,0.0,0.0,0.0,0.0,0.0,0.0,0.0,0.0,0.0,0.0,-2.0598,0.0,0.0,0.0,0.0,0.0,0.0,0.0,0.0,0.0,0.0,-2.4918,-2.6598,-2.8245,-2.9444,-3.049,-3.1406,-3.1506,-3.1756,0.0,0.0,0.0,0.0,0.0,0.0,0.0,0.0,0.0,0.0,0.0,0.0,0.0,0.0,-2.9052,-2.6225,-2.5231,-2.4902,-2.5216,0.0,0.0,0.0,0.0,0.0,0.0,0.0,0.0,0.0,0.0,0.0,0.0,0.0,0.0,-2.614,-2.5835,-2.5274,0.0,0.0,0.0,0.0,0.0,0.0,0.0,0.0,-3.0438,-3.2066,-3.2866,-3.3192,-3.2866,-3.1992,-3.1176,-2.9016,0.0,0.0,0.0,0.0,0.0,0.0,0.0,0.0,-3.0143,-3.2435,-3.4668,-3.583,-3.5857,-3.5857,-3.5878,-3.5855,-3.4289,-3.2072,-2.9258,-2.7267,-2.5394,0.0,0.0,0.0,0.0,0.0,0.0,0.0,0.0,0.0,0.0,0.0,0.0,0.0,0.0,0.0,0.0,0.0,0.0,0.0,0.0,0.0,0.0,0.0,-2.0602,0.0,0.0,0.0,0.0,0.0,0.0,0.0,0.0,0.0,-2.4754,-2.6242,-2.7916,-2.9566,-3.0269,-3.106,-3.2264,0.0,0.0,0.0,0.0,0.0,0.0,0.0,-3.1385,-3.2229,-3.1243,-3.0552,-3.1087,-3.1926,-3.2267,-3.1408,0.0,0.0,-2.8095,-2.6983,-2.6673,-2.6971,-2.6562,-2.6231,-2.6527,-2.6573,-2.658,0.0,0.0,0.0,0.0,-2.9366,0.0,0.0,0.0,-2.8598,-2.8646,0.0,-2.7669,0.0,0.0,0.0,0.0,-2.5892,-2.9098,0.0,0.0,-3.3852,-3.5391,-3.4715,-3.5488,-3.5449,-3.4711,-3.5367,-3.4031,-3.0733,-2.6686,0.0,0.0,0.0,0.0,0.0,0.0,-3.1568,-3.3313,-3.4944,-3.5795,-3.5795,-3.5795,-3.5819,-3.5804,-3.4262,-3.2597,-3.0916,-2.9923,-2.7952,-2.4709,-2.4436,0.0,0.0,0.0,0.0,0.0,0.0,0.0,0.0,0.0,0.0,0.0,0.0,0.0,0.0,0.0,0.0,0.0,0.0,0.0,0.0,-2.0605,0.0,0.0,0.0,0.0,0.0,0.0,0.0,0.0,0.0,-2.6654,-2.6046,-2.7272,-2.8852,-3.0467,0.0,0.0,0.0,0.0,-3.2679,-3.4288,-3.3825,-3.3596,-3.44,-3.4439,-3.4152,-3.3421,0.0,0.0,-3.2516,-3.293,-3.3222,-3.2365,-3.2891,-3.2891,-3.1152,-2.9476,-2.8624,-2.9277,-2.8244,-2.7488,-2.8083,-2.8298,-2.828,-3.6244,0.0,0.0,0.0,0.0,-3.2361,-3.3156,-3.4771,-3.3913,-3.3001,-3.2093,-3.1627,0.0,0.0,0.0,0.0,0.0,0.0,-3.2699,-3.3157,-3.5605,-3.6925,-3.7299,-3.7528,-3.7512,-3.7279,-3.6906,-3.5915,-3.4264,-3.1895,-2.9311,-2.6575,0.0,0.0,0.0,0.0,-3.184,-3.407,-3.5236,-3.5795,-3.5795,-3.5795,-3.5523,-3.498,-3.3968,-3.2865,-3.1741,-2.9741,-2.8225,-2.7209,-2.5408,0.0,0.0,0.0,0.0,0.0,0.0,0.0,0.0,0.0,0.0,0.0,0.0,0.0,0.0,0.0,0.0,0.0,0.0,0.0,-2.0546,-2.0526,-2.0779,0.0,0.0,0.0,0.0,0.0,0.0,0.0,0.0,0.0,-2.9204,-2.9201,-2.9513,0.0,0.0,-3.2055,-3.3173,-3.3628,-3.425,-3.5343,-3.5284,0.0,-3.5376,-3.4385,-3.3934,-3.497,-3.535,-3.5355,-3.4895,-3.5015,-3.4898,-3.404,-3.4099,-3.3902,-3.2869,-3.1758,-3.0903,-3.0514,-3.0027,-2.9775,-3.0002,-3.0051,-3.0019,-4.0402,-3.7916,-3.609,-3.5799,-3.6498,-3.6032,-3.6887,-3.8518,-3.7353,-3.6634,-3.6226,-3.5255,-3.3818,-3.2143,-3.1464,0.0,0.0,0.0,-3.5061,-3.5605,-3.7333,-3.8421,-3.8907,-3.9237,-3.9198,-3.8907,-3.8382,-3.7683,-3.6809,-3.5818,-3.3841,-3.0985,0.0,-2.9602,-3.0943,-3.1778,-3.2967,-3.4462,-3.5352,-3.5795,-3.5795,-3.5795,-3.5589,-3.5097,-3.3963,-3.313,-3.2602,-3.0465,-2.8985,-2.8302,-2.6464,-2.4882,0.0,0.0,0.0,0.0,0.0,0.0,0.0,0.0,0.0,0.0,0.0,-1.8777,-1.7606,0.0,0.0,0.0,-2.039,-2.1054,-2.1031,-2.1633,0.0,0.0,0.0,0.0,0.0,0.0,0.0,-2.6634,-2.8485,-3.0122,-3.1174,-3.1161,-3.1346,-3.2124,-3.2421,-3.3008,-3.4211,0.0,-3.4908,-3.5765,-3.5882,-3.5895,-3.5829,-3.4957,-3.4656,-3.5723,-3.5897,-3.5889,-3.5889,-3.5889,-3.5713,-3.5265,-3.5109,-3.4859,-3.404,-3.3436,-3.2696,-3.1544,-3.1035,-3.0806,-3.0798,-3.0788,-3.0796,-4.3704,-4.3433,-4.031,-3.9392,-3.9994,-3.9994,-4.0402,-4.0966,-3.9474,-3.9625,-4.0791,-3.8557,-3.7858,-3.8406,-3.677,0.0,-3.6047,-3.6925,-3.7314,-3.7372,-3.9023,-3.9796,-3.9815,-4.0538,-4.0519,-3.9776,-3.9796,-3.9353,-3.8523,-3.8484,-3.8076,-3.7139,-3.4066,-3.2846,-3.3487,-3.4152,-3.454,-3.4595,-3.5391,-3.5795,-3.5795,-3.5799,-3.5799,-3.5766,-3.4172,-3.3299,-3.3236,-3.1679,-3.0078,-2.8576,-2.7601,-2.6351,-2.4631,0.0,0.0,0.0,0.0,0.0,0.0,0.0,0.0,0.0,0.0,0.0,0.0,0.0,0.0,0.0,-2.0918,0.0,-2.189,-2.34,0.0,0.0,0.0,-2.5506,-2.4767,-2.6848,-2.8327,-2.8385,0.0,0.0,-3.2309,-3.2988,-3.3807,-3.4586,-3.4002,-3.406,-3.5577,-3.5148,-3.4993,-3.5791,-3.5889,-3.5889,-3.5883,-3.5786,-3.575,-3.5867,-3.5889,-3.5889,-3.5889,-3.5889,-3.5889,-3.583,-3.5889,-3.5636,-3.4837,-3.4606,-3.4099,-3.2501,-3.1527,-3.0903,-3.0819,-3.0786,-3.079,-4.5419,-4.5336,-4.452,-4.3588,-4.2612,-4.2597,-4.2709,-4.283,-4.2456,-4.2151,-4.184,-4.1262,-4.0383,-3.9334,-3.8266,-3.778,-3.7843,-3.8693,-3.9077,-3.914,-4.015,-4.0616,-4.0635,-4.081,-4.081,-4.0616,-4.0616,-4.0189,-3.9431,-3.9392,-3.8946,-3.8095,-3.7275,-3.6323,-3.5231,-3.475,-3.4851,-3.5484,-3.5678,-3.5795,-3.5795,-3.585,-3.558,-3.4935,-3.3926,-3.3076,-3.2422,-3.1381,-3.0625,-3.0195,-2.8791,-2.7503,-2.6411,-2.3149,0.0,0.0,0.0,0.0,0.0,0.0,0.0,0.0,0.0,-1.8562,-1.6845,0.0,-2.0518,0.0,-2.1813,-2.2799,-2.2799,-2.3755,0.0,0.0,-2.6015,-2.6794,-2.7238,-2.8424,-2.9438,-3.01,-3.131,-3.2599,-3.3846,-3.4177,-3.4622,-3.5441,-3.4856,-3.4469,-3.4876,-3.5324,-3.5655,-3.585,-3.5889,-3.5889,-3.5889,-3.5889,-3.5889,-3.5889,-3.5889,-3.5889,-3.5889,-3.5889,-3.5889,-3.5889,-3.5889,-3.5811,-3.5597,-3.5073,-3.4277,-3.3288,-3.2394,-3.1579,-3.0948,-3.0801,-3.0788,-4.5982,-4.5982,-4.5982,-4.5453,-4.4617,-4.4598,-4.4598,-4.4579,-4.4229,-4.3802,-4.3321,-4.2966,-4.2267,-4.1374,-4.0888,-4.0674,-4.0713,-4.1179,-4.1179,-4.0849,-4.1276,-4.1257,-4.0907,-4.0888,-4.0888,-4.0888,-4.0888,-4.0674,-4.0247,-4.0247,-3.9975,-3.9509,-3.9159,-3.8499,-3.7523,-3.6284,-3.5896,-3.6358,-3.5989,-3.5795,-3.5795,-3.5823,-3.546,-3.461,-3.3414,-3.2563,-3.2097,-3.0934,-3.0274,-3.0216,-2.9006,-2.8088,-2.7543,-2.4671,-2.2778,0.0,0.0,0.0,0.0,0.0,0.0,0.0,0.0,0.0,0.0,0.0,-2.132,-2.1679,-2.3274,-2.4253,-2.4273,-2.5715,-2.6712,-2.6809,-2.7918,-2.8678,-2.8775,-2.9554,-3.0275,-3.0743,-3.1563,-3.2599,-3.3885,-3.4391,-3.4915,-3.5791,-3.546,-3.5187,-3.5207,-3.5616,-3.5889,-3.5889,-3.5889,-3.5889,-3.5889,-3.5889,-3.5889,-3.5889,-3.5889,-3.5889,-3.5889,-3.5889,-3.5889,-3.5889,-3.5889,-3.5889,-3.585,-3.5187,-3.4352,-3.3539,-3.2708,-3.1839,-3.0978,-3.0789,-3.0795,-4.5982,-4.5982,-4.5982,-4.5982,-4.5982,-4.5982,-4.5982,-4.5944,-4.5258,-4.4948,-4.4889,-4.4035,-4.3666,-4.3666,-4.3544,-4.3486,-4.3486,-4.3486,-4.3102,-4.2369,-4.2364,-4.1903,-4.1082,-4.1063,-4.1005,-4.0888,-4.0888,-4.0888,-4.0888,-4.0888,-4.0888,-4.0869,-4.0189,-3.9854,-3.9776,-3.8246,-3.7314,-3.7081,-3.6222,-3.5795,-3.5795,-3.5795,-3.5367,-3.4436,-3.2953,-3.2084,-3.1893,-3.0528,-2.9747,-2.9729,-2.8928,-2.8459,-2.842,-2.6096,-2.5004,0.0,-2.4276,0.0,0.0,0.0,0.0,0.0,0.0,0.0,0.0,-2.2646,-2.271,-2.3535,-2.5066,-2.6002,-2.6022,-2.8127,-2.9204,-2.8522,-2.9808,-3.0487,-2.9808,-3.0334,-3.084,-3.0957,-3.1719,-3.2599,-3.3495,-3.4255,-3.5071,-3.5752,-3.5869,-3.5811,-3.5869,-3.5869,-3.5889,-3.5889,-3.5889,-3.5889,-3.5889,-3.5889,-3.5889,-3.5889,-3.5889,-3.5889,-3.5889,-3.5889,-3.5889,-3.5889,-3.5889,-3.5889,-3.5889,-3.5187,-3.4352,-3.3556,-3.2706,-3.1839,-3.1038,-3.0791,-3.0794,-4.5982,-4.5982,-4.5982,-4.5982,-4.5982,-4.5982,-4.5982,-4.5982,-4.5846,-4.5769,-4.5725,-4.4909,-4.4559,-4.4501,-4.3802,-4.3486,-4.3486,-4.3486,-4.3413,-4.3253,-4.3258,-4.2792,-4.1995,-4.1961,-4.1587,-4.0927,-4.0888,-4.0888,-4.0888,-4.0888,-4.0888,-4.0888,-4.0752,-4.0674,-4.0616,0.0,0.0,0.0,-3.6261,-3.5795,-3.5795,-3.5795,-3.5076,-3.3601,-3.3228,0.0,-3.111,-3.0732,-3.0575,-3.0566,-2.9786,0.0,0.0,0.0,0.0,0.0,0.0,0.0,0.0,0.0,0.0,0.0,-2.4506,-2.3338,-2.3163,-2.4258,-2.5329,-2.6186,-2.7149,-2.7723,-2.7743,-2.8774,-2.9438,-2.9321,-3.0175,-3.0723,-3.0567,-3.0701,-3.1055,-3.18,-3.2618,-3.3456,-3.4216,-3.5109,-3.5675,-3.583,-3.5889,-3.5889,-3.5889,-3.5889,-3.5889,-3.5889,-3.5889,-3.5889,-3.5889,-3.5889,-3.5889,-3.5889,-3.5889,-3.5889,-3.5889,-3.5889,-3.5889,-3.5889,-3.5889,-3.5889,-3.585,-3.521,-3.4313,-3.3544,-3.2688,-3.1837,-3.0993,-3.0788,-3.0794,-4.5982,-4.5982,-4.5982,-4.5982,0.0,-4.5982,-4.5982,-4.5982,-4.5982,-4.5982,-4.5982,-4.5574,-4.5394,-4.5356,-4.4928,-4.4734,-4.4734,-4.4734,-4.452,-4.4151,-4.4151,-4.3685,-4.283,-4.2408,-4.1956,-4.1534,-4.1102,-4.0888,-4.0888,-4.0888,-4.0888,-4.0888,-4.0888,-4.0888,-4.0869,-4.0087,-3.8848,-3.712,-3.6669,-3.6222,-3.5814,-3.5838,-3.5252,-3.3991,-3.3137,0.0,0.0,0.0,0.0,0.0,0.0,0.0,0.0,0.0,0.0,-2.8224,-2.8224,-2.7854,-2.7073,-2.7756,-2.8229,-2.8217,-2.7422,-2.6187,-2.453,-2.5948,-2.7111,-2.7541,-2.8363,-2.8837,-2.8876,-2.9622,-3.0139,-3.0178,-3.0548,-3.0801,-3.0801,-3.0801,-3.0977,-3.1369,-3.1836,-3.2577,-3.3865,-3.4352,-3.5012,-3.5752,-3.5889,-3.5869,-3.5889,-3.5889,-3.5889,-3.5889,-3.5889,-3.5889,-3.5889,-3.5889,-3.5889,-3.5889,-3.5889,-3.5889,-3.5889,-3.5889,-3.5889,-3.5889,-3.5889,-3.5791,-3.5285,-3.4583,-3.3748,-3.2915,-3.2058,-3.138,-3.0866,-3.0799,-3.0789,-4.5982,-4.5982,-4.5982,-4.5982,-4.5982,-4.5982,-4.5982,-4.5982,-4.5982,0.0,0.0,-4.5982,-4.5982,-4.5982,-4.5982,-4.5982,-4.5982,-4.5982,-4.5633,-4.5025,-4.5025,-4.4481,-4.3491,-4.2772,-4.2267,-4.1942,-4.1238,-4.0888,-4.0888,-4.0888,-4.0888,-4.0888,-4.0888,-4.0888,-4.0869,-4.0247,-3.914,-3.7625,-3.7256,-3.6669,-3.5834,-3.5853,-3.546,-3.4617,-3.3251,-3.2418,-3.209,-3.0781,-2.998,-2.9827,-2.9807,-2.9807,-2.9807,-2.9807,-3.0118,-3.0722,-3.08,-3.0509,-2.9866,-3.0411,-3.0438,-2.957,-2.952,-2.8628,-2.6509,-2.763,-2.8499,-2.8654,-2.9314,-2.9808,-2.9944,-3.0589,-3.1093,-3.123,-3.1113,-3.1035,-3.1016,-3.086,-3.0801,-3.0821,-3.1016,-3.1563,-3.2949,-3.3358,-3.3865,-3.5109,-3.548,-3.5752,-3.5869,-3.5889,-3.5889,-3.5889,-3.5889,-3.5889,-3.5889,-3.5889,-3.5889,-3.5889,-3.5889,-3.5889,-3.5889,-3.5889,-3.5889,-3.5889,-3.5889,-3.5538,-3.4761,-3.4002,-3.3125,-3.2267,-3.1408,-3.0784,-3.0795,-3.0786,-3.0796,-4.5982,-4.5982,-4.5982,-4.5982,-4.5982,-4.5982,-4.5982,-4.5982,-4.5982,-4.5982,-4.5982,-4.5982,-4.5982,-4.5982,-4.5982,-4.5982,-4.5982,-4.5982,-4.5944,-4.5827,-4.5822,-4.4986,-4.3525,-4.3374,-4.252,-4.116,-4.0946,-4.0888,-4.0888,-4.0888,-4.0888,-4.0888,-4.0888,-4.0888,-4.0888,-4.0771,-4.0266,-3.9329,-3.7877,-3.6669,-3.5834,-3.5803,-3.5414,-3.4653,-3.4366,-3.3556,-3.2167,-3.1882,-3.1412,-3.0683,-3.0626,-3.0626,-3.0626,-3.0626,-3.0684,-3.0781,-3.08,-3.0761,-3.0626,-3.0742,-3.0422,-2.9608,-2.9514,-2.9317,-2.9022,-2.9193,-2.962,-3.0341,-3.055,-3.0918,-3.1624,-3.1819,-3.2209,-3.2813,-3.2345,-3.1917,-3.1858,-3.1271,-3.084,-3.0801,-3.1486,-3.1897,-3.2306,-3.293,-3.3436,-3.3807,-3.445,-3.5034,-3.5577,-3.5889,-3.5889,-3.5889,-3.5889,-3.5889,-3.5889,-3.5889,-3.5889,-3.5889,-3.5889,-3.5889,-3.5889,-3.5889,-3.5889,-3.5889,-3.583,-3.548,-3.47,-3.3943,-3.3047,-3.217,-3.133,-3.0821,-3.0786,-3.0786,-3.0795,-4.5982,-4.5982,-4.5982,-4.5982,-4.5982,-4.5982,-4.5982,-4.5982,-4.5982,-4.5982,-4.5982,-4.5982,-4.5982,-4.5982,-4.5982,-4.5982,-4.5982,-4.5982,-4.5982,-4.5982,-4.5982,-4.538,-4.4229,-4.3724,-4.285,-4.165,-4.1121,-4.0888,-4.0888,-4.0888,-4.0888,-4.0888,-4.0888,-4.0888,-4.0888,-4.0888,-4.0499,-3.9703,-3.8441,-3.7372,-3.6518,-3.5624,-3.5178,-3.5302,-3.4469,-3.383,-3.3534,-3.3059,-3.2609,-3.2225,-3.1758,-3.1504,-3.1504,-3.1075,-3.08,-3.08,-3.08,-3.08,-3.08,-3.0795,-3.0625,-3.0262,-3.0198,-3.0427,-3.0884,-3.049,-3.0567,-3.1408,-3.1505,-3.1858,-3.2696,-3.2813,-3.2969,-3.3358,-3.3027,-3.2618,-3.215,-3.18,-3.133,-3.0918,-3.1132,-3.1563,-3.2034,-3.2462,-3.293,-3.33,-3.3787,-3.4118,-3.4528,-3.4954,-3.5382,-3.5791,-3.5889,-3.5889,-3.5889,-3.5889,-3.5889,-3.5889,-3.5889,-3.5889,-3.5889,-3.5889,-3.5889,-3.585,-3.5558,-3.4895,-3.4118,-3.3261,-3.2423,-3.1602,-3.1152,-3.0821,-3.0801,-3.0786,-3.0798,-4.5982,-4.5982,-4.5982,-4.5982,-4.5982,-4.5982,-4.5982,-4.5982,-4.5982,-4.5982,-4.5982,-4.5982,-4.5982,-4.5982,-4.5982,-4.5982,-4.5982,-4.5982,-4.5982,-4.5982,-4.5982,-4.5472,-4.4501,-4.3797,-4.2947,-4.1956,-4.1218,-4.0888,-4.0888,-4.0888,-4.0888,-4.0888,-4.0888,-4.0888,-4.0888,-4.0888,-4.0597,-3.9975,-3.914,-3.827,-3.7392,-3.5927,-3.5499,-3.6025,-3.4761,-3.4199,-3.4627,-3.4061,-3.3593,-3.3377,-3.2753,-3.2402,-3.2363,-3.1757,-3.1386,-3.1386,-3.1386,-3.1388,-3.1395,-3.1387,-3.1397,-3.1379,-3.1389,-3.168,-3.2228,-3.1778,-3.1641,-3.2267,-3.2404,-3.2735,-3.3495,-3.367,-3.3748,-3.3904,-3.3768,-3.3436,-3.2793,-3.2501,-3.2053,-3.1271,-3.1093,-3.1349,-3.1663,-3.18,-3.215,-3.2852,-3.3105,-3.3164,-3.3417,-3.4099,-3.4876,-3.5402,-3.5752,-3.5889,-3.5889,-3.5889,-3.5889,-3.5889,-3.5889,-3.5889,-3.5889,-3.5889,-3.5889,-3.5811,-3.5207,-3.443,-3.3573,-3.2735,-3.1897,-3.1093,-3.084,-3.0801,-3.0801,-3.0786,-3.0798,-4.5982,-4.5982,-4.5982,-4.5982,-4.5982,-4.5982,-4.5982,-4.5982,-4.5982,-4.5982,-4.5982,-4.5982,-4.5982,-4.5982,-4.5982,-4.5982,-4.5982,-4.5982,-4.5982,-4.5982,-4.5982,-4.5161,-4.3738,-4.3525,-4.2636,-4.1199,-4.0946,-4.0888,-4.0888,-4.0888,-4.0888,-4.0888,-4.0888,-4.0888,-4.0888,-4.0888,-4.0849,-4.0771,-3.9994,-3.9159,-3.8309,-3.7357,-3.695,-3.7055,-3.6145,-3.5351,-3.4782,-3.4629,-3.4217,-3.3474,-3.3338,-3.3279,-3.3279,-3.3182,-3.3123,-3.3103,-3.3123,-3.317,-3.3123,-3.3163,-3.3075,-3.3152,-3.3065,-3.3105,-3.3261,-3.3203,-3.3164,-3.332,-3.33,-3.3631,-3.4352,-3.4486,-3.4759,-3.5324,-3.4895,-3.4447,-3.4216,-3.3709,-3.2949,-3.2072,-3.1878,-3.1741,-3.1152,-3.1016,-3.131,-3.2111,-3.2209,-3.2443,-3.3047,-3.3943,-3.4486,-3.482,-3.5343,-3.585,-3.5889,-3.5889,-3.5889,-3.5889,-3.5889,-3.5889,-3.5889,-3.5889,-3.5869,-3.5577,-3.509,-3.4235,-3.3436,-3.2696,-3.178,-3.1055,-3.0801,-3.0801,-3.0801,-3.0784,-3.0789,-4.5982,-4.5982,-4.5982,-4.5982,-4.5982,-4.5982,-4.5982,-4.5982,-4.5982,-4.5982,-4.5982,-4.5982,-4.5982,-4.5982,-4.5982,-4.5982,-4.5982,-4.5982,-4.5982,-4.5944,-4.553,-4.4637,-4.3544,-4.2947,-4.2073,-4.0966,-4.0888,-4.0888,-4.0888,-4.0888,-4.0888,-4.0888,-4.0888,-4.0888,-4.0888,-4.0888,-4.0888,-4.0888,-4.061,-4.0283,-3.9654,-3.7547,-3.6616,-3.6991,-3.5869,-3.5271,-3.5462,-3.5465,-3.5309,-3.4919,-3.447,-3.4178,-3.4159,-3.369,-3.3396,-3.3378,-3.3389,-3.3396,-3.3378,-3.3389,-3.3389,-3.3382,-3.3385,-3.3573,-3.406,-3.4118,-3.4294,-3.4742,-3.4411,-3.4447,-3.5229,-3.5363,-3.5519,-3.5791,-3.558,-3.519,-3.4642,-3.4311,-3.3631,-3.2365,-3.2092,-3.18,-3.1016,-3.0801,-3.0957,-3.1291,-3.1349,-3.1583,-3.1934,-3.3005,-3.3807,-3.406,-3.4995,-3.5791,-3.5889,-3.5889,-3.5889,-3.5889,-3.5889,-3.5889,-3.5889,-3.5889,-3.5752,-3.5288,-3.4508,-3.367,-3.2735,-3.1973,-3.1171,-3.0821,-3.0801,-3.0801,-3.0801,-3.0786,-3.0791,-4.5982,-4.5982,-4.5982,-4.5982,-4.5982,-4.5982,-4.5982,-4.5982,-4.5982,-4.5982,-4.5982,-4.5982,-4.5982,-4.5982,-4.5982,-4.5982,-4.5982,-4.5982,-4.5982,-4.5924,-4.5161,-4.4345,-4.3471,-4.2617,-4.1743,-4.1005,-4.0888,-4.0888,-4.0888,-4.0888,-4.0888,-4.0888,-4.0888,-4.0888,-4.0888,-4.0888,-4.0888,-4.0897,-4.0972,-4.0967,-4.0571,-3.8275,-3.7092,-3.7386,-3.6111,-3.5552,-3.5971,-3.6012,-3.6012,-3.5992,-3.5387,-3.5057,-3.5018,-3.445,-3.4118,-3.4102,-3.4116,-3.4101,-3.4116,-3.4102,-3.4076,-3.4084,-3.4099,-3.4313,-3.4817,-3.4954,-3.5249,-3.5694,-3.5326,-3.5249,-3.5752,-3.5889,-3.5889,-3.5889,-3.5889,-3.5597,-3.5071,-3.4954,-3.4408,-3.3066,-3.2949,-3.2365,-3.1427,-3.0977,-3.084,-3.086,-3.084,-3.0801,-3.0957,-3.209,-3.3027,-3.3105,-3.4294,-3.5288,-3.5752,-3.5889,-3.5889,-3.5889,-3.5889,-3.5889,-3.5889,-3.5889,-3.5597,-3.4993,-3.3999,-3.33,-3.2813,-3.1914,-3.0918,-3.0879,-3.0957,-3.1016,-3.084,-3.081,-3.0798,-4.5982,-4.5982,-4.5982,-4.5982,-4.5982,-4.5982,-4.5982,-4.5982,-4.5982,-4.5982,-4.5982,-4.5982,-4.5982,-4.5982,-4.5982,-4.5982,-4.5982,-4.5982,-4.5982,-4.5905,-4.5142,-4.4326,-4.3471,-4.2617,-4.1728,-4.0946,-4.0888,-4.0888,-4.0888,-4.0888,-4.0888,-4.0888,-4.0888,-4.0888,-4.0888,-4.0893,-4.0888,-4.0926,-4.0967,-4.0994,-4.0883,-4.0003,-3.9089,-3.8438,-3.7513,-3.668,-3.6147,-3.6012,-3.6012,-3.6012,-3.5914,-3.5895,-3.5914,-3.5856,-3.5759,-3.58,-3.5815,-3.5801,-3.5776,-3.568,-3.5635,-3.5702,-3.5577,-3.5733,-3.5675,-3.5713,-3.5772,-3.5889,-3.5811,-3.5811,-3.5772,-3.585,-3.5889,-3.5889,-3.5889,-3.585,-3.5811,-3.5616,-3.5421,-3.4528,-3.4002,-3.32,-3.2072,-3.131,-3.0938,-3.0879,-3.086,-3.0879,-3.1074,-3.1722,-3.2248,-3.2443,-3.3105,-3.4079,-3.546,-3.5499,-3.5597,-3.5655,-3.5519,-3.5694,-3.583,-3.5791,-3.5265,-3.4739,-3.3921,-3.3317,-3.3025,-3.2362,-3.1386,-3.1174,-3.1563,-3.1583,-3.0918,-3.0821,-3.0791,-4.5982,-4.5982,-4.5982,-4.5982,-4.5982,-4.5982,-4.5982,-4.5982,-4.5982,-4.5982,-4.5982,-4.5982,-4.5982,-4.5982,-4.5982,-4.5982,-4.5982,-4.5982,-4.5982,-4.5846,-4.4598,-4.3802,-4.3394,-4.2053,-4.1238,-4.0946,-4.0888,-4.0888,-4.0888,-4.0888,-4.0888,-4.0888,-4.0888,-4.0888,-4.0917,-4.0949,-4.0953,-4.0986,-4.1031,-4.1035,-4.1003,-4.0741,-4.0176,-3.9325,-3.795,-3.7094,-3.6831,-3.6313,-3.6012,-3.6012,-3.6012,-3.6012,-3.6013,-3.6004,-3.6009,-3.6011,-3.5975,-3.5942,-3.5955,-3.5929,-3.5887,-3.5892,-3.5889,-3.5889,-3.5889,-3.5889,-3.5889,-3.5889,-3.5889,-3.5713,-3.5304,-3.5558,-3.5889,-3.5889,-3.5869,-3.583,-3.5791,-3.5424,-3.4742,-3.3885,-3.2947,-3.1873,-3.1641,-3.0996,-3.1035,-3.1525,-3.1622,-3.1622,-3.1778,-3.2365,-3.2715,-3.2384,-3.2813,-3.3592,-3.406,-3.4274,-3.4352,-3.4664,-3.4742,-3.4391,-3.4352,-3.4489,-3.4079,-3.3748,-3.3203,-3.3222,-3.293,-3.3222,-3.2206,-3.1758,-3.215,-3.2031,-3.0957,-3.1016,-3.0927,-4.5982,-4.5982,-4.5982,-4.5982,-4.5982,-4.5982,-4.5982,-4.5982,-4.5982,-4.5982,-4.5982,-4.5982,-4.5982,-4.5982,-4.5982,-4.5982,-4.5982,-4.5982,-4.5982,-4.5866,-4.4559,-4.3782,-4.3292,-4.2015,-4.116,-4.0927,-4.0888,-4.0888,-4.0888,-4.0888,-4.0888,-4.0888,-4.0935,-4.0932,-4.0949,-4.0994,-4.0983,-4.1001,-4.1068,-4.1074,-4.1033,-4.1086,-4.0837,-4.0069,-3.8534,-3.75,-3.7265,-3.6443,-3.6009,-3.6009,-3.6009,-3.6007,-3.6004,-3.6011,-3.6014,-3.5995,-3.5926,-3.5882,-3.59,-3.5892,-3.5889,-3.5889,-3.5889,-3.5889,-3.5889,-3.5889,-3.5889,-3.5889,-3.5869,-3.5538,-3.4954,-3.5129,-3.5363,-3.5168,-3.509,-3.509,-3.5051,-3.4547,-3.4021,-3.3456,-3.2596,-3.1856,-3.1639,-3.1661,-3.1953,-3.2462,-3.2521,-3.2521,-3.2618,-3.2949,-3.3242,-3.2696,-3.3008,-3.3534,-3.3904,-3.4002,-3.3787,-3.3982,-3.404,-3.3534,-3.3358,-3.3358,-3.3242,-3.2813,-3.2735,-3.2871,-3.3183,-3.3631,-3.3358,-3.2735,-3.2871,-3.3005,-3.2109,-3.131,-3.1203,-4.5982,-4.5982,-4.5982,-4.5982,-4.5982,-4.5982,-4.5982,-4.5982,-4.5982,-4.5982,-4.5982,-4.5982,-4.5982,-4.5982,-4.5982,-4.5982,-4.5982,-4.5982,-4.5982,-4.5905,-4.5103,-4.4307,-4.3569,-4.2675,-4.1767,-4.1063,-4.0927,-4.0888,-4.0888,-4.0888,-4.0888,-4.0911,-4.0976,-4.0987,-4.0994,-4.0992,-4.0994,-4.1001,-4.1055,-4.111,-4.1109,-4.1117,-4.1067,-4.0833,-3.9312,-3.8043,-3.7297,-3.646,-3.6013,-3.6012,-3.6012,-3.6014,-3.6015,-3.6015,-3.5976,-3.5996,-3.5944,-3.5903,-3.5898,-3.589,-3.5889,-3.5889,-3.5889,-3.5889,-3.5889,-3.5889,-3.5889,-3.5889,-3.585,-3.5538,-3.4798,-3.4681,-3.443,-3.3612,-3.369,-3.3709,-3.3592,-3.3456,-3.3397,-3.3358,-3.3144,-3.332,-3.332,-3.3105,-3.3125,-3.33,-3.3397,-3.3397,-3.3378,-3.3514,-3.3456,-3.332,-3.3339,-3.3534,-3.3807,-3.3963,-3.3651,-3.3436,-3.3358,-3.3144,-3.3242,-3.3281,-3.3242,-3.2969,-3.3378,-3.3553,-3.4079,-3.445,-3.4372,-3.3963,-3.4096,-3.3765,-3.2852,-3.1995,-3.1536,-4.5982,-4.5982,-4.5982,-4.5982,-4.5982,-4.5982,-4.5982,-4.5982,-4.5982,-4.5982,-4.5982,-4.5982,-4.5982,-4.5982,-4.5982,-4.5982,-4.5982,-4.5982,-4.5982,-4.5846,-4.5181,-4.4695,-4.4248,-4.3491,-4.2636,-4.1801,-4.1179,-4.0888,-4.0888,-4.0888,-4.0915,-4.0956,-4.0974,-4.0991,-4.1003,-4.0992,-4.0976,-4.1015,-4.106,-4.1097,-4.1111,-4.1111,-4.1112,-4.0925,-3.9433,-3.8351,-3.8051,-3.676,-3.6049,-3.601,-3.601,-3.6012,-3.5993,-3.5969,-3.5924,-3.5921,-3.5916,-3.5887,-3.5887,-3.5897,-3.5889,-3.5889,-3.5889,-3.5889,-3.5889,-3.5889,-3.5889,-3.5889,-3.5869,-3.5538,-3.4817,-3.4603,-3.4255,-3.3475,-3.3378,-3.3378,-3.3378,-3.3378,-3.3378,-3.3378,-3.3378,-3.3378,-3.3417,-3.3436,-3.3729,-3.4157,-3.4235,-3.4213,-3.4235,-3.4235,-3.3943,-3.3553,-3.3534,-3.369,-3.4002,-3.4216,-3.406,-3.3651,-3.3378,-3.2969,-3.3047,-3.3203,-3.3164,-3.3495,-3.3904,-3.4372,-3.4895,-3.509,-3.5012,-3.4778,-3.4547,-3.3943,-3.3183,-3.2603,-3.214,-4.5982,-4.5982,-4.5982,-4.5982,-4.5982,-4.5982,-4.5982,-4.5982,-4.5982,-4.5982,-4.5982,-4.5982,-4.5982,-4.5982,-4.5982,-4.5982,-4.5982,-4.5982,-4.5982,-4.5944,-4.555,-4.5103,-4.4656,-4.3549,-4.2558,-4.1786,-4.116,-4.0906,-4.0937,-4.0941,-4.0963,-4.1003,-4.1017,-4.102,-4.1032,-4.103,-4.1035,-4.1052,-4.1087,-4.1103,-4.1117,-4.1109,-4.11,-4.0857,-3.9412,-3.8578,-3.8389,-3.6852,-3.5973,-3.5955,-3.5979,-3.5963,-3.5962,-3.5911,-3.5882,-3.5896,-3.5895,-3.5889,-3.5889,-3.5892,-3.5889,-3.5889,-3.5889,-3.5889,-3.5889,-3.5889,-3.5889,-3.5889,-3.5889,-3.5538,-3.48,-3.4603,-3.4235,-3.3475,-3.3378,-3.3378,-3.3378,-3.3378,-3.3378,-3.3436,-3.3651,-3.3787,-3.3846,-3.4235,-3.4469,-3.4995,-3.5073,-3.5071,-3.509,-3.509,-3.4683,-3.443,-3.4567,-3.4606,-3.445,-3.445,-3.445,-3.404,-3.3612,-3.3066,-3.2754,-3.3027,-3.3144,-3.4002,-3.4567,-3.5012,-3.5519,-3.5616,-3.5577,-3.5285,-3.4976,-3.4606,-3.4021,-3.3203,-3.2623,-4.5982,-4.5982,-4.5982,-4.5982,-4.5982,-4.5982,-4.5982,-4.5982,-4.5982,-4.5982,-4.5982,-4.5982,-4.5982,-4.5982,-4.5982,-4.5982,-4.5982,-4.5982,-4.5982,-4.5982,-4.5866,-4.553,-4.4656,-4.3277,-4.2155,-4.1296,-4.1005,-4.0932,-4.0977,-4.0981,-4.0989,-4.1015,-4.1053,-4.1111,-4.1087,-4.1117,-4.1093,-4.1093,-4.11,-4.1114,-4.1112,-4.11,-4.111,-4.101,-3.9454,-3.8519,-3.8288,-3.6852,-3.5897,-3.5897,-3.5908,-3.59,-3.59,-3.588,-3.5898,-3.5894,-3.589,-3.5894,-3.5889,-3.5889,-3.5889,-3.5889,-3.5889,-3.5889,-3.5889,-3.5889,-3.5889,-3.5889,-3.5889,-3.5597,-3.4937,-3.4778,-3.443,-3.3748,-3.3553,-3.3436,-3.3475,-3.3514,-3.369,-3.3807,-3.4213,-3.4681,-3.4683,-3.5288,-3.5619,-3.5775,-3.5755,-3.5713,-3.5713,-3.5675,-3.5811,-3.5675,-3.5402,-3.5324,-3.5112,-3.5112,-3.509,-3.4878,-3.443,-3.3943,-3.3261,-3.3397,-3.3729,-3.4547,-3.4917,-3.546,-3.5869,-3.5889,-3.5889,-3.5675,-3.546,-3.5365,-3.4859,-3.4021,-3.3186,-4.5982,-4.5982,-4.5982,-4.5982,-4.5982,-4.5982,-4.5982,-4.5982,-4.5982,-4.5982,-4.5982,-4.5982,-4.5982,-4.5982,-4.5982,-4.5982,-4.5982,-4.5982,-4.5982,-4.5982,-4.5982,-4.555,-4.4753,-4.3704,-4.268,-4.1845,-4.1193,-4.0937,-4.0987,-4.1003,-4.1014,-4.1074,-4.1053,-4.1059,-4.1087,-4.11,-4.1103,-4.11,-4.11,-4.1117,-4.1117,-4.1114,-4.1107,-4.0951,-3.9393,-3.8539,-3.8344,-3.6824,-3.5889,-3.5889,-3.5899,-3.5885,-3.5887,-3.5887,-3.589,-3.5887,-3.5899,-3.5889,-3.5889,-3.5889,-3.5889,-3.5889,-3.5889,-3.5889,-3.5889,-3.5889,-3.5889,-3.5889,-3.5889,-3.5811,-3.5577,-3.5519,-3.5382,-3.5151,-3.4235,-3.3748,-3.4157,-3.4311,-3.4506,-3.5132,-3.5385,-3.546,-3.5538,-3.5675,-3.5889,-3.5889,-3.5889,-3.5889,-3.5889,-3.5889,-3.5889,-3.5889,-3.5752,-3.5811,-3.5811,-3.5811,-3.5772,-3.5694,-3.5499,-3.5343,-3.4761,-3.4467,-3.4856,-3.5421,-3.4876,-3.5109,-3.5616,-3.5889,-3.5889,-3.5889,-3.5811,-3.5616,-3.5441,-3.4856,-3.3963,-4.5982,-4.5982,-4.5982,-4.5982,-4.5982,-4.5982,-4.5982,-4.5982,-4.5982,-4.5982,-4.5982,-4.5982,-4.5982,-4.5982,-4.5982,-4.5982,-4.5982,-4.5982,-4.5982,-4.5982,-4.5982,-4.553,-4.4753,-4.3918,-4.3063,-4.2213,-4.1365,-4.1022,-4.1021,-4.103,-4.1033,-4.1064,-4.1052,-4.1053,-4.1103,-4.11,-4.1107,-4.111,-4.1107,-4.1107,-4.1107,-4.1107,-4.0835,-4.0448,-3.9182,-3.8266,-3.7409,-3.6395,-3.5908,-3.5889,-3.5889,-3.5889,-3.5889,-3.5889,-3.5889,-3.5889,-3.5889,-3.5889,-3.5889,-3.5889,-3.5889,-3.5889,-3.5889,-3.5889,-3.5889,-3.5889,-3.5889,-3.5889,-3.5889,-3.5889,-3.5889,-3.5889,-3.5889,-3.5713,-3.5015,-3.4645,-3.5109,-3.5151,-3.5363,-3.5752,-3.5889,-3.5889,-3.5889,-3.5889,-3.5889,-3.5889,-3.5889,-3.5889,-3.5889,-3.5889,-3.5889,-3.5889,-3.5889,-3.5889,-3.5889,-3.5889,-3.5889,-3.5869,-3.5869,-3.5889,-3.5538,-3.5071,-3.4817,-3.4876,-3.4681,-3.4737,-3.5201,-3.565,-3.5889,-3.5889,-3.5889,-3.585,-3.5655,-3.5402,-3.4547,-4.5982,-4.5982,-4.5982,-4.5982,-4.5982,-4.5982,-4.5982,-4.5982,-4.5982,-4.5982,-4.5982,-4.5982,-4.5982,-4.5982,-4.5982,-4.5982,-4.5982,-4.5982,-4.5982,-4.5982,-4.5944,-4.5627,-4.5011,-4.3972,-4.3084,-4.2247,-4.1401,-4.1088,-4.1034,-4.1014,-4.1058,-4.109,-4.1089,-4.1098,-4.1109,-4.1117,-4.111,-4.1107,-4.1107,-4.1107,-4.1107,-4.1088,-4.0818,-4.0192,-3.9123,-3.7701,-3.6551,-3.5889,-3.5889,-3.5889,-3.5889,-3.5889,-3.5889,-3.5889,-3.5889,-3.5889,-3.5889,-3.5889,-3.5889,-3.5889,-3.5889,-3.5889,-3.5889,-3.5889,-3.5889,-3.5889,-3.5889,-3.5889,-3.5889,-3.5889,-3.5889,-3.5889,-3.5889,-3.5869,-3.5791,-3.585,-3.5889,-3.5889,-3.5889,-3.5889,-3.5889,-3.5889,-3.5889,-3.5889,-3.5889,-3.5889,-3.5889,-3.5889,-3.5889,-3.5889,-3.5889,-3.5889,-3.5889,-3.5889,-3.5889,-3.5889,-3.5889,-3.5889,-3.5889,-3.583,-3.5521,-3.5015,-3.4352,-3.4002,-3.3807,-3.4086,-3.4691,-3.5126,-3.5552,-3.5878,-3.5849,-3.588,-3.583,-3.5519,-3.4876,-4.5982,-4.5982,-4.5982,-4.5982,-4.5982,-4.5982,-4.5982,-4.5982,-4.5982,-4.5982,-4.5982,-4.5982,-4.5982,-4.5982,-4.5982,-4.5982,-4.5982,-4.5982,-4.5982,-4.5982,-4.5982,-4.5944,-4.541,-4.4292,-4.3121,-4.2275,-4.1408,-4.1043,-4.1014,-4.1025,-4.1034,-4.1108,-4.1114,-4.1109,-4.1117,-4.1114,-4.1107,-4.1107,-4.1107,-4.1107,-4.1107,-4.1088,-4.0935,-4.0487,-3.9221,-3.7623,-3.6279,-3.5889,-3.5889,-3.5889,-3.5889,-3.5889,-3.5889,-3.5889,-3.5889,-3.5889,-3.5889,-3.5889,-3.5889,-3.5889,-3.5889,-3.5889,-3.5889,-3.5889,-3.5889,-3.5889,-3.5889,-3.5889,-3.5889,-3.5889,-3.5889,-3.5889,-3.5889,-3.5889,-3.5889,-3.5889,-3.5889,-3.5889,-3.5889,-3.5889,-3.5889,-3.5889,-3.5889,-3.5889,-3.5889,-3.5889,-3.5889,-3.5889,-3.5889,-3.5889,-3.5889,-3.5889,-3.5889,-3.5889,-3.5897,-3.59,-3.5883,-3.5886,-3.5889,-3.5655,-3.5346,-3.4742,-3.3982,-3.3378,-3.291,-3.3398,-3.4092,-3.4658,-3.5087,-3.544,-3.5833,-3.5875,-3.5811,-3.5538,-3.5187,-4.5982,-4.5982,-4.5982,-4.5982,-4.5982,-4.5982,-4.5982,-4.5982,-4.5982,-4.5982,-4.5982,-4.5982,-4.5982,-4.5982,-4.5982,-4.5982,-4.5982,-4.5982,-4.5982,-4.6007,-4.6027,-4.6056,-4.5831,-4.4816,-4.3707,-4.2852,-4.2023,-4.1483,-4.1153,-4.1041,-4.1079,-4.1109,-4.1103,-4.1097,-4.111,-4.1107,-4.1107,-4.1107,-4.1107,-4.1107,-4.1107,-4.1107,-4.0526,-3.9864,-3.8597,-3.7214,-3.6045,-3.5889,-3.5889,-3.5889,-3.5889,-3.5889,-3.5889,-3.5889,-3.5889,-3.5889,-3.5889,-3.5889,-3.5889,-3.5889,-3.5889,-3.5889,-3.5889,-3.5889,-3.5889,-3.5889,-3.5889,-3.5889,-3.5889,-3.5889,-3.5889,-3.5889,-3.5889,-3.5889,-3.5889,-3.5889,-3.5889,-3.5889,-3.5889,-3.5889,-3.5889,-3.5889,-3.5889,-3.5889,-3.5889,-3.5889,-3.5889,-3.5889,-3.5889,-3.5889,-3.5889,-3.5889,-3.5889,-3.5883,-3.5888,-3.5888,-3.5894,-3.588,-3.5889,-3.5499,-3.5073,-3.4313,-3.3475,-3.3008,-3.2635,-3.2852,-3.3495,-3.4049,-3.4717,-3.5389,-3.5774,-3.5849,-3.585,-3.5713,-3.5304,-4.5982,-4.5982,-4.5982,-4.5982,-4.5982,-4.5982,-4.5982,-4.5982,-4.5982,-4.5982,-4.5982,-4.5982,-4.5982,-4.5982,-4.5982,-4.5982,-4.5982,-4.5982,-4.5982,-4.6007,-4.6054,-4.6096,-4.591,-4.5359,-4.4621,-4.3763,-4.2674,-4.1921,-4.1459,-4.1159,-4.1103,-4.111,-4.111,-4.111,-4.111,-4.1107,-4.1107,-4.1107,-4.1107,-4.1107,-4.1107,-4.1068,-4.0351,-3.9182,-3.8441,-3.7545,-3.6727,-3.6356,-3.6162,-3.6084,-3.5967,-3.5908,-3.5889,-3.5889,-3.5889,-3.5889,-3.5889,-3.5889,-3.5889,-3.5889,-3.5889,-3.5889,-3.5889,-3.5889,-3.5889,-3.5889,-3.5889,-3.5889,-3.5889,-3.5889,-3.5889,-3.5889,-3.5889,-3.5889,-3.5889,-3.5889,-3.5889,-3.5889,-3.5889,-3.5889,-3.5889,-3.5889,-3.5889,-3.5889,-3.5889,-3.5889,-3.5889,-3.5889,-3.5889,-3.5889,-3.5889,-3.5889,-3.5889,-3.5833,-3.5833,-3.5892,-3.5898,-3.5859,-3.5875,-3.5577,-3.5054,-3.445,-3.3768,-3.291,-3.2627,-3.2668,-3.2891,-3.352,-3.4294,-3.5224,-3.571,-3.5807,-3.5849,-3.5886,-3.5457,-4.5982,-4.5982,-4.5982,-4.5982,-4.5982,-4.5982,-4.5982,-4.5982,-4.5982,-4.5982,-4.5982,-4.5982,-4.5982,-4.5982,-4.5982,-4.5982,-4.5982,-4.5982,-4.5988,-4.5998,-4.6072,-4.6105,-4.605,-4.5917,-4.5426,-4.4464,-4.3255,-4.2344,-4.1925,-4.15,-4.1146,-4.1107,-4.1107,-4.1107,-4.1107,-4.1107,-4.1107,-4.1107,-4.1107,-4.1107,-4.1107,-4.1029,-4.0623,-3.9571,-3.9162,-3.8617,-3.7896,-3.7292,-3.6999,-3.6921,-3.6298,-3.5967,-3.5889,-3.5889,-3.5889,-3.5889,-3.5889,-3.5889,-3.5889,-3.5889,-3.5889,-3.5889,-3.5889,-3.5889,-3.5889,-3.5889,-3.5889,-3.5889,-3.5889,-3.5889,-3.5889,-3.5889,-3.5889,-3.5889,-3.5889,-3.5889,-3.5889,-3.5889,-3.5889,-3.5889,-3.5889,-3.5889,-3.5889,-3.5889,-3.5889,-3.5889,-3.5889,-3.5886,-3.588,-3.5883,-3.5886,-3.5889,-3.5889,-3.582,-3.576,-3.5838,-3.5878,-3.5829,-3.583,-3.5889,-3.5402,-3.4895,-3.4174,-3.3183,-3.2269,-3.1822,-3.2246,-3.2943,-3.3734,-3.4575,-3.5157,-3.5702,-3.5794,-3.5824,-3.5872,-4.5982,-4.5982,-4.5982,-4.5982,-4.5982,-4.5982,-4.5982,-4.5982,-4.5982,-4.5982,-4.5982,-4.5982,-4.5982,-4.5982,-4.5982,-4.5982,-4.6002,-4.5982,-4.5998,-4.6041,-4.6086,-4.6122,-4.6143,-4.6201,-4.5984,-4.5185,-4.3916,-4.2733,-4.2279,-4.1497,-4.1146,-4.1107,-4.1107,-4.1107,-4.1107,-4.1107,-4.1107,-4.1107,-4.1107,-4.1107,-4.1107,-4.1107,-4.064,-4.0058,-3.9705,-3.9104,-3.7974,-3.7506,-3.6941,-3.6532,-3.6106,-3.5928,-3.5889,-3.5889,-3.5889,-3.5889,-3.5889,-3.5889,-3.5889,-3.5889,-3.5889,-3.5889,-3.5889,-3.5889,-3.5889,-3.5889,-3.5889,-3.5889,-3.5889,-3.5889,-3.5889,-3.5889,-3.5889,-3.5889,-3.5889,-3.5889,-3.5889,-3.5889,-3.5889,-3.5889,-3.5889,-3.5889,-3.5889,-3.5889,-3.5889,-3.5889,-3.5889,-3.5883,-3.5894,-3.5894,-3.59,-3.585,-3.5843,-3.5784,-3.573,-3.5779,-3.5838,-3.5792,-3.5822,-3.5866,-3.5691,-3.5143,-3.4272,-3.3281,-3.2377,-3.1825,-3.1682,-3.2402,-3.3156,-3.3942,-3.4584,-3.5165,-3.5549,-3.5757,-3.5802,-4.5982,-4.5982,-4.5982,-4.5982,-4.5982,-4.5982,-4.5982,-4.5982,-4.5982,-4.5982,-4.5982,-4.5982,-4.5982,-4.5982,-4.5982,-4.6007,-4.6032,-4.6017,-4.6048,-4.6089,-4.6115,-4.6149,-4.6183,-4.6208,-4.6142,-4.5806,-4.4332,-4.325,-4.2588,-4.1594,-4.1166,-4.1107,-4.1107,-4.1107,-4.1107,-4.1107,-4.1107,-4.1107,-4.1107,-4.1107,-4.1107,-4.1068,-4.0796,-4.0136,-4.0039,-3.9373,-3.8207,-3.772,-3.7136,-3.6532,-3.6086,-3.5889,-3.5889,-3.5889,-3.5889,-3.5889,-3.5889,-3.5889,-3.5889,-3.5889,-3.5889,-3.5889,-3.5889,-3.5889,-3.5889,-3.5889,-3.5889,-3.5889,-3.5889,-3.5889,-3.5889,-3.5889,-3.5889,-3.5889,-3.5889,-3.5889,-3.5889,-3.5889,-3.5889,-3.5889,-3.5889,-3.5889,-3.5889,-3.5889,-3.5889,-3.5889,-3.5889,-3.5894,-3.5885,-3.5888,-3.5876,-3.5803,-3.5767,-3.5745,-3.5722,-3.5736,-3.5745,-3.5712,-3.5788,-3.5862,-3.5671,-3.5368,-3.4497,-3.3763,-3.3395,-3.2881,-3.2392,-3.2058,-3.3014,-3.3799,-3.4235,-3.477,-3.5418,-3.5679,-3.5702,-4.5982,-4.5982,-4.5982,-4.5982,-4.5982,-4.5982,-4.5982,-4.5982,-4.5982,-4.5982,-4.5982,-4.5982,-4.5982,-4.5982,-4.5982,-4.6027,-4.606,-4.6098,-4.6098,-4.6117,-4.6166,-4.6191,-4.621,-4.6201,-4.6196,-4.5884,-4.4419,-4.3679,-4.2997,-4.1809,-4.1127,-4.1107,-4.1107,-4.1107,-4.1107,-4.1107,-4.1107,-4.1107,-4.1107,-4.1107,-4.1107,-4.1107,-4.099,-4.0935,-4.0799,-4.027,-3.9123,-3.8461,-3.7779,-3.6902,-3.622,-3.5928,-3.5889,-3.5889,-3.5889,-3.5889,-3.5889,-3.5889,-3.5889,-3.5889,-3.5889,-3.5889,-3.5889,-3.5889,-3.5889,-3.5889,-3.5889,-3.5889,-3.5889,-3.5889,-3.5889,-3.5889,-3.5889,-3.5889,-3.5889,-3.5889,-3.5889,-3.5889,-3.5889,-3.5886,-3.5883,-3.5883,-3.5883,-3.5886,-3.5889,-3.5889,-3.5886,-3.5885,-3.5862,-3.5852,-3.5852,-3.5791,-3.5742,-3.5713,-3.5694,-3.5708,-3.5713,-3.565,-3.5735,-3.5841,-3.5749,-3.5531,-3.521,-3.4573,-3.4191,-3.3611,-3.2848,-3.2754,-3.3266,-3.3735,-3.4251,-3.4872,-3.5505,-3.5599,-3.5604,-4.5982,-4.5982,-4.5982,-4.5982,-4.5982,-4.5982,-4.5982,-4.5982,-4.5982,-4.5982,-4.5982,-4.5982,-4.5982,-4.6002,-4.5982,-4.6036,-4.6096,-4.6114,-4.6143,-4.6168,-4.6189,-4.6213,-4.6214,-4.62,-4.6199,-4.5709,-4.4598,-4.3679,-4.3075,-4.2062,-4.1107,-4.1107,-4.1107,-4.1107,-4.1107,-4.1107,-4.1107,-4.1107,-4.1107,-4.1107,-4.1107,-4.1107,-4.1107,-4.1107,-4.1107,-4.039,-3.9357,-3.8772,-3.7779,-3.6766,-3.6006,-3.5908,-3.5889,-3.5889,-3.5889,-3.5889,-3.5889,-3.5889,-3.5889,-3.5889,-3.5889,-3.5889,-3.5889,-3.5889,-3.5889,-3.5889,-3.5889,-3.5889,-3.5889,-3.5889,-3.5889,-3.5889,-3.5889,-3.5889,-3.5889,-3.5889,-3.5889,-3.5889,-3.5889,-3.5883,-3.5897,-3.5894,-3.5888,-3.5856,-3.5876,-3.5879,-3.5843,-3.5834,-3.5795,-3.5756,-3.576,-3.576,-3.5713,-3.5692,-3.5683,-3.5698,-3.5704,-3.5684,-3.5732,-3.5815,-3.5872,-3.5694,-3.5392,-3.5034,-3.4542,-3.3893,-3.3243,-3.3158,-3.3401,-3.3853,-3.433,-3.485,-3.5335,-3.5476,-3.5495,-4.5982,-4.5982,-4.5982,-4.5982,-4.5982,-4.5982,-4.5982,-4.5982,-4.5982,-4.5982,-4.6007,-4.6012,-4.6022,-4.6037,-4.6026,-4.6072,-4.6147,-4.6119,-4.6166,-4.6205,-4.6206,-4.6204,-4.6206,-4.6199,-4.6063,-4.5848,-4.4341,-4.3504,-4.2802,-4.1926,-4.1107,-4.1107,-4.1107,-4.1107,-4.1107,-4.1107,-4.1107,-4.1107,-4.1107,-4.1107,-4.1107,-4.1107,-4.1107,-4.1107,-4.0951,-4.039,-3.9084,-3.8558,-3.7662,-3.6688,-3.6045,-3.5908,-3.5889,-3.5889,-3.5889,-3.5889,-3.5889,-3.5889,-3.5889,-3.5889,-3.5889,-3.5889,-3.5889,-3.5889,-3.5889,-3.5889,-3.5889,-3.5889,-3.5889,-3.5889,-3.5889,-3.5889,-3.5889,-3.5889,-3.5889,-3.5889,-3.5889,-3.5889,-3.5889,-3.5883,-3.5894,-3.5892,-3.5882,-3.5841,-3.5834,-3.5861,-3.5834,-3.5778,-3.5732,-3.5707,-3.5707,-3.5733,-3.5713,-3.5695,-3.5681,-3.5697,-3.5703,-3.5718,-3.5751,-3.5786,-3.5823,-3.581,-3.5626,-3.5236,-3.4862,-3.473,-3.4376,-3.3889,-3.3531,-3.4197,-3.4741,-3.4794,-3.5051,-3.5223,-3.535,-4.5982,-4.5982,-4.5982,-4.5982,-4.5982,-4.5982,-4.5982,-4.5982,-4.5982,-4.5982,-4.6007,-4.6066,-4.6084,-4.6076,-4.6079,-4.6126,-4.6194,-4.6208,-4.6207,-4.6206,-4.6206,-4.6203,-4.6174,-4.6043,-4.5732,-4.5046,-4.3893,-4.3056,-4.2413,-4.1692,-4.1185,-4.1107,-4.1107,-4.1107,-4.1107,-4.1107,-4.1107,-4.1107,-4.1107,-4.1107,-4.1107,-4.1107,-4.1107,-4.1107,-4.1029,-4.064,-3.9727,-3.8928,-3.8052,-3.698,-3.6259,-3.5908,-3.5889,-3.5889,-3.5889,-3.5889,-3.5889,-3.5889,-3.5889,-3.5889,-3.5889,-3.5889,-3.5889,-3.5889,-3.5889,-3.5889,-3.5889,-3.5889,-3.5889,-3.5889,-3.5889,-3.5889,-3.5889,-3.5889,-3.5889,-3.5889,-3.5889,-3.5889,-3.5889,-3.5883,-3.5885,-3.5872,-3.5838,-3.581,-3.5791,-3.5795,-3.5801,-3.5757,-3.5737,-3.5697,-3.5701,-3.5701,-3.572,-3.5709,-3.5709,-3.5701,-3.5716,-3.5697,-3.5713,-3.5742,-3.5786,-3.5733,-3.5675,-3.5643,-3.5352,-3.545,-3.5407,-3.4723,-3.4404,-3.4879,-3.5144,-3.5048,-3.5029,-3.5189,-3.5243,-4.5982,-4.5982,-4.5982,-4.5982,-4.5982,-4.5982,-4.5982,-4.5982,-4.5982,-4.5982,-4.6007,-4.6075,-4.6119,-4.6105,-4.6108,-4.6139,-4.6211,-4.6208,-4.6204,-4.6211,-4.6203,-4.6216,-4.6082,-4.5673,-4.5186,-4.4618,-4.3565,-4.2705,-4.2276,-4.1477,-4.1205,-4.1107,-4.1107,-4.1107,-4.1107,-4.1107,-4.1107,-4.1107,-4.1107,-4.1107,-4.1107,-4.1107,-4.1107,-4.1107,-4.1107,-4.0643,-3.9805,-3.8967,-3.811,-3.7253,-3.6395,-3.6025,-3.5889,-3.5889,-3.5889,-3.5889,-3.5889,-3.5889,-3.5889,-3.5889,-3.5889,-3.5889,-3.5889,-3.5889,-3.5889,-3.5889,-3.5889,-3.5889,-3.5889,-3.5889,-3.5889,-3.5889,-3.5889,-3.5889,-3.5889,-3.5889,-3.5889,-3.5889,-3.5897,-3.5891,-3.5852,-3.5807,-3.5788,-3.5742,-3.5732,-3.5742,-3.5742,-3.5742,-3.5727,-3.5711,-3.5715,-3.5704,-3.5704,-3.5704,-3.5704,-3.5704,-3.5704,-3.5704,-3.5704,-3.5713,-3.5718,-3.5669,-3.5626,-3.5678,-3.5683,-3.5551,-3.5377,-3.518,-3.5135,-3.5178,-3.519,-3.5163,-3.5163,-3.5182,-3.5182,-4.6056,-4.6027,-4.6061,-4.6047,-4.6002,-4.6037,-4.6022,-4.6047,-4.6066,-4.6047,-4.6071,-4.6119,-4.6128,-4.6133,-4.6131,-4.6151,-4.6198,-4.6199,-4.6209,-4.6203,-4.6203,-4.6199,-4.5903,-4.5397,-4.4793,-4.4267,-4.3195,-4.2257,-4.1828,-4.1344,-4.1169,-4.1107,-4.1107,-4.1107,-4.1107,-4.1107,-4.1107,-4.1107,-4.1107,-4.1107,-4.1107,-4.1107,-4.1107,-4.1107,-4.1107,-4.0896,-4.0097,-3.924,-3.8324,-3.7487,-3.6688,-3.6006,-3.5889,-3.5889,-3.5889,-3.5889,-3.5889,-3.5889,-3.5889,-3.5889,-3.5889,-3.5889,-3.5889,-3.5889,-3.5889,-3.5889,-3.5889,-3.5889,-3.5889,-3.5889,-3.5889,-3.5889,-3.5889,-3.5889,-3.5889,-3.5889,-3.5889,-3.5889,-3.5888,-3.5892,-3.585,-3.5806,-3.5761,-3.5723,-3.5732,-3.5718,-3.5727,-3.5716,-3.5706,-3.5715,-3.5709,-3.5704,-3.5704,-3.5704,-3.5704,-3.5704,-3.5704,-3.5704,-3.5684,-3.5651,-3.5634,-3.5577,-3.5552,-3.5595,-3.5574,-3.5482,-3.5361,-3.5212,-3.5184,-3.5215,-3.5209,-3.5182,-3.5182,-3.5182,-3.5182,-4.617,-4.6102,-4.6177,-4.6106,-4.6022,-4.6075,-4.6093,-4.6117,-4.615,-4.6189,-4.6176,-4.6173,-4.6189,-4.6179,-4.6191,-4.6199,-4.6191,-4.6212,-4.6206,-4.6203,-4.6199,-4.6199,-4.5771,-4.5163,-4.4247,-4.3543,-4.2607,-4.175,-4.1247,-4.1169,-4.1107,-4.1107,-4.1107,-4.1107,-4.1107,-4.1107,-4.1107,-4.1107,-4.1107,-4.1107,-4.1107,-4.1107,-4.1107,-4.1107,-4.1107,-4.0955,-4.0584,-3.926,-3.8441,-3.8071,-3.6668,-3.5986,-3.5889,-3.5889,-3.5889,-3.5889,-3.5889,-3.5889,-3.5889,-3.5889,-3.5889,-3.5889,-3.5889,-3.5889,-3.5889,-3.5889,-3.5889,-3.5889,-3.5889,-3.5889,-3.5889,-3.5889,-3.5889,-3.5889,-3.5889,-3.5889,-3.5889,-3.5897,-3.5898,-3.5868,-3.5834,-3.5797,-3.5747,-3.5707,-3.5701,-3.5715,-3.5709,-3.5704,-3.5704,-3.5704,-3.5704,-3.5704,-3.5704,-3.5704,-3.5704,-3.5704,-3.5704,-3.5704,-3.5668,-3.5593,-3.5525,-3.5463,-3.545,-3.5506,-3.5438,-3.5369,-3.5326,-3.5277,-3.5246,-3.5209,-3.519,-3.5182,-3.5182,-3.5182,-3.5182,-4.6173,-4.6162,-4.6192,-4.6162,-4.6142,-4.615,-4.6158,-4.6181,-4.6196,-4.6177,-4.615,-4.6175,-4.6204,-4.621,-4.6198,-4.6208,-4.6209,-4.6196,-4.6199,-4.6199,-4.616,-4.5771,-4.5283,-4.4481,-4.362,-4.2744,-4.1945,-4.1497,-4.1149,-4.1107,-4.1107,-4.1107,-4.1107,-4.1107,-4.1107,-4.1107,-4.1107,-4.1107,-4.1107,-4.1107,-4.1107,-4.1107,-4.1107,-4.1107,-4.1107,-4.1107,-4.101,-3.9435,-3.8675,-3.8344,-3.6863,-3.6045,-3.5908,-3.5889,-3.5889,-3.5889,-3.5889,-3.5889,-3.5889,-3.5889,-3.5889,-3.5889,-3.5889,-3.5889,-3.5889,-3.5889,-3.5889,-3.5889,-3.5889,-3.5889,-3.5889,-3.5889,-3.5889,-3.5889,-3.5889,-3.5889,-3.5886,-3.5885,-3.5882,-3.5819,-3.5778,-3.5757,-3.5707,-3.5716,-3.5715,-3.5704,-3.5704,-3.5704,-3.5704,-3.5704,-3.5704,-3.5704,-3.5704,-3.5704,-3.5704,-3.5668,-3.562,-3.5602,-3.5547,-3.549,-3.5418,-3.5345,-3.5336,-3.5355,-3.53,-3.5261,-3.5239,-3.5227,-3.5215,-3.5182,-3.5182,-3.5182,-3.5182,-3.5182,-3.5182,-4.6206,-4.62,-4.6226,-4.6231,-4.6201,-4.6206,-4.6209,-4.6231,-4.6236,-4.6197,-4.614,-4.6187,-4.621,-4.6213,-4.6212,-4.6206,-4.6203,-4.6199,-4.6199,-4.616,-4.5829,-4.5439,-4.4734,-4.3741,-4.2978,-4.2159,-4.1575,-4.1107,-4.1107,-4.1107,-4.1107,-4.1107,-4.1107,-4.1107,-4.1107,-4.1107,-4.1107,-4.1107,-4.1107,-4.1107,-4.1107,-4.1107,-4.1107,-4.1107,-4.1107,-4.1107,-4.0718,-3.9902,-3.8792,-3.8188,-3.7292,-3.622,-3.6025,-3.5889,-3.5889,-3.5889,-3.5889,-3.5889,-3.5889,-3.5889,-3.5889,-3.5889,-3.5889,-3.5889,-3.5889,-3.5889,-3.5889,-3.5889,-3.5889,-3.5889,-3.5889,-3.5889,-3.5889,-3.5889,-3.5886,-3.5886,-3.5891,-3.5889,-3.5838,-3.5791,-3.5751,-3.5723,-3.5701,-3.5715,-3.5709,-3.5704,-3.5704,-3.5704,-3.5704,-3.5704,-3.5698,-3.5668,-3.5668,-3.5662,-3.5626,-3.5602,-3.5553,-3.5496,-3.5443,-3.5369,-3.5296,-3.5216,-3.5207,-3.5204,-3.5187,-3.5187,-3.5201,-3.5182,-3.5182,-3.5182,-3.5182,-3.5182,-3.5182,-3.5182,-3.5182,-4.6249,-4.6201,-4.6259,-4.6263,-4.6213,-4.6212,-4.6227,-4.6287,-4.6287,-4.6269,-4.6204,-4.6205,-4.6213,-4.621,-4.6204,-4.6201,-4.6109,-4.6121,-4.6024,-4.5771,-4.5205,-4.4855,-4.413,-4.3137,-4.2452,-4.2003,-4.1555,-4.1107,-4.1107,-4.1107,-4.1107,-4.1107,-4.1107,-4.1107,-4.1107,-4.1107,-4.1107,-4.1107,-4.1107,-4.1107,-4.1107,-4.1107,-4.1107,-4.1107,-4.1107,-4.1107,-4.0776,-4.0136,-3.9279,-3.85,-3.7623,-3.6766,-3.622,-3.5908,-3.5889,-3.5889,-3.5889,-3.5889,-3.5889,-3.5889,-3.5889,-3.5889,-3.5889,-3.5889,-3.5889,-3.5889,-3.5889,-3.5889,-3.5889,-3.5889,-3.5889,-3.5889,-3.5889,-3.5886,-3.5883,-3.5891,-3.5892,-3.5861,-3.5807,-3.575,-3.5732,-3.5713,-3.5701,-3.5704,-3.5704,-3.5704,-3.5704,-3.5704,-3.5704,-3.5704,-3.5687,-3.5608,-3.5608,-3.5608,-3.5565,-3.5515,-3.5437,-3.5362,-3.5311,-3.5251,-3.5163,-3.5088,-3.5089,-3.5091,-3.5101,-3.5127,-3.5176,-3.5182,-3.5182,-3.5182,-3.5182,-3.5182,-3.5182,-3.5182,-3.5182,-4.6296,-4.6277,-4.6301,-4.6306,-4.6266,-4.621,-4.6211,-4.6209,-4.6228,-4.6221,-4.62,-4.62,-4.6204,-4.6203,-4.62,-4.617,-4.5949,-4.5634,-4.5342,-4.4933,-4.4384,-4.3682,-4.3078,-4.251,-4.1965,-4.1575,-4.1244,-4.1107,-4.1107,-4.1107,-4.1107,-4.1107,-4.1107,-4.1107,-4.1107,-4.1107,-4.1107,-4.1107,-4.1107,-4.1107,-4.1107,-4.1107,-4.1107,-4.1107,-4.1107,-4.1107,-4.0896,-4.0328,-3.9493,-3.8597,-3.7701,-3.6824,-3.6006,-3.5889,-3.5889,-3.5889,-3.5889,-3.5889,-3.5889,-3.5889,-3.5889,-3.5889,-3.5889,-3.5889,-3.5889,-3.5889,-3.5889,-3.5889,-3.5889,-3.5889,-3.5889,-3.5889,-3.5886,-3.588,-3.5891,-3.5872,-3.5864,-3.5807,-3.575,-3.5737,-3.5703,-3.5702,-3.5709,-3.5704,-3.5704,-3.5704,-3.5704,-3.5704,-3.5698,-3.5693,-3.5656,-3.5596,-3.5553,-3.5553,-3.5483,-3.5443,-3.5319,-3.5227,-3.5179,-3.513,-3.5035,-3.5001,-3.4982,-3.502,-3.5075,-3.5117,-3.5174,-3.5182,-3.5182,-3.5182,-3.5182,-3.5182,-3.5182,-3.5182,-3.5182,-4.6302,-4.6305,-4.6287,-4.6248,-4.6257,-4.6204,-4.6197,-4.6199,-4.6209,-4.6199,-4.6206,-4.6203,-4.6209,-4.6105,-4.5832,-4.5615,-4.5537,-4.4773,-4.4384,-4.4169,-4.3504,-4.2958,-4.2393,-4.1965,-4.1555,-4.1205,-4.1107,-4.1107,-4.1107,-4.1107,-4.1107,-4.1107,-4.1107,-4.1107,-4.1107,-4.1107,-4.1107,-4.1107,-4.1107,-4.1107,-4.1107,-4.1107,-4.1107,-4.1107,-4.1107,-4.1107,-4.1068,-4.0445,-3.9883,-3.9045,-3.8188,-3.7331,-3.6493,-3.6162,-3.5908,-3.5889,-3.5889,-3.5889,-3.5889,-3.5889,-3.5889,-3.5889,-3.5889,-3.5889,-3.5889,-3.5889,-3.5889,-3.5889,-3.5889,-3.5889,-3.5889,-3.5889,-3.59,-3.5891,-3.5872,-3.5868,-3.5811,-3.576,-3.5728,-3.5718,-3.5716,-3.5695,-3.5704,-3.5704,-3.5704,-3.5704,-3.5704,-3.5704,-3.5662,-3.5614,-3.5602,-3.5553,-3.5534,-3.5496,-3.5443,-3.5381,-3.5281,-3.5179,-3.506,-3.5009,-3.4927,-3.4917,-3.4945,-3.5011,-3.5084,-3.5145,-3.5176,-3.5182,-3.5182,-3.5182,-3.5182,-3.5182,-3.5182,-3.5182,-3.5182,-4.6302,-4.6285,-4.623,-4.6202,-4.6206,-4.6206,-4.6206,-4.6203,-4.6209,-4.6203,-4.6206,-4.6199,-4.6125,-4.5829,-4.5381,-4.4949,-4.4598,-4.3913,-4.3484,-4.3445,-4.2627,-4.2101,-4.1887,-4.1516,-4.1283,-4.1146,-4.1107,-4.1107,-4.1107,-4.1107,-4.1107,-4.1107,-4.1107,-4.1107,-4.1107,-4.1107,-4.1107,-4.1107,-4.1107,-4.1107,-4.1107,-4.1107,-4.1107,-4.1107,-4.1107,-4.1107,-4.1107,-4.0932,-4.0701,-3.9825,-3.8928,-3.8013,-3.696,-3.6317,-3.5986,-3.5889,-3.5889,-3.5889,-3.5889,-3.5889,-3.5889,-3.5889,-3.5889,-3.5889,-3.5889,-3.5889,-3.5889,-3.5889,-3.5889,-3.5889,-3.5889,-3.5889,-3.588,-3.5879,-3.5872,-3.5819,-3.575,-3.5728,-3.5718,-3.5711,-3.5701,-3.5704,-3.5704,-3.5704,-3.5704,-3.5704,-3.5704,-3.5704,-3.5651,-3.559,-3.5553,-3.5534,-3.5502,-3.5477,-3.5409,-3.5326,-3.5258,-3.5155,-3.5008,-3.4954,-3.4917,-3.4917,-3.4908,-3.5001,-3.5075,-3.5119,-3.5162,-3.5176,-3.5182,-3.5182,-3.5182,-3.5182,-3.5182,-3.5182,-3.5182,-4.6302,-4.6287,-4.623,-4.6199,-4.6203,-4.6199,-4.6199,-4.6199,-4.6209,-4.6213,-4.6199,-4.6137,-4.5806,-4.5264,-4.4894,-4.4442,-4.3776,-4.3056,-4.2685,-4.2413,-4.1809,-4.1594,-4.1438,-4.1263,-4.1107,-4.1107,-4.1107,-4.1107,-4.1107,-4.1107,-4.1107,-4.1107,-4.1107,-4.1107,-4.1107,-4.1107,-4.1107,-4.1107,-4.1107,-4.1107,-4.1107,-4.1107,-4.1107,-4.1107,-4.1107,-4.1107,-4.1107,-4.1068,-4.0565,-3.9825,-3.8967,-3.774,-3.6298,-3.6025,-3.5908,-3.5889,-3.5889,-3.5889,-3.5889,-3.5889,-3.5889,-3.5889,-3.5889,-3.5889,-3.5889,-3.5889,-3.5889,-3.5889,-3.5889,-3.5889,-3.5886,-3.5883,-3.5875,-3.5862,-3.585,-3.5782,-3.5708,-3.5698,-3.5706,-3.5715,-3.5709,-3.5704,-3.5704,-3.5704,-3.5704,-3.5704,-3.5704,-3.5693,-3.5628,-3.5566,-3.5572,-3.5534,-3.5515,-3.5457,-3.5381,-3.5274,-3.5195,-3.5105,-3.4963,-3.4917,-3.4908,-3.4917,-3.4927,-3.4992,-3.5057,-3.5092,-3.5136,-3.5176,-3.5193,-3.5193,-3.5182,-3.5182,-3.5182,-3.5182,-3.5182,-4.6302,-4.6288,-4.623,-4.6206,-4.6195,-4.6209,-4.6199,-4.6199,-4.6199,-4.6199,-4.6121,-4.5809,-4.5342,-4.4637,-4.415,-4.3643,-4.2919,-4.214,-4.1867,-4.1578,-4.1442,-4.1244,-4.1107,-4.1107,-4.1107,-4.1107,-4.1107,-4.1107,-4.1107,-4.1107,-4.1107,-4.1107,-4.1107,-4.1107,-4.1107,-4.1107,-4.1107,-4.1107,-4.1107,-4.1107,-4.1107,-4.1107,-4.1107,-4.1107,-4.1107,-4.1107,-4.1107,-4.1107,-4.0838,-4.0097,-3.9221,-3.7662,-3.6434,-3.5928,-3.5889,-3.5889,-3.5889,-3.5889,-3.5889,-3.5889,-3.5889,-3.5889,-3.5889,-3.5889,-3.5889,-3.5889,-3.5889,-3.5889,-3.5889,-3.5889,-3.5891,-3.5882,-3.5845,-3.5807,-3.5782,-3.5722,-3.5703,-3.5711,-3.5715,-3.5709,-3.5704,-3.5704,-3.5704,-3.5704,-3.5704,-3.5704,-3.5704,-3.5704,-3.5633,-3.5528,-3.5522,-3.5496,-3.543,-3.5402,-3.5326,-3.5227,-3.5122,-3.5018,-3.4917,-3.4917,-3.4908,-3.4908,-3.4927,-3.4974,-3.5011,-3.5038,-3.5082,-3.5143,-3.5187,-3.5187,-3.5185,-3.5182,-3.5182,-3.5182,-3.5182,-4.6305,-4.6257,-4.623,-4.621,-4.6199,-4.62,-4.6199,-4.6199,-4.6199,-4.6199,-4.6024,-4.5144,-4.4793,-4.415,-4.3133,-4.2529,-4.2003,-4.1575,-4.1266,-4.1208,-4.1166,-4.1107,-4.1107,-4.1107,-4.1107,-4.1107,-4.1107,-4.1107,-4.1107,-4.1107,-4.1107,-4.1107,-4.1107,-4.1107,-4.1107,-4.1107,-4.1107,-4.1107,-4.1107,-4.1107,-4.1107,-4.1107,-4.1107,-4.1107,-4.1107,-4.1107,-4.1107,-4.1107,-4.1088,-4.0409,-3.9376,-3.7701,-3.6512,-3.5889,-3.5889,-3.5889,-3.5889,-3.5889,-3.5889,-3.5889,-3.5889,-3.5889,-3.5889,-3.5889,-3.5889,-3.5889,-3.5889,-3.5889,-3.5889,-3.5897,-3.5898,-3.5914,-3.585,-3.6047,-3.5999,-3.5936,-3.5929,-3.5864,-3.5825,-3.58,-3.5704,-3.5704,-3.5704,-3.5704,-3.5704,-3.5704,-3.5704,-3.5704,-3.5656,-3.5528,-3.5449,-3.536,-3.5251,-3.5216,-3.5243,-3.5187,-3.5079,-3.5019,-3.4936,-3.4917,-3.4908,-3.4908,-3.4908,-3.4917,-3.4945,-3.5011,-3.5066,-3.5138,-3.5155,-3.5181,-3.5196,-3.5182,-3.5182,-3.5182,-3.5182,-4.6262,-4.6209,-4.6205,-4.6202,-4.6203,-4.6203,-4.6199,-4.6199,-4.6199,-4.6199,-4.5806,-4.4598,-4.3835,-4.3815,-4.2822,-4.2081,-4.1497,-4.1149,-4.1146,-4.1127,-4.1107,-4.1107,-4.1107,-4.1107,-4.1107,-4.1107,-4.1107,-4.1107,-4.1107,-4.1107,-4.1107,-4.1107,-4.1107,-4.1107,-4.1107,-4.1107,-4.1107,-4.1107,-4.1107,-4.1107,-4.1107,-4.1107,-4.1107,-4.1107,-4.1107,-4.1107,-4.1107,-4.1107,-4.1107,-4.0584,-3.9474,-3.7759,-3.6649,-3.5967,-3.5889,-3.5889,-3.5889,-3.5889,-3.5889,-3.5889,-3.5889,-3.5889,-3.5889,-3.5889,-3.5889,-3.5889,-3.5889,-3.5883,-3.59,-3.5888,-3.5908,-3.6008,-3.6048,-3.6712,-3.6971,-3.6801,-3.6696,-3.6439,-3.6245,-3.5974,-3.5704,-3.5704,-3.5704,-3.5704,-3.5704,-3.5704,-3.5704,-3.5704,-3.5651,-3.5502,-3.536,-3.5227,-3.5094,-3.5077,-3.5113,-3.5111,-3.5044,-3.4973,-3.4936,-3.4917,-3.4908,-3.4908,-3.4908,-3.4917,-3.4936,-3.4973,-3.5057,-3.5075,-3.5138,-3.5164,-3.5176,-3.5182,-3.5182,-3.5182,-3.5193]},{"header":{"parameterUnit":"m.s-1","parameterCategory":1,"la1":31.0,"la2":29.5877,"lo1":-88.7671,"lo2":-86.6584,"dy":0.0162,"dx":0.0185,"nx":115,"ny":88,"refTime":"2024-05-19T06:00:00:Z","depth":0,"parameterNumber":3,"parameterNumberName":"V-component_of_WINDS"},"data":[0.0,0.0,0.0,0.0,0.0,0.0,0.0,0.0,0.0,0.0,0.0,0.0,0.0,0.0,0.0,0.0,0.0,0.0,0.0,0.0,0.0,0.0,0.0,0.0,0.0,0.0,0.0,0.0,0.0,0.0,0.0,0.0,0.0,0.0,0.0,0.0,0.0,0.0,0.0,0.0,0.0,0.0,0.0,0.0,0.0,0.0,0.0,0.0,0.0,0.0,0.0,0.0,0.0,0.0,0.0,0.0,0.0,0.0,0.0,0.0,0.0,0.0,0.0,0.0,0.0,0.0,0.0,0.0,0.0,0.0,0.0,0.0,0.0,0.0,0.0,0.0,0.0,0.0,0.0,0.0,0.0,0.0,0.0,0.0,0.0,0.0,0.0,0.0,0.0,0.0,0.0,0.0,0.0,0.0,0.0,0.0,0.0,0.0,0.0,0.0,0.0,0.0,0.0,0.0,0.0,0.0,0.0,0.0,0.0,0.0,0.0,0.0,0.0,0.0,0.0,0.0,0.0,0.0,0.0,0.0,0.0,0.0,0.0,0.0,0.0,0.0,0.0,0.0,0.0,0.0,0.0,0.0,0.0,0.0,0.0,0.0,0.0,0.0,0.0,0.0,0.0,0.0,0.0,0.0,0.0,0.0,0.0,0.0,0.0,0.0,0.0,0.0,0.0,0.0,0.0,0.0,0.0,0.0,0.0,0.0,0.0,0.0,0.0,0.0,0.0,0.0,0.0,0.0,0.0,0.0,0.0,0.0,0.0,0.0,0.0,0.0,0.0,0.0,0.0,0.0,0.0,0.0,0.0,0.0,0.0,0.0,0.0,0.0,0.0,0.0,0.0,0.0,0.0,0.0,0.0,0.0,0.0,0.0,0.0,0.0,0.0,0.0,0.0,0.0,0.0,0.0,0.0,0.0,0.0,0.0,0.0,0.0,0.0,0.0,0.0,0.0,0.0,0.0,0.0,0.0,0.0,0.0,0.0,0.0,0.0,0.0,0.0,0.0,0.0,0.0,0.0,0.0,0.0,0.0,0.0,0.0,0.0,0.0,0.0,0.0,0.0,0.0,0.0,0.0,0.0,0.0,0.0,0.0,0.0,0.0,0.0,0.0,0.0,0.0,0.0,0.0,0.0,0.0,0.0,0.0,0.0,0.0,0.0,0.0,0.0,0.0,0.0,0.0,0.0,0.0,0.0,0.0,0.0,0.0,0.0,0.0,0.0,0.0,0.0,0.0,0.0,0.0,0.0,0.0,0.0,0.0,0.0,0.0,0.0,0.0,0.0,0.0,0.0,0.0,0.0,0.0,0.0,0.0,0.0,0.0,0.0,0.0,0.0,0.0,0.0,0.0,0.0,0.0,0.0,0.0,0.0,0.0,0.0,0.0,0.0,0.0,0.0,0.0,0.0,0.0,0.0,0.0,0.0,0.0,0.0,0.0,0.0,0.0,0.0,0.0,0.0,0.0,0.0,0.0,0.0,0.0,0.0,0.0,0.0,0.0,0.0,0.0,0.0,0.0,0.0,0.0,0.0,0.0,0.0,0.0,0.0,0.0,0.0,0.0,0.0,0.0,0.0,0.0,0.0,0.0,0.0,0.0,0.0,0.0,0.0,0.0,0.0,0.0,0.0,0.0,0.0,0.0,0.0,0.0,0.0,0.0,0.0,0.0,0.0,0.0,0.0,0.0,0.0,0.0,0.0,0.0,0.0,0.0,0.0,0.0,0.0,0.0,0.0,0.0,0.0,0.0,0.0,0.0,0.0,0.0,0.0,0.0,0.0,0.0,0.0,0.0,0.0,0.0,0.0,0.0,0.0,0.0,0.0,0.0,0.0,0.0,0.0,0.0,0.0,0.0,0.0,0.0,0.0,0.0,0.0,0.0,0.0,0.0,0.0,0.0,0.0,0.0,0.0,0.0,0.0,0.0,0.0,0.0,0.0,0.0,0.0,0.0,0.0,0.0,0.0,0.0,0.0,0.0,0.0,0.0,0.0,0.0,0.0,0.0,0.0,0.0,0.0,0.0,0.0,0.0,0.0,0.0,0.0,0.0,0.0,0.0,0.0,0.0,0.0,0.0,0.0,0.0,0.0,0.0,0.0,0.0,0.0,0.0,0.0,0.0,0.0,0.0,0.0,0.0,0.0,0.0,0.0,0.0,0.0,0.0,0.0,0.0,0.0,0.0,0.0,0.0,0.0,0.0,0.0,0.0,0.0,0.0,0.0,0.0,0.0,0.0,0.0,0.0,0.0,0.0,0.0,0.0,0.0,0.0,0.0,0.0,0.0,0.0,0.0,0.0,0.0,0.0,0.0,0.0,0.0,0.0,0.0,0.0,0.0,0.0,0.0,0.0,0.0,0.0,0.0,0.0,0.0,0.0,0.0,0.0,0.0,0.0,0.0,0.0,0.0,0.0,0.0,0.0,0.0,0.0,0.0,0.0,0.0,0.0,0.0,0.0,0.0,0.0,0.0,0.0,0.0,0.0,0.0,0.0,0.0,0.0,0.0,0.0,0.0,0.0,0.0,0.0,0.0,0.0,0.0,0.0,0.0,0.0,0.0,0.0,0.0,0.0,0.0,0.0,0.0,0.0,0.0,0.0,0.0,0.0,0.0,0.0,0.0,0.0,0.0,0.0,0.0,0.0,0.0,0.0,0.0,0.0,0.0,0.0,0.0,0.0,0.0,0.0,0.0,0.0,0.0,0.0,0.0,0.0,0.0,0.0,0.0,0.0,0.0,0.0,0.0,0.0,0.0,0.0,0.0,0.0,0.0,0.0,0.0,0.0,0.0,0.0,0.0,0.0,0.0,0.0,0.0,0.0,0.0,0.0,0.0,0.0,0.0,0.0,0.0,0.0,0.0,0.0,0.0,0.0,0.0,0.0,0.0,0.0,0.0,0.0,0.0,0.0,0.0,0.0,0.0,0.0,0.0,0.0,0.0,0.0,0.0,0.0,0.0,0.0,0.0,0.0,0.0,0.0,0.0,0.0,0.0,0.0,0.0,0.0,0.0,0.0,0.0,0.0,0.0,0.0,0.0,0.0,0.0,0.0,0.0,0.0,0.0,0.0,0.0,0.0,0.0,0.0,0.0,0.0,0.0,0.0,0.0,0.0,0.0,0.0,0.0,0.0,0.0,0.0,0.0,0.0,0.0,0.0,0.0,0.0,0.0,0.0,0.0,0.0,0.0,0.0,0.0,0.0,0.0,0.0,0.0,0.0,0.0,0.0,0.0,0.0,0.0,0.0,0.0,0.0,0.0,0.0,0.0,0.0,0.0,0.0,0.0,0.0,0.0,0.0,0.0,0.0,0.0,0.0,0.0,0.0,0.0,0.0,0.0,0.0,0.0,0.0,0.0,0.0,0.0,0.0,0.0,0.0,0.0,0.0,0.0,0.0,0.0,0.0,0.0,0.0,0.0,0.0,0.0,0.0,0.0,0.0,0.0,0.0,0.0,0.0,0.0,0.0,0.0,0.0,0.0,0.0,0.0,0.0,0.0,0.0,0.0,0.0,0.0,0.0,0.0,0.0,0.0,0.0,0.0,0.0,0.0,0.0,0.0,0.0,0.0,0.0,0.0,0.0,0.0,0.0,0.0,0.0,0.0,0.0,0.0,0.0,0.0,0.0,0.0,0.0,0.0,0.0,0.0,0.0,0.0,0.0,0.0,0.0,0.0,0.0,0.0,0.0,0.0,0.0,0.0,0.0,0.0,0.0,0.0,0.0,0.0,0.0,0.0,0.0,0.0,0.0,0.0,0.0,0.0,0.0,0.0,0.0,0.0,0.0,0.0,0.0,0.0,0.0,0.0,0.0,0.0,0.0,0.0,0.0,0.0,0.0,0.0,0.0,0.0,0.0,0.0,0.0,0.0,0.0,0.0,0.0,0.0,0.0,0.0,0.0,0.0,0.0,0.0,0.0,0.0,0.0,0.0,0.0,0.0,0.0,0.0,0.0,0.0,0.0,0.0,0.0,0.0,0.0,0.0,0.0,0.0,0.0,0.0,0.0,0.0,0.0,0.0,0.0,0.0,0.0,0.0,0.0,0.0,0.0,0.0,0.0,0.0,0.0,0.0,0.0,0.0,0.0,0.0,0.0,0.0,0.0,0.0,0.0,0.0,0.0,0.0,0.0,0.0,0.0,0.0,0.0,0.0,0.0,0.0,0.0,0.0,0.0,0.0,0.0,0.0,0.0,0.0,0.0,0.0,0.0,0.0,0.0,0.0,0.0,0.0,0.0,0.0,0.0,0.0,0.0,0.0,0.0,0.0,0.0,0.045,0.0,0.0,0.0,0.0,0.0,0.0,0.0,0.0,0.0,0.0,0.0,0.0,0.0,0.0,0.0,0.0,0.0,0.0,0.0,0.0,0.0,0.0,0.0,0.0,0.0,0.0,0.0,0.0,0.0,0.0,0.0,0.0,0.0,0.0,0.0,0.0,0.0,0.0,0.0,0.0,0.0,0.0,0.0,0.0,0.0,0.0,0.0,0.0,0.0,0.0,0.0,0.0,0.0,0.0,0.0,0.0,0.0,0.0,0.0,0.0,0.0,0.0,0.0,0.0,0.0,0.0,0.0,0.0,0.0,0.0,0.0,0.0,0.0,0.0,0.0,0.0,0.0,0.0,0.0,0.0,0.0,0.0,0.0,0.0,0.0,0.0,0.0,0.0,0.0,0.0,0.0,0.0,0.0,0.0,0.0,0.0,0.0,0.0,0.0,0.0,0.0,0.0,0.0,0.0,0.0,0.0,0.0,0.0,0.0,0.0,0.0337,0.0405,0.0405,0.0405,0.0405,0.0,0.0,0.0,0.0,0.0,0.0,0.0,0.0,0.0,0.0,0.0,0.0,0.0,0.0,0.0,0.0,0.0,0.0,0.0,0.0,0.0,0.0,0.0,0.0,0.0,0.0,0.0,0.0,0.0,0.0,0.0,0.0,0.0,0.0,0.0,0.0,0.0,0.0,0.0,0.0,0.0,0.0,0.0,0.0,0.0,0.0,0.0,0.0,0.0,0.0,0.0,0.0,0.0,0.0,0.0,0.0,0.0,0.0,0.0,0.0,0.0,0.0,0.0,0.0,0.0,0.0,0.0,0.0,0.0,0.0,0.0,0.0,0.0,0.0,0.0,0.0,0.0,0.0,0.0,0.0,0.0,0.0,0.0,0.0,0.0,0.0,0.0,0.0,0.0,0.0,0.0,0.0,0.0,0.0,0.0,0.0,0.0,0.0,0.0,0.0,0.0,0.0,0.0,0.0,0.0,0.0,0.0,0.0,0.0,0.0,0.0,0.0,0.0321,0.0296,0.0296,0.0,0.0,0.0,0.0,0.0,0.0,0.0,0.0,0.0,0.0,0.0,0.0,0.0,0.0,0.0,0.0,0.0,0.0,0.0,0.0,0.0,0.0,0.0,0.0,0.0,0.0,0.0,0.0,0.0,0.0,0.0,0.0,0.0,0.0,0.0,0.0,0.0,0.0,0.0,0.0,0.0,0.0,0.0,0.0,0.0,0.0,0.0,0.0,0.0,0.0,0.0,0.0,0.0,0.0,0.0,0.0,0.0,0.0,0.0,0.0,0.0,0.0,0.0,0.0,0.0,0.0,0.0,0.0,0.0,0.0,0.0,0.0,0.0,0.0,0.0,0.0,0.0,0.0,0.0,0.0,0.0,0.0,0.0,0.0,0.0,0.0,0.0,0.0,0.0,0.0,0.0,0.0,0.0,0.0,0.0,0.0,0.0,0.0,0.0,0.0,0.0,0.0,0.0,0.0,0.0,0.0,0.0,0.0,0.0,0.0,0.0023,0.005,0.0,0.0,0.0048,0.0,0.0,0.0,0.0,0.0,0.0,0.0,0.0,0.0,0.0,0.0,0.0,0.0,0.0,0.0,0.0,0.0,0.0,0.0,0.0,0.0,0.0,0.0,0.0,0.0,0.0,0.0,0.0,0.0,0.0,0.0,0.0,0.0,0.0,0.0,0.0,0.0,0.0,0.0,0.0,0.0,0.0,0.0,0.0,0.0,0.0,0.0,0.0,0.0,0.0,0.0,0.0,0.0,0.0,0.0,0.0,0.0,0.0,0.0,0.0,0.0,0.0,0.0,0.0,0.0,0.0,0.0,0.0,0.0,0.0,0.0,0.0,0.0,0.0,0.0,0.0,0.0,0.0,0.0,0.0,0.0,0.0,0.0,0.0,0.0,0.0,0.0,0.0,0.0,0.0,0.0,0.0,0.0,0.0,0.0,0.0,0.0,0.0,0.0,0.0,0.0,0.0,0.0,0.0,0.0,0.0,0.0,0.0,0.0,0.0,0.0,0.0,0.0,0.0,0.0,0.0,0.0,0.0,0.0,0.0,0.0,0.0,0.0,0.0,0.0,0.0,0.0,0.0,0.0,0.0,0.0,0.0,0.0,0.0,0.0,0.0,0.0,0.0,0.0,0.0,0.0,0.0,0.0,0.0,0.0,0.0,0.0,0.0,0.0,0.0,0.0,0.0,0.0,0.0,0.0,0.0,0.0,0.0,0.0,0.0,0.0,0.0,0.0,0.0,0.0,0.0,0.0,0.0,0.0,0.0,0.0,0.0,0.0,0.0,0.0,0.0,0.0,0.0,0.0,0.0,0.0,0.0,0.0,0.0,0.0,0.0,0.0,0.0,0.0,0.0,0.0,0.0,0.0,0.0,0.0,0.0,0.0,0.0,0.0,0.0,0.0,0.0,0.0,0.0,0.0,0.0,0.0,0.0,0.0,0.0,0.0,0.0,0.0,0.0,0.0,0.0,0.0,0.0,0.0,0.0,0.0,0.0,0.0,0.0,0.0,0.0,0.0,0.0,0.0,0.0,0.0,0.0,0.0,0.0,0.0,0.0,0.0,0.0,0.0,0.0,0.0,0.0,0.0,0.0,0.0,0.0,0.0,0.0,0.0,0.0,0.0,0.0,0.0,0.0,0.0,0.0,0.0,0.0,0.0,0.0,0.0,0.0,0.0,0.0,0.0,0.0,0.0,0.0,0.0,0.0,0.0,0.0,0.0,0.0,0.0,0.0,0.0,0.0,0.0,0.0,0.0,0.0,0.0,0.0,0.0,0.0,0.0,0.0,0.0,0.0,0.0,0.0,0.0,0.0,0.0,0.0,0.0,0.0,0.0,0.0,0.0,0.0,0.0,0.0,0.0,0.0,0.0,0.0,0.0,0.0,0.0,0.0,0.0,0.0,0.0,0.0,0.0,0.0,0.0,0.0,0.0,0.0,0.0,0.0,0.0,0.0,0.0,0.0,0.0,0.0,0.0,0.0,0.0,0.0,0.0,0.0,0.0,0.0,0.0,0.0,0.0,0.0,0.0,0.0,0.0,0.0,0.0,0.0,0.0,0.0,0.0,0.0,0.0,0.0,0.0,0.0,0.0,0.0,0.0,0.0,0.0,0.0,0.0,0.0,0.0,0.0,0.0,0.0,0.0,0.0,0.0,0.0,0.0,0.0,0.0,0.0,0.0,0.0,0.0,0.0,0.0,0.0,0.0,0.0,0.0,0.0,0.0,0.0,0.0,0.0,0.0,0.0,0.0,0.0,0.0,0.0,0.0,0.0,0.0,0.0,0.0,0.0,0.0,0.0,0.0,0.0,0.0,0.0,0.0,0.0,0.0,0.0,0.0,0.0,0.0,0.0,0.0,0.0,0.0,0.0,0.0,0.0,0.0,0.0,0.0,0.0,0.0,0.0,0.0,0.0,0.0,0.0,0.0,0.0,0.0,0.0,0.0,0.0,0.0,0.0,0.0,0.0,0.0,0.0,0.0,0.0,0.0,0.0,0.0,0.0,0.0,0.0,0.0,0.0,0.0,0.0,0.0,0.0,0.0,0.0,0.0,0.0,0.0,0.0,0.0,0.0,0.0,0.0,0.0,0.0,0.0,0.0,0.0,0.0,0.0,0.0,0.0,0.0,0.0,0.0,0.0,0.0,0.0,0.0,0.0,0.0,0.0,0.0,0.0,0.0,0.0,0.0,0.0,0.0,0.0,0.0,0.0,0.0,0.0,0.0,0.0,0.0,0.0,0.0,0.0,0.0,0.0,0.0,0.0,0.0,0.0,0.0,0.0,0.0,0.0,0.0,0.0,0.0,0.0,0.0,0.0,0.0,0.0,0.0,0.0,0.0,0.0,0.0,0.0,0.0,0.0,0.0,0.0,0.0,0.0,0.0,0.0,0.0,0.0,0.0,0.0,0.0,0.0,0.0,0.0,0.0,0.0,0.0,0.0,0.0,0.0,0.0,0.0,0.0,0.0,0.0,0.0,0.0,0.0,0.0,0.0,0.0,0.0,0.0,0.0,0.0,0.0,0.0,0.0,0.0,0.0,0.0,-0.0052,-0.005,0.0,0.0,0.0,0.0,0.0,0.0,0.0,0.0,0.0,0.0,0.0,0.0,0.0,0.0,0.0,0.0,0.0,0.0,0.0,0.0,0.0,0.0,0.0,0.0,0.0,0.0,0.0,0.0,0.0,0.0,0.0,0.0,0.0,0.0,0.0,0.0,0.0,0.0,0.0,0.0,0.0,0.0,0.0,0.0,0.0,0.0,0.0,0.0,0.0,0.0,0.0,0.0,0.0,0.0,0.0,0.0,0.0,0.0,0.0,0.0,0.0,0.0,0.0,0.0,0.0,0.0,0.0,0.0,0.0,0.0,0.0,0.0,0.0,0.0,0.0,0.0,0.0,0.0,0.0,0.0,0.0,0.0,0.0,0.0,0.0,0.0,0.0,0.0,0.0,0.0,0.0,0.0,0.0,0.0,0.0,0.0,0.0,0.0,0.0,0.0,0.0,0.0,0.0,0.0,0.0,0.0,0.0,0.0,-0.0146,0.0,0.0,0.0,0.0,-0.0131,-0.0146,0.0,0.0,0.0,0.0,0.0,0.0,0.0,0.0,0.0,0.0,0.0,0.0,0.0,0.0,0.0,0.0,0.0,0.0,0.0,0.0,0.0,0.0,0.0,0.0,0.0,0.0,0.0,0.0,0.0,0.0,0.0,0.0,0.0,0.0,0.0,0.0,0.0,0.0,0.0,0.0,0.0,0.0,0.0,0.0,0.0,0.0,0.0,0.0,0.0,0.0,0.0,0.0,0.0,0.0,0.0,0.0,0.0,0.0,0.0,0.0,0.0,0.0,0.0,0.0,0.0,0.0,0.0,0.0,0.0,0.0,0.0,0.0,0.0,0.0,0.0,0.0,0.0,0.0,0.0,0.0,0.0,0.0,0.0,0.0,0.0,0.0,0.0,0.0,0.0,0.0,0.0,0.0,0.0,0.0,0.0,0.0,0.0,0.0,0.0,0.0,0.0,0.0,0.0,0.0,0.0,0.0,0.0,0.0,0.0,-0.0157,-0.0027,0.0,0.0,-0.0052,-0.0099,0.0,0.0,0.0,0.0,0.0,0.0,0.0,0.0,0.0,0.0,0.0,0.0,0.0,0.0,0.0,0.0,0.0,0.0,0.0,0.0,0.0,0.0,0.0,0.0,0.0,0.0,0.0,0.0,0.0,0.0,0.0,0.0,0.0,0.0,0.0,0.0,0.0,0.0,0.0,0.0,0.0,0.0,0.0,0.0,0.0,0.0,0.0,0.0,0.0,0.0,0.0,0.0,0.0,0.0,0.0,0.0,0.0,0.0,0.0,0.0,0.0,0.0,0.0,0.0,0.0,0.0,0.0,0.0,0.0,0.0,0.0,0.0,0.0,0.0,0.0,0.0,0.0,0.0,0.0,0.0,0.0,0.0,0.0,0.0,0.0,0.0,0.0,0.0,0.0,0.0,0.0,0.0,0.0,0.0,0.0,0.0,0.0,0.0,0.0,0.0,0.0,0.0,0.0,0.0,0.0,0.0,0.0,0.0,0.0,-0.0419,-0.0142,-0.0029,-0.0118,-0.0134,-0.0178,-0.0204,0.0,0.0,0.0,0.0,0.0,0.0,0.0,0.0,0.0,0.0,0.0,0.0,0.0,0.0,0.0,0.0,0.0,0.0,0.0,0.0,0.0,0.0,0.0,0.0,0.0,0.0,0.0,0.0,0.0,0.0,0.0,0.0,0.0,0.0,0.0,0.0,0.0,0.0,0.0,0.0,0.0,0.0,0.0,0.0,0.0,0.0,0.0,0.0,0.0,0.0,0.0,0.0,0.0,0.0,0.0,0.0,0.0,0.0,0.0,0.0,0.0,0.0,0.0,0.0,0.0,0.0,0.0,0.0,0.0,0.0,0.0,0.0,0.0,0.0,0.0,0.0,0.0,0.0,0.0,0.0,0.0,0.0,0.0,0.0,0.0,0.0,0.0,0.0,0.0,0.0,0.0,0.0,0.0,0.0,0.0,0.0,0.0,0.0,0.0,0.0,0.0,0.0,0.0,0.0,0.0,0.0,0.0,0.0,-0.0809,-0.0325,-0.0127,-0.0299,-0.0344,-0.035,0.0,0.0,0.0,0.0,0.0,0.0,0.0,0.0,0.0,0.0,0.0,0.0,0.0,0.0,0.0,0.0,0.0,0.0,0.0,0.0,0.0,0.0,0.0,0.0,0.0,0.0,0.0,0.0,0.0,0.0,0.0,0.0,0.0,0.0,0.0,0.0,0.0,0.0,0.0,0.0,0.0,0.0,0.0,0.0,0.0,0.0,0.0,0.0,0.0,0.0,0.0,0.0,0.0,0.0,0.0,0.0,0.0,0.0,0.0,0.0,0.0,0.0,0.0,0.0,0.0,0.0,0.0,0.0,0.0,0.0,0.0,0.0,0.0,0.0,0.0,0.0,0.0,0.0,0.0,0.0,0.0,0.0,0.0,0.0,0.0,0.0,0.0,0.0,0.0,0.0,0.0,0.0,0.0,0.0,0.0,0.0,0.0,0.0,0.0,0.0,0.0,0.0,0.0,0.0,0.0,0.0,0.0,0.0,0.0,-0.0998,-0.0623,-0.0417,-0.0302,-0.0429,-0.0431,0.0,0.0,0.0,0.0,0.0,0.0,0.0,0.0,0.0,0.0,0.0,0.0,0.0,0.0,0.0,0.0,0.0,0.0,0.0,0.0,0.0,0.0,0.0,0.0,0.0,0.0,0.0,0.0,0.0,0.0,0.0,0.0,0.0,0.0,0.0,0.0,0.0,0.0,0.0,0.0,0.0,0.0,0.0,0.0,0.0,0.0,0.0,0.0,0.0,0.0,0.0,0.0,0.0,0.0,0.0,0.0,0.0,0.0,0.0,0.0,0.0,0.0,0.0,0.0,0.0,0.0,0.0,0.0,0.0,0.0,0.0,0.0,0.0,0.0,0.0,0.0,0.0,0.0,0.0,0.0,0.0,0.0,0.0,0.0,0.0,0.0,0.0,0.0,0.0,0.0,0.0,0.0,0.0,0.0,0.0,0.0,0.0,0.0,0.0,0.0,0.0,0.0,0.0,0.0,0.0,0.0,0.0,0.0,-0.0977,-0.1132,-0.0996,-0.0781,-0.0579,-0.0634,-0.0617,0.0,0.0,0.0,0.0,0.0,0.0,0.0,0.0,0.0,0.0,0.0,0.0,0.0,0.0,0.0,0.0,0.0,0.0,0.0,0.0,0.0,0.0,0.0,0.0,0.0,0.0,0.0,0.0,0.0,0.0,0.0,0.0,0.0,0.0,0.0,0.0,0.0,0.0,0.0,0.0,0.0,0.0,0.0,0.0,0.0,0.0,0.0,0.0,0.0,0.0,0.0,0.0,0.0,0.0,0.0,0.0,0.0,0.0,0.0,0.0,0.0,0.0,0.0,0.0,0.0,0.0,0.0,0.0,0.0,0.0,0.0,0.0,0.0,0.0,0.0,0.0,0.0,0.0,0.0,0.0,0.0,0.0,0.0,0.0,0.0,0.0,0.0,0.0,0.0,0.0,0.0,0.0,0.0,0.0,0.0,0.0,0.0,0.0,0.0,0.0,0.0,0.0,0.0,0.0,0.0,0.0,0.0,0.0,-0.1123,-0.1209,-0.1281,-0.1204,-0.0946,-0.0901,-0.0857,0.0,0.0,0.0,0.0,0.0,0.0,0.0,0.0,0.0,0.0,0.0,0.0,0.0,0.0,0.0,0.0,0.0,0.0,0.0,0.0,0.0,0.0,0.0,0.0,0.0,0.0,0.0,0.0,0.0,0.0,0.0,0.0,0.0,0.0,0.0,0.0,0.0,0.0,0.0,0.0,0.0,0.0,0.0,0.0,0.0,0.0,0.0,0.0,0.0,0.0,0.0,0.0,0.0,0.0,0.0,0.0,0.0,0.0,0.0,0.0,0.0,0.0,0.0,0.0,0.0,0.0,0.0,0.0,0.0,0.0,0.0,0.0,0.0,0.0,0.0,0.0,0.0,0.0,0.0,0.0,0.0,0.0,0.0,0.0,0.0,0.0,0.0,0.0,0.0,0.0,0.0,0.0,0.0,0.0,0.0,0.0,0.0,0.0,0.0,0.0,0.0,0.0,0.0,0.0,0.0,0.0,0.0,0.0,-0.1144,-0.1172,-0.1281,-0.1243,-0.1137,-0.1081,-0.0983,0.0,0.0,0.0,0.0,0.0,0.0,0.0,0.0,0.0,0.0,0.0,0.0,0.0,0.0,0.0,0.0,0.0,0.0,0.0,0.0,0.0,0.0,0.0,0.0,0.0,0.0,0.0,0.0,0.0,0.0,0.0,0.0,0.0,0.0,0.0,0.0,0.0,0.0,0.0,0.0,0.0,0.0,0.0,0.0,0.0,0.0,0.0,0.0,0.1243,0.0,0.0,0.0,0.0,0.0,0.0,0.0,0.0,0.0,0.0,0.0,0.0,0.0,0.0,0.0,0.0,0.0,0.0,0.0,0.0,0.0,0.0,0.0,0.0,0.0,0.0,0.0,0.0,0.0,0.0,0.0,0.0,0.0,0.0,0.0,0.0,0.0,0.0,0.0,0.0,0.0,0.0,0.0,0.0,0.0,0.0,0.0,0.0,0.0,0.0,0.0,0.0,0.0,0.0,0.0,0.0,0.0,0.0,0.0,-0.1172,-0.1231,-0.1288,-0.1288,-0.1232,-0.1188,-0.1053,0.0,0.0,0.0,0.0,0.0,0.0,0.0,0.0,0.0,0.0,0.0,0.0,0.0,0.0,0.0,0.0,0.0,0.0,0.0,0.0,0.0,0.0,0.0,0.0,0.0,0.0,0.0,0.0,0.0,0.0,0.0,0.0,0.0,0.0,0.0,0.0,0.0,0.0,0.0,0.0,0.0,0.0,0.0,0.0,0.0,0.0,0.0,0.0,0.0,0.0,0.0,0.0,0.0,0.0,0.0,0.0,0.0,0.0,0.0,0.0,0.0,0.0,0.0,0.0,0.0,0.0,0.0,0.0,0.0,0.0,0.0,0.0,0.0,0.0,0.0,0.0,0.0,0.0,0.0,0.0,0.0,0.0,0.0,0.0,0.0,0.0,0.0,0.0,0.0,0.0,0.0,0.0,0.0,0.0,0.0,0.0,0.0,0.0,0.0,0.0,0.0,0.0,0.0,0.0,0.0,0.0,0.0,-0.1212,-0.1234,-0.1293,-0.1301,-0.1301,-0.1296,-0.1228,-0.1122,-0.1012,0.0,0.0,0.0,0.0,0.0,0.0,0.0,0.0,0.0,0.0,0.0,0.0,0.0,0.0,0.0,0.0,0.0,0.0,0.0,0.0,0.0,0.0,0.0,0.0,0.0,0.0,0.0,0.0,0.0,0.0,0.0,0.0,0.0,0.0,0.0,0.0,0.0,0.0,-0.0206,0.0,0.0,0.0,0.0,0.0,0.0,0.0,0.0,0.0,0.091,0.0,0.0,0.0,0.0,0.0,0.0,0.0,0.0,0.0,0.0,0.0,0.0,0.0,0.0,0.0,0.0,0.0,0.0,0.0,0.0,0.0,0.0,0.0,0.0,0.0,0.0,0.0,0.0,0.0,0.0,0.0,0.0,0.0,0.0,0.0,0.0,0.0,0.0,0.0,0.0,0.0,0.0,0.0,0.0,0.0,0.0,0.0,0.0,0.0,0.0,0.0,0.0,0.0,0.0,0.0,0.0,-0.1508,-0.1307,-0.1233,-0.1295,-0.1322,-0.1323,-0.1298,-0.1228,-0.1166,-0.1074,0.0,0.0,0.0,0.0,0.0,0.0,0.0,0.0,0.0,0.0,0.0,0.0,0.0,0.0,0.0,0.0,0.0,0.0,0.0,0.0,0.0,0.0,0.0,0.0,0.0,0.0,0.0,0.0,0.0,0.0,0.0,0.0,0.0,0.0,0.0,0.0,0.0,0.0,0.0,-0.0077,0.0026,0.0,0.0,0.0,0.0,0.0,0.0,0.0,0.0,0.1193,0.0,0.0,0.0,0.0,0.0,0.0,0.0,0.0,0.0,0.0,0.0,0.0,0.0,0.0,0.0,0.0,0.0,0.0,0.0,0.0,0.0,0.0,0.0,0.0,0.0,0.0,0.0,0.0,0.0,0.0,0.0,0.0,0.0,0.0,0.0,0.0,0.0,0.0,0.0,0.0,0.0,0.0,0.0,0.0,0.0,0.0,0.0,0.0,0.0,0.0,0.0,0.0,0.0,0.0,0.0,-0.1566,-0.1356,-0.1259,-0.1302,-0.1303,-0.1296,-0.132,-0.1221,-0.1225,0.0,0.0,0.0,0.0,0.0,0.0,0.0,0.0,0.0,0.0,0.0,0.0,0.0,0.0,0.0,0.0,0.0,0.0,0.0,0.0,0.0,0.0,0.0,0.0,0.0,0.0,0.0,0.0,0.0,0.0,0.0,0.0,0.0,0.0,0.0,0.0,0.0,0.0,0.0,0.0,0.0211,0.0489,0.064,0.0,0.0,0.0,0.0,0.0,0.0,0.1381,0.1199,0.0,0.0,0.0,0.0,0.0,0.0,0.0,0.0,0.0,0.0,0.0,0.0,0.0,0.0,0.0,0.0,0.0,0.0,0.0,0.0,0.0,0.0,0.0,0.0,0.0,0.0,0.0,0.0,0.0,0.0,0.0,0.0,0.0,0.0,0.0,0.0,0.0,0.0,0.0,0.0,0.0,0.0,0.0,0.0,0.0,0.0,0.0,0.0,0.0,0.0,0.0,0.0,0.0,0.0,0.0,-0.1647,-0.1428,-0.1311,-0.1303,-0.1324,-0.1309,-0.1301,-0.1219,-0.1252,0.0,0.0,0.0,0.0,0.0,0.0,0.0,0.0,0.0,0.0,0.0,0.0,0.0,0.0,0.0,0.0,0.0,0.0,0.0,0.0,0.0,0.0,0.0,0.0,0.0,0.0,0.0,0.0,0.0,0.0,0.0,0.0,0.0,0.0,0.0,0.0,0.0,0.0,0.0,0.0,0.0,0.0902,0.1175,0.1105,0.0,0.0,0.0,0.0,0.1925,0.1637,0.0,0.0,0.0,0.0,0.0,0.0,0.0,0.0,0.0,0.0,0.0,0.0,0.0,0.0,0.0,0.0,0.0,0.0,0.0,0.0,0.0,0.0,0.0,0.0,0.0,0.0,0.0,0.0,0.0,0.0,0.0,0.0,0.0,0.0,0.0,0.0,0.0,0.0,0.0,0.0,0.0,0.0,0.0,0.0,0.0,0.0,0.0,0.0,0.0,0.0,0.0,0.0,0.0,0.0,0.0,0.0,-0.1924,-0.1518,-0.1331,-0.1303,-0.1302,-0.133,-0.1303,-0.124,-0.1202,0.0,0.0,0.0,0.0,0.0,0.0,0.0,0.0,0.0,0.0,0.0,0.0,0.0,0.0,0.0,0.0,0.0,0.0,0.0,0.0,0.0,0.0,0.0,0.0,0.0,0.0,0.0,0.0,0.0,0.0,0.0,0.0,0.0,0.0,0.0,0.0,0.0,0.0,0.0,0.0,0.0,0.0813,0.0846,0.145,0.189,0.0,0.0,0.2654,0.2747,0.2754,0.0,0.0,0.0,0.0,0.0,0.0,0.0,0.0,0.0,0.0,0.0,0.0,0.0,0.0,0.0,0.0,0.0,0.0,0.0,0.0,0.0,0.0,0.0,0.0,0.0,0.0,0.0,0.0,0.0,0.0,0.0,0.0,0.0,0.0,0.0,0.0,0.0,0.0,0.0,0.0,0.0,0.0,0.0,0.0,0.0,0.0,0.0,0.0,0.0,0.0,0.0,0.0,0.0,0.0,0.0,-0.1822,-0.1996,-0.1535,-0.1304,-0.1304,-0.1331,-0.1316,-0.1303,-0.1172,-0.1204,0.0,0.0,0.0,0.0,0.0,0.0,0.0,0.0,0.0,0.0,0.0,0.0,0.0,0.0,0.0,0.0,0.0,0.0,0.0,0.0,0.0,0.0,0.0,0.0,0.0,0.0,0.0,0.0,0.0,0.0,0.0,0.0,0.0,0.0,0.0,0.0,0.0,0.0,0.0,0.0,0.0,0.0,0.1962,0.2178,0.0,0.0,0.0,0.2657,0.2924,0.0,0.0,0.0,0.0,0.0,0.0,0.0,0.0,0.0,0.0,0.0,0.0,0.0,0.0,0.0,0.0,0.0,0.0,0.0,0.0,0.0,0.0,0.0,0.0,0.0,0.0,0.0,0.0,0.0,0.0,0.0,0.0,0.0,0.0,0.0,0.0,0.0,0.0,0.0,0.0,0.0,0.0,0.0,0.0,0.0,0.0,0.0,0.0,0.0,0.0,0.0,0.0,0.0,0.0,0.0,0.0,0.0,-0.2139,-0.1705,-0.144,-0.1471,-0.1359,-0.1303,-0.1301,-0.1191,0.0,0.0,0.0,0.0,0.0,0.0,0.0,0.0,0.0,0.0,0.0,0.0,0.0,0.0,0.0,0.0,0.0,0.0,0.0,0.0,0.0,0.0,0.0,0.0,0.0,0.0,0.0,-0.0398,0.0,0.0,0.0,0.0,0.0,0.0,0.0,0.0,0.0,0.0,0.0,0.0,0.0,0.0,0.2206,0.2925,0.2949,0.3007,0.0,0.0,0.2861,0.3237,0.3258,0.3157,0.0,0.0,0.0,0.0,0.0,0.0,0.0,0.0,0.0,0.0,0.0,0.0,0.0,0.0,0.0,0.0,0.0,0.0,0.0,0.0,0.0,0.0,0.0,0.0,0.0,0.0,0.0,0.0,0.0,0.0,0.0,0.0,0.0,0.0,0.0,0.0,0.0,0.0,0.0,0.0,0.0,0.0,0.0,0.0,0.0,0.0,0.0,0.0,0.0,0.0,0.0,0.0,0.0,0.0,-0.2355,-0.2521,-0.2089,-0.1889,-0.1931,-0.1523,-0.1303,-0.1301,-0.1212,-0.1158,0.0,0.0,0.0,0.0,0.0,0.0,0.0,0.0,0.0,0.0,0.0,0.0,0.0,0.0,0.0,0.0,0.0,0.0,0.0,0.0,0.0,0.0,0.0,0.0,0.0,0.0,0.0,0.0,0.0,0.0,0.0,0.0,0.0,0.0,0.0,0.0,0.0,0.0,0.0,0.0,0.0,0.2789,0.2983,0.3567,0.4059,0.0,0.4081,0.3974,0.4009,0.4129,0.4009,0.3452,0.0,0.0,0.0,0.0,0.0,0.0,0.0,0.0,0.0,0.0,0.0,0.0,0.0,0.0,0.0,0.0,0.0,0.0,0.0,0.0,0.0,0.0,0.0,0.0,0.0,0.0,0.0,0.0,0.0,0.0,0.0,0.0,0.0,0.0,0.0,0.0,0.0,0.0,0.0,0.0,0.0,0.0,0.0,0.0,0.0,0.0,0.0,0.0,0.0,0.0,0.0,0.0,0.0,-0.2393,-0.2593,-0.2385,-0.2156,-0.1932,-0.1758,-0.1552,-0.1314,-0.1242,-0.1168,0.0,0.0,0.0,0.0,0.0,0.0,0.0,0.0,0.0,0.0,0.0,0.0,0.0,0.0,0.0,0.0,0.0,0.0,0.0,0.0,0.0,0.0,0.0,0.0,0.0,0.0,0.0,0.0,-0.0292,-0.0341,-0.0372,0.0,0.0,0.0,0.0,0.0,0.0,0.0,0.0,0.0,0.0,0.3077,0.3425,0.3732,0.0,0.0,0.4061,0.3997,0.4164,0.4143,0.3971,0.3695,0.3394,0.0,0.0,0.0,0.0,0.0,0.0,0.0,0.0,0.0,0.0,0.0,0.0,0.0,0.0,0.0,0.0,0.0,0.0,0.0,0.0,0.0,0.0,0.0,0.0,0.0,0.0,0.0,0.0,0.0,0.0,0.0,0.0,0.0,0.0,0.0,0.0,0.0,0.0,0.0,0.0,0.0,0.0,0.0,0.0,0.0,0.0,0.0,0.0,0.0,0.0,0.0,0.0,-0.2612,-0.2856,-0.2734,-0.2549,-0.2273,-0.2156,-0.1883,-0.1489,-0.1423,-0.1281,0.0,0.0,0.0,0.0,0.0,0.0,0.0,0.0,0.0,0.0,0.0,0.0,0.0,0.0,0.0,0.0,0.0,0.0,0.0,0.0,0.0,0.0,0.0,0.0,0.0,0.0,0.0,0.0,-0.0301,-0.0239,-0.0224,0.0,0.0,0.0,0.0,0.0,0.0,0.0,0.0,0.0,0.0,0.3478,0.391,0.3961,0.4041,0.4313,0.4118,0.4072,0.4313,0.4208,0.4028,0.3868,0.0,0.0,0.0,0.0,0.0,0.0,0.0,0.0,0.0,0.0,0.0,0.0,0.0,0.0,0.0,0.0,0.0,0.0,0.0,0.0,0.0,0.0,0.0,0.0,0.0,0.0,0.0,-0.4302,0.0,0.0,-0.4276,0.0,0.0,0.0,0.0,0.0,0.0,0.0,0.0,0.0,0.0,0.0,0.0,0.0,0.0,0.0,0.0,0.0,0.0,0.0,0.0,0.0,0.0,-0.3087,-0.3391,-0.3176,-0.3061,-0.3061,-0.2707,-0.2313,-0.1919,-0.1797,-0.1565,-0.1109,0.0,0.0,0.0,0.0,0.0,0.0,0.0,0.0,0.0,0.0,0.0,0.0,0.0,0.0,0.0,0.0,0.0,0.0,0.0,0.0,0.0,0.0,0.0,0.0,0.0,0.0,-0.0493,-0.0426,-0.0247,0.0,0.0,0.0,0.0,0.0,0.0,0.0,0.0,0.0,0.3183,0.375,0.41,0.4253,0.427,0.431,0.4487,0.4376,0.4344,0.4484,0.449,0.4338,0.0,0.0,0.0,0.0,0.0,0.0,0.0,0.0,0.0,0.0,0.0,0.0,0.0,0.0,0.0,0.0,0.0,0.0,0.0,0.0,0.0,0.0,0.0,0.0,0.0,0.0,0.0,-0.3971,-0.3838,0.0,0.0,0.0,0.0,0.0,0.0,0.0,0.0,0.0,0.0,0.0,-0.3173,-0.3232,0.0,0.0,0.0,0.0,0.0,0.0,0.0,0.0,0.0,0.0,0.0,0.0,-0.3121,-0.3395,-0.3515,-0.3413,-0.31,-0.2982,-0.2707,-0.2313,-0.1984,-0.154,-0.1052,0.0,0.0,0.0,0.0,0.0,0.0,0.0,0.0,0.0,0.0,0.0,0.0,0.0,0.0,0.0,0.0,0.0,0.0,0.0,0.0,0.0,0.0,0.0,0.0,0.0,-0.0539,0.0,0.0,0.0,0.0,0.0,0.0,0.0,0.0,0.0,0.0,0.2647,0.3089,0.3468,0.3942,0.4082,0.3682,0.3834,0.404,0.0,0.0,0.0,0.0,0.0,0.0,0.0,0.0,0.0,0.0,0.0,0.0,0.0,0.0,0.2,0.1834,0.1764,0.1714,0.1708,0.0,0.0,0.0,0.0,0.0,0.0,0.0,0.0,0.0,0.0,0.0,0.0,0.0,0.0,-0.3877,-0.3803,-0.3721,0.0,0.0,0.0,0.0,0.0,0.0,0.0,0.0,-0.3199,-0.3406,-0.3454,-0.3525,-0.3454,-0.3362,-0.3277,-0.3082,0.0,0.0,0.0,0.0,0.0,0.0,0.0,0.0,-0.3201,-0.3445,-0.3682,-0.3647,-0.3374,-0.3374,-0.3139,-0.2704,-0.2135,-0.1541,-0.1054,-0.0982,-0.0915,0.0,0.0,0.0,0.0,0.0,0.0,0.0,0.0,0.0,0.0,0.0,0.0,0.0,0.0,0.0,0.0,0.0,0.0,0.0,0.0,0.0,0.0,0.0,-0.036,0.0,0.0,0.0,0.0,0.0,0.0,0.0,0.0,0.0,0.2329,0.2758,0.3088,0.3271,0.365,0.3779,0.3391,0.0,0.0,0.0,0.0,0.0,0.0,0.0,0.3854,0.3708,0.3387,0.3043,0.2549,0.2338,0.2221,0.2196,0.0,0.0,0.1965,0.1916,0.1865,0.1797,0.177,0.1748,0.171,0.1596,0.148,0.0,0.0,0.0,0.0,-0.4356,0.0,0.0,0.0,-0.421,-0.4153,0.0,-0.395,0.0,0.0,0.0,0.0,-0.3237,-0.3573,0.0,0.0,-0.3595,-0.372,-0.361,-0.373,-0.3726,-0.3648,-0.3756,-0.3577,-0.3196,-0.2834,0.0,0.0,0.0,0.0,0.0,0.0,-0.3283,-0.3501,-0.3673,-0.3802,-0.3802,-0.3802,-0.3567,-0.3093,-0.2246,-0.1601,-0.1147,-0.1045,-0.0976,-0.0917,-0.0907,0.0,0.0,0.0,0.0,0.0,0.0,0.0,0.0,0.0,0.0,0.0,0.0,0.0,0.0,0.0,0.0,0.0,0.0,0.0,0.0,-0.018,0.0,0.0,0.0,0.0,0.0,0.0,0.0,0.0,0.0,0.1864,0.1878,0.2236,0.2556,0.2699,0.0,0.0,0.0,0.0,0.3363,0.3566,0.3481,0.342,0.3616,0.362,0.3552,0.3402,0.0,0.0,0.2309,0.2267,0.2287,0.2228,0.2264,0.2264,0.2213,0.2094,0.197,0.1855,0.1789,0.1681,0.1533,0.1545,0.1513,-0.4009,0.0,0.0,0.0,0.0,-0.3759,-0.3851,-0.4,-0.3939,-0.3833,-0.3692,-0.3638,0.0,0.0,0.0,0.0,0.0,0.0,-0.3545,-0.3485,-0.3742,-0.3881,-0.3879,-0.3944,-0.3901,-0.3877,-0.3879,-0.3775,-0.3601,-0.3352,-0.3081,-0.2764,0.0,0.0,0.0,0.0,-0.3311,-0.3581,-0.3703,-0.3802,-0.3802,-0.3802,-0.3577,-0.3099,-0.2264,-0.1722,-0.1525,-0.1201,-0.0986,-0.098,-0.1054,0.0,0.0,0.0,0.0,0.0,0.0,0.0,0.0,0.0,0.0,0.0,0.0,0.0,0.0,0.0,0.0,0.0,0.0,0.0,0.0202,0.0224,0.0272,0.0,0.0,0.0,0.0,0.0,0.0,0.0,0.0,0.0,0.2074,0.2362,0.2615,0.0,0.0,0.3122,0.2684,0.2868,0.3147,0.3209,0.3203,0.0,0.3679,0.3576,0.338,0.3213,0.2899,0.2589,0.244,0.241,0.2402,0.2343,0.2347,0.2371,0.2298,0.2221,0.2127,0.21,0.2067,0.2017,0.1835,0.1674,0.154,-0.4246,-0.3985,-0.3793,-0.3763,-0.3836,-0.3787,-0.3877,-0.4048,-0.3926,-0.385,-0.3808,-0.3705,-0.3554,-0.3414,-0.3342,0.0,0.0,0.0,-0.3685,-0.3742,-0.3924,-0.4038,-0.4089,-0.4124,-0.412,-0.4089,-0.4034,-0.3961,-0.3869,-0.3765,-0.3519,-0.3223,0.0,-0.3111,-0.3252,-0.334,-0.3429,-0.3584,-0.3716,-0.3802,-0.3802,-0.3802,-0.3505,-0.2878,-0.2338,-0.1881,-0.1495,-0.1197,-0.1044,-0.1019,-0.104,-0.1005,0.0,0.0,0.0,0.0,0.0,0.0,0.0,0.0,0.0,0.0,0.0,-0.0676,-0.0615,0.0,0.0,0.0,-0.0111,0.0138,0.039,0.059,0.0,0.0,0.0,0.0,0.0,0.0,0.0,0.1862,0.1992,0.2106,0.218,0.235,0.2501,0.2564,0.2765,0.2779,0.243,0.0,0.2786,0.2854,0.2863,0.2943,0.3253,0.3135,0.2994,0.289,0.2668,0.251,0.251,0.251,0.2497,0.2466,0.2455,0.2399,0.2343,0.2301,0.225,0.2206,0.2204,0.212,0.1951,0.1782,0.1648,-0.4594,-0.4565,-0.4192,-0.414,-0.4204,-0.4204,-0.4246,-0.4306,-0.4105,-0.4165,-0.4287,-0.4053,-0.3979,-0.3994,-0.3865,0.0,-0.3828,-0.3881,-0.3922,-0.3928,-0.4102,-0.4227,-0.4229,-0.4261,-0.4259,-0.4225,-0.4227,-0.4136,-0.4006,-0.4002,-0.396,-0.3903,-0.3618,-0.3452,-0.352,-0.3552,-0.3592,-0.3636,-0.372,-0.3802,-0.3802,-0.3763,-0.3368,-0.2579,-0.2427,-0.2,-0.1306,-0.1141,-0.1083,-0.0998,-0.0934,-0.092,-0.0914,0.0,0.0,0.0,0.0,0.0,0.0,0.0,0.0,0.0,0.0,0.0,0.0,0.0,0.0,0.0,0.0,0.0,0.043,0.0919,0.0,0.0,0.0,0.1448,0.1678,0.1877,0.2012,0.2016,0.0,0.0,0.2188,0.2271,0.2327,0.2381,0.234,0.2344,0.2488,0.2458,0.2447,0.2503,0.251,0.251,0.2588,0.2581,0.2539,0.2547,0.251,0.251,0.251,0.251,0.251,0.2506,0.251,0.2492,0.2436,0.2382,0.2347,0.2237,0.217,0.2127,0.1919,0.1816,0.1748,-0.4724,-0.4765,-0.4679,-0.4581,-0.4526,-0.4477,-0.4536,-0.4502,-0.4509,-0.443,-0.4398,-0.4291,-0.4244,-0.4134,-0.4022,-0.3971,-0.3936,-0.4067,-0.415,-0.4114,-0.422,-0.4269,-0.4271,-0.4289,-0.4289,-0.4269,-0.4269,-0.4224,-0.4144,-0.414,-0.4093,-0.3962,-0.3918,-0.3818,-0.3742,-0.3652,-0.3625,-0.3769,-0.3789,-0.3802,-0.3802,-0.3452,-0.3191,-0.2941,-0.2298,-0.1806,-0.1593,-0.1267,-0.1103,-0.1087,-0.1005,-0.096,-0.0893,-0.0834,0.0,0.0,0.0,0.0,0.0,0.0,0.0,0.0,0.0,-0.0668,-0.0607,0.0,-0.0604,0.0,0.0357,0.0771,0.0771,0.1271,0.0,0.0,0.1762,0.1815,0.1905,0.2019,0.2091,0.2138,0.2189,0.2244,0.233,0.2352,0.2421,0.2478,0.2437,0.2373,0.2439,0.247,0.2493,0.2507,0.251,0.251,0.251,0.251,0.251,0.251,0.251,0.251,0.251,0.251,0.251,0.251,0.251,0.2504,0.2489,0.2414,0.2322,0.2182,0.2088,0.1966,0.1723,0.1547,0.1412,-0.4782,-0.4782,-0.4782,-0.4777,-0.4689,-0.4687,-0.4687,-0.4685,-0.4649,-0.4604,-0.4505,-0.4516,-0.4442,-0.4349,-0.4297,-0.4275,-0.4279,-0.4328,-0.4328,-0.4293,-0.4338,-0.4336,-0.43,-0.4297,-0.4297,-0.4297,-0.4297,-0.4275,-0.423,-0.423,-0.4202,-0.4153,-0.4116,-0.4046,-0.3985,-0.3814,-0.3773,-0.3861,-0.3822,-0.3802,-0.3802,-0.3528,-0.3219,-0.2838,-0.2337,-0.1885,-0.1436,-0.1182,-0.1057,-0.1055,-0.1013,-0.0981,-0.0932,-0.0888,-0.082,0.0,0.0,0.0,0.0,0.0,0.0,0.0,0.0,0.0,0.0,0.0,-0.0582,-0.0189,0.0584,0.1085,0.1086,0.1545,0.1868,0.1875,0.1983,0.2037,0.2044,0.2099,0.215,0.2183,0.2207,0.2244,0.2332,0.2367,0.2441,0.2503,0.248,0.2461,0.2462,0.2491,0.251,0.251,0.251,0.251,0.251,0.251,0.251,0.251,0.251,0.251,0.251,0.251,0.251,0.251,0.251,0.251,0.2507,0.2461,0.2364,0.2235,0.2072,0.1878,0.1522,0.1378,0.1244,-0.4782,-0.4782,-0.4782,-0.4782,-0.4782,-0.4782,-0.4782,-0.4778,-0.4757,-0.4724,-0.4718,-0.4628,-0.4589,-0.4589,-0.4625,-0.4619,-0.4619,-0.4619,-0.453,-0.4406,-0.4453,-0.4358,-0.4318,-0.4316,-0.431,-0.4297,-0.4297,-0.4297,-0.4297,-0.4297,-0.4297,-0.4295,-0.4224,-0.4233,-0.4225,-0.402,-0.3922,-0.3897,-0.3847,-0.3802,-0.3802,-0.3802,-0.3367,-0.2559,-0.2485,-0.2033,-0.1149,-0.1066,-0.1039,-0.1006,-0.101,-0.0994,-0.0992,-0.094,-0.0873,0.0,-0.1007,0.0,0.0,0.0,0.0,0.0,0.0,0.0,0.0,-0.0667,-0.0446,-0.0026,0.0793,0.1306,0.1307,0.1782,0.2074,0.2026,0.2117,0.2199,0.2117,0.2154,0.219,0.2199,0.2218,0.2244,0.2305,0.2358,0.2452,0.25,0.2508,0.2504,0.2508,0.2508,0.251,0.251,0.251,0.251,0.251,0.251,0.251,0.251,0.251,0.251,0.251,0.251,0.251,0.251,0.251,0.251,0.251,0.2461,0.2364,0.2273,0.2108,0.1878,0.1491,0.1344,0.1277,-0.4782,-0.4782,-0.4782,-0.4782,-0.4782,-0.4782,-0.4782,-0.4782,-0.4768,-0.476,-0.4806,-0.472,-0.4683,-0.4677,-0.4604,-0.4619,-0.4619,-0.4619,-0.4563,-0.4594,-0.4547,-0.4498,-0.4414,-0.4364,-0.4371,-0.4302,-0.4297,-0.4297,-0.4297,-0.4297,-0.4297,-0.4297,-0.4283,-0.4275,-0.4269,0.0,0.0,0.0,-0.3851,-0.3802,-0.3802,-0.3802,-0.3339,-0.246,-0.2725,0.0,-0.1188,-0.1342,-0.1368,-0.1101,-0.104,0.0,0.0,0.0,0.0,0.0,0.0,0.0,0.0,0.0,0.0,0.0,-0.0508,-0.028,-0.0227,0.0106,0.0387,0.0543,0.1007,0.1301,0.1302,0.176,0.2091,0.2082,0.2176,0.2182,0.2171,0.2214,0.2206,0.2189,0.2245,0.2303,0.2355,0.2455,0.2495,0.2506,0.251,0.251,0.251,0.251,0.251,0.251,0.251,0.251,0.251,0.251,0.251,0.251,0.251,0.251,0.251,0.251,0.251,0.251,0.251,0.251,0.2507,0.2424,0.2362,0.2162,0.2071,0.1912,0.1624,0.1412,0.1277,-0.4782,-0.4782,-0.4782,-0.4782,0.0,-0.4782,-0.4782,-0.4782,-0.4782,-0.4782,-0.4782,-0.474,-0.4771,-0.4767,-0.4722,-0.4702,-0.4702,-0.4702,-0.4679,-0.464,-0.464,-0.4591,-0.4502,-0.441,-0.441,-0.432,-0.432,-0.4297,-0.4297,-0.4297,-0.4297,-0.4297,-0.4297,-0.4297,-0.4295,-0.4258,-0.4083,-0.3901,-0.3894,-0.3847,-0.3804,-0.3569,-0.3123,-0.2489,-0.239,0.0,0.0,0.0,0.0,0.0,0.0,0.0,0.0,0.0,0.0,-0.1016,-0.1016,-0.0973,-0.0945,-0.0969,-0.0862,-0.0554,0.012,0.0457,0.0268,0.0679,0.0976,0.0992,0.1424,0.1701,0.1703,0.1974,0.2141,0.2143,0.217,0.2188,0.2188,0.2188,0.22,0.2194,0.2226,0.2278,0.2331,0.2364,0.2448,0.25,0.251,0.2508,0.251,0.251,0.251,0.251,0.251,0.251,0.251,0.251,0.251,0.251,0.251,0.251,0.251,0.251,0.251,0.251,0.251,0.2503,0.2467,0.2418,0.2323,0.2193,0.2136,0.2022,0.1786,0.158,0.1378,-0.4782,-0.4782,-0.4782,-0.4782,-0.4782,-0.4782,-0.4782,-0.4782,-0.4782,0.0,0.0,-0.4782,-0.4782,-0.4782,-0.4782,-0.4782,-0.4782,-0.4782,-0.4746,-0.4732,-0.4732,-0.4675,-0.4571,-0.4496,-0.4442,-0.4362,-0.4334,-0.4297,-0.4297,-0.4297,-0.4297,-0.4297,-0.4297,-0.4297,-0.4295,-0.423,-0.4114,-0.3955,-0.3916,-0.3894,-0.3806,-0.3413,-0.2985,-0.2497,-0.2143,-0.1664,-0.1121,-0.1109,-0.108,-0.1009,-0.1008,-0.1008,-0.1008,-0.1008,-0.1052,-0.1106,-0.1109,-0.1065,-0.101,-0.1062,-0.083,-0.0129,0.0805,0.1187,0.0868,0.1206,0.1431,0.147,0.1889,0.2117,0.2127,0.2139,0.2208,0.2218,0.221,0.2204,0.2203,0.2192,0.2188,0.2189,0.2203,0.2207,0.2268,0.2296,0.2331,0.2455,0.2481,0.25,0.2508,0.251,0.251,0.251,0.251,0.251,0.251,0.251,0.251,0.251,0.251,0.251,0.251,0.251,0.251,0.251,0.251,0.2485,0.2393,0.234,0.228,0.2221,0.2196,0.2153,0.1985,0.1816,0.1648,-0.4782,-0.4782,-0.4782,-0.4782,-0.4782,-0.4782,-0.4782,-0.4782,-0.4782,-0.4782,-0.4782,-0.4782,-0.4782,-0.4782,-0.4782,-0.4782,-0.4782,-0.4782,-0.4778,-0.4766,-0.4816,-0.4728,-0.4623,-0.4559,-0.4469,-0.4326,-0.4304,-0.4297,-0.4297,-0.4297,-0.4297,-0.4297,-0.4297,-0.4297,-0.4297,-0.4285,-0.4232,-0.4177,-0.3981,-0.3894,-0.3806,-0.3724,-0.3293,-0.2537,-0.2705,-0.2273,-0.1158,-0.1427,-0.144,-0.1105,-0.1069,-0.1069,-0.1069,-0.1069,-0.1072,-0.1109,-0.1109,-0.1108,-0.1069,-0.1107,-0.0697,0.0226,0.0998,0.1504,0.187,0.1945,0.2006,0.2055,0.2136,0.2196,0.2177,0.219,0.2217,0.2259,0.2226,0.2197,0.2193,0.2187,0.219,0.2188,0.2202,0.2196,0.2224,0.2267,0.2301,0.2327,0.2371,0.2411,0.2488,0.251,0.251,0.251,0.251,0.251,0.251,0.251,0.251,0.251,0.251,0.251,0.251,0.251,0.251,0.251,0.2506,0.2481,0.2426,0.2336,0.2275,0.2214,0.2191,0.2189,0.2119,0.2119,0.1985,-0.4782,-0.4782,-0.4782,-0.4782,-0.4782,-0.4782,-0.4782,-0.4782,-0.4782,-0.4782,-0.4782,-0.4782,-0.4782,-0.4782,-0.4782,-0.4782,-0.4782,-0.4782,-0.4782,-0.4782,-0.4782,-0.472,-0.4649,-0.4596,-0.4504,-0.4332,-0.4322,-0.4297,-0.4297,-0.4297,-0.4297,-0.4297,-0.4297,-0.4297,-0.4297,-0.4297,-0.4257,-0.4173,-0.404,-0.3928,-0.3838,-0.3548,-0.3078,-0.2507,-0.2373,-0.1958,-0.1171,-0.1335,-0.1352,-0.1161,-0.1109,-0.11,-0.11,-0.1085,-0.1109,-0.1109,-0.1109,-0.1109,-0.1109,-0.0571,0.01,0.0825,0.1484,0.1928,0.2126,0.2165,0.2171,0.2196,0.2203,0.2193,0.225,0.2259,0.2269,0.2296,0.2273,0.2245,0.2213,0.2189,0.2191,0.2196,0.2211,0.2207,0.2205,0.2234,0.2267,0.2292,0.2326,0.2348,0.2377,0.2444,0.2474,0.2503,0.251,0.251,0.251,0.251,0.251,0.251,0.251,0.251,0.251,0.251,0.251,0.2507,0.2486,0.244,0.2348,0.2289,0.2232,0.221,0.2213,0.2189,0.2188,0.2119,0.1951,-0.4782,-0.4782,-0.4782,-0.4782,-0.4782,-0.4782,-0.4782,-0.4782,-0.4782,-0.4782,-0.4782,-0.4782,-0.4782,-0.4782,-0.4782,-0.4782,-0.4782,-0.4782,-0.4782,-0.4782,-0.4782,-0.4779,-0.4677,-0.4652,-0.4514,-0.441,-0.4332,-0.4297,-0.4297,-0.4297,-0.4297,-0.4297,-0.4297,-0.4297,-0.4297,-0.4297,-0.4267,-0.4202,-0.4114,-0.398,-0.393,-0.3459,-0.2989,-0.2519,-0.2088,-0.1643,-0.1209,-0.1189,-0.1173,-0.1202,-0.1144,-0.1132,-0.113,-0.1144,-0.113,-0.113,-0.113,-0.1062,-0.0856,0.0,0.0754,0.1301,0.1885,0.2215,0.2218,0.2222,0.2213,0.2221,0.223,0.2253,0.2305,0.2318,0.2323,0.2334,0.2324,0.2301,0.2257,0.2237,0.2206,0.2187,0.2208,0.2192,0.2179,0.2189,0.2213,0.2261,0.2279,0.2283,0.23,0.2347,0.2439,0.2476,0.25,0.251,0.251,0.251,0.251,0.251,0.251,0.251,0.251,0.251,0.251,0.2504,0.2462,0.237,0.2311,0.2253,0.2196,0.2208,0.219,0.2188,0.2188,0.2119,0.1951,-0.4782,-0.4782,-0.4782,-0.4782,-0.4782,-0.4782,-0.4782,-0.4782,-0.4782,-0.4782,-0.4782,-0.4782,-0.4782,-0.4782,-0.4782,-0.4782,-0.4782,-0.4782,-0.4782,-0.4782,-0.4782,-0.4747,-0.4645,-0.4623,-0.4481,-0.433,-0.4304,-0.4297,-0.4297,-0.4297,-0.4297,-0.4297,-0.4297,-0.4297,-0.4297,-0.4297,-0.4293,-0.4285,-0.4204,-0.4116,-0.3984,-0.3885,-0.3436,-0.2632,-0.2488,-0.2046,-0.1253,-0.1171,-0.1195,-0.1206,-0.1201,-0.1198,-0.1198,-0.1195,-0.1193,-0.1192,-0.1193,-0.0941,-0.0325,0.0253,0.0866,0.1447,0.1986,0.2279,0.2289,0.2285,0.2283,0.2293,0.2292,0.2315,0.2364,0.2411,0.2431,0.247,0.244,0.2409,0.2355,0.232,0.2268,0.2208,0.2194,0.2185,0.2213,0.2203,0.2189,0.221,0.2217,0.2233,0.2275,0.2336,0.2411,0.2397,0.2471,0.2507,0.251,0.251,0.251,0.251,0.251,0.251,0.251,0.251,0.2508,0.2488,0.2454,0.2356,0.2301,0.225,0.2187,0.2206,0.2188,0.2188,0.2188,0.2153,0.2085,-0.4782,-0.4782,-0.4782,-0.4782,-0.4782,-0.4782,-0.4782,-0.4782,-0.4782,-0.4782,-0.4782,-0.4782,-0.4782,-0.4782,-0.4782,-0.4782,-0.4782,-0.4782,-0.4782,-0.4778,-0.4785,-0.4692,-0.4625,-0.4514,-0.4422,-0.4306,-0.4297,-0.4297,-0.4297,-0.4297,-0.4297,-0.4297,-0.4297,-0.4297,-0.4297,-0.4297,-0.4297,-0.4297,-0.3732,-0.3657,-0.408,-0.3946,-0.3445,-0.2708,-0.2508,-0.208,-0.1355,-0.1277,-0.1272,-0.1258,-0.1241,-0.1194,-0.1193,-0.1176,-0.1203,-0.1166,-0.0801,-0.0364,0.0218,0.0801,0.1385,0.1932,0.2188,0.2311,0.2344,0.2348,0.236,0.2391,0.2369,0.2409,0.2425,0.2473,0.2484,0.2503,0.2449,0.2422,0.2422,0.2399,0.2315,0.2228,0.2209,0.2189,0.2203,0.2188,0.2199,0.2188,0.2192,0.2208,0.2233,0.2308,0.2327,0.2344,0.2409,0.2503,0.251,0.251,0.251,0.251,0.251,0.251,0.251,0.251,0.25,0.2429,0.2375,0.2318,0.2253,0.2236,0.2214,0.2189,0.2188,0.2188,0.2188,0.2119,0.2052,-0.4782,-0.4782,-0.4782,-0.4782,-0.4782,-0.4782,-0.4782,-0.4782,-0.4782,-0.4782,-0.4782,-0.4782,-0.4782,-0.4782,-0.4782,-0.4782,-0.4782,-0.4782,-0.4782,-0.4776,-0.4747,-0.4661,-0.4569,-0.4479,-0.4387,-0.431,-0.4297,-0.4297,-0.4297,-0.4297,-0.4297,-0.4297,-0.4297,-0.4297,-0.4297,-0.4297,-0.4297,-0.4208,-0.3405,-0.3224,-0.3728,-0.3307,-0.2919,-0.2655,-0.2406,-0.1941,-0.1335,-0.1297,-0.1297,-0.1296,-0.1274,-0.1224,-0.1223,-0.1241,-0.1229,-0.1154,-0.0595,0.0,0.0558,0.1154,0.1749,0.2271,0.2347,0.2362,0.2435,0.2444,0.2426,0.2496,0.2432,0.2426,0.25,0.251,0.251,0.251,0.251,0.2489,0.2452,0.2444,0.2406,0.2276,0.2268,0.2228,0.2198,0.22,0.219,0.2192,0.219,0.2188,0.2199,0.2244,0.2273,0.2279,0.236,0.2429,0.25,0.251,0.251,0.251,0.251,0.251,0.251,0.251,0.2489,0.2447,0.2377,0.2292,0.2259,0.2232,0.2196,0.2193,0.2199,0.2203,0.219,0.2053,0.1951,-0.4782,-0.4782,-0.4782,-0.4782,-0.4782,-0.4782,-0.4782,-0.4782,-0.4782,-0.4782,-0.4782,-0.4782,-0.4782,-0.4782,-0.4782,-0.4782,-0.4782,-0.4782,-0.4782,-0.4774,-0.4745,-0.4659,-0.4569,-0.4479,-0.434,-0.4304,-0.4297,-0.4297,-0.4297,-0.4297,-0.4297,-0.4297,-0.4297,-0.4297,-0.4297,-0.4253,-0.4297,-0.4121,-0.3224,-0.2867,-0.2769,-0.1703,-0.1579,-0.2435,-0.2212,-0.1682,-0.1341,-0.1297,-0.1297,-0.1297,-0.1293,-0.1293,-0.1293,-0.1291,-0.1249,-0.1211,-0.0625,0.0,0.0624,0.1285,0.1868,0.2379,0.2488,0.2499,0.2495,0.2497,0.2501,0.251,0.2504,0.2504,0.2501,0.2507,0.251,0.251,0.251,0.2507,0.2504,0.2491,0.2477,0.2377,0.234,0.2322,0.2208,0.2189,0.2197,0.2193,0.2192,0.2193,0.2207,0.2183,0.222,0.2233,0.2279,0.2346,0.248,0.2482,0.2489,0.2493,0.2484,0.2496,0.2506,0.2503,0.2466,0.2429,0.2372,0.233,0.2309,0.2263,0.2229,0.218,0.2207,0.2208,0.2196,0.2189,0.2052,-0.4782,-0.4782,-0.4782,-0.4782,-0.4782,-0.4782,-0.4782,-0.4782,-0.4782,-0.4782,-0.4782,-0.4782,-0.4782,-0.4782,-0.4782,-0.4782,-0.4782,-0.4782,-0.4782,-0.4768,-0.4687,-0.4604,-0.4561,-0.442,-0.4334,-0.4304,-0.4297,-0.4297,-0.4297,-0.4297,-0.4297,-0.4297,-0.4297,-0.4297,-0.421,-0.3673,-0.3403,-0.3226,-0.1881,-0.1254,-0.1611,-0.0356,-0.0088,-0.0944,-0.1201,-0.1052,-0.0603,-0.103,-0.1297,-0.1297,-0.1297,-0.1297,-0.1258,-0.0904,-0.0668,-0.055,0.0314,0.102,0.1256,0.1844,0.2234,0.247,0.251,0.251,0.251,0.251,0.251,0.251,0.251,0.2497,0.2469,0.2486,0.251,0.251,0.2508,0.2506,0.2503,0.2438,0.2391,0.2332,0.2304,0.2264,0.2213,0.2201,0.2204,0.2204,0.2211,0.2211,0.2222,0.2228,0.2252,0.2229,0.2259,0.2312,0.2344,0.2359,0.2364,0.2386,0.2391,0.2367,0.2364,0.2374,0.2346,0.2323,0.2285,0.2287,0.2267,0.2287,0.2252,0.2221,0.2213,0.224,0.2199,0.2203,0.2061,-0.4782,-0.4782,-0.4782,-0.4782,-0.4782,-0.4782,-0.4782,-0.4782,-0.4782,-0.4782,-0.4782,-0.4782,-0.4782,-0.4782,-0.4782,-0.4782,-0.4782,-0.4782,-0.4782,-0.477,-0.4683,-0.4602,-0.4598,-0.4416,-0.4326,-0.4302,-0.4297,-0.4297,-0.4297,-0.4297,-0.4297,-0.4297,-0.4032,-0.3851,-0.3673,-0.2867,-0.2417,-0.2104,-0.0717,-0.0134,-0.0403,0.0807,0.1337,0.0831,0.0252,-0.0041,0.0081,-0.0398,-0.0707,-0.0668,-0.0668,-0.0786,-0.0904,-0.055,-0.0314,-0.0196,0.0902,0.1606,0.1646,0.2156,0.251,0.251,0.251,0.251,0.251,0.251,0.251,0.251,0.2508,0.2485,0.2444,0.2456,0.2473,0.2459,0.2454,0.2454,0.2451,0.2378,0.2342,0.2303,0.2279,0.2228,0.2247,0.2214,0.2234,0.2234,0.2238,0.2238,0.2245,0.2268,0.2288,0.225,0.2272,0.2308,0.2334,0.234,0.2326,0.2339,0.2343,0.2308,0.2296,0.2296,0.2288,0.2259,0.2253,0.2263,0.2284,0.2315,0.2296,0.2253,0.2263,0.2308,0.2245,0.2189,0.2045,-0.4782,-0.4782,-0.4782,-0.4782,-0.4782,-0.4782,-0.4782,-0.4782,-0.4782,-0.4782,-0.4782,-0.4782,-0.4782,-0.4782,-0.4782,-0.4782,-0.4782,-0.4782,-0.4782,-0.4774,-0.4741,-0.4657,-0.4579,-0.4485,-0.4344,-0.4316,-0.4302,-0.4297,-0.4297,-0.4297,-0.4297,-0.4074,-0.336,-0.2956,-0.2867,-0.1879,-0.1342,-0.1074,-0.0045,0.0493,0.0583,0.1705,0.2332,0.2319,0.1845,0.1328,0.0773,0.0597,0.0432,0.0471,0.0511,0.0275,-0.0196,-0.0196,-0.0235,0.0039,0.098,0.1568,0.1685,0.2195,0.251,0.251,0.251,0.251,0.251,0.251,0.251,0.251,0.2507,0.2485,0.2433,0.2425,0.237,0.2314,0.2319,0.232,0.2312,0.2303,0.2299,0.2296,0.2281,0.2293,0.2293,0.2279,0.228,0.2292,0.2299,0.2299,0.2297,0.2307,0.2303,0.2293,0.2295,0.2308,0.2327,0.2338,0.2316,0.2301,0.2296,0.2281,0.2288,0.2291,0.2288,0.2269,0.2297,0.231,0.2346,0.2371,0.2366,0.2338,0.2384,0.2361,0.2261,0.2202,0.2032,-0.4782,-0.4782,-0.4782,-0.4782,-0.4782,-0.4782,-0.4782,-0.4782,-0.4782,-0.4782,-0.4782,-0.4782,-0.4782,-0.4782,-0.4782,-0.4782,-0.4782,-0.4782,-0.4782,-0.4768,-0.4749,-0.4698,-0.4651,-0.4571,-0.4481,-0.4393,-0.4328,-0.4297,-0.4297,-0.4297,-0.403,-0.3358,-0.2865,-0.2283,-0.1611,-0.0581,0.0045,0.0179,0.1075,0.1705,0.184,0.2244,0.256,0.2727,0.2498,0.2262,0.2036,0.1123,0.0629,0.0629,0.0629,0.0511,0.0432,0.0746,0.098,0.1097,0.1725,0.2234,0.2234,0.2392,0.251,0.251,0.251,0.251,0.251,0.251,0.251,0.251,0.2508,0.2485,0.2435,0.242,0.2358,0.2304,0.2297,0.2297,0.2297,0.2297,0.2297,0.2297,0.2297,0.2297,0.23,0.2301,0.2322,0.2351,0.2356,0.2392,0.2356,0.2356,0.2336,0.231,0.2308,0.2319,0.234,0.2355,0.2344,0.2316,0.2297,0.2269,0.2275,0.2285,0.2283,0.2305,0.2334,0.2366,0.244,0.2454,0.2448,0.2432,0.2378,0.2336,0.2284,0.2173,0.2071,-0.4782,-0.4782,-0.4782,-0.4782,-0.4782,-0.4782,-0.4782,-0.4782,-0.4782,-0.4782,-0.4782,-0.4782,-0.4782,-0.4782,-0.4782,-0.4782,-0.4782,-0.4782,-0.4782,-0.4778,-0.4787,-0.4741,-0.4694,-0.4577,-0.4473,-0.4346,-0.4326,-0.4119,-0.3807,-0.3762,-0.3269,-0.2418,-0.1746,-0.1119,-0.0492,0.0627,0.1254,0.1344,0.1929,0.2379,0.247,0.2604,0.2739,0.2857,0.2799,0.2698,0.26,0.177,0.1295,0.1256,0.1099,0.0981,0.102,0.1372,0.1606,0.1724,0.2117,0.251,0.251,0.247,0.251,0.251,0.251,0.251,0.251,0.251,0.251,0.251,0.251,0.2485,0.2395,0.242,0.2356,0.2304,0.2297,0.2297,0.2297,0.2297,0.2297,0.2301,0.2316,0.2326,0.233,0.2356,0.2373,0.2409,0.2414,0.2452,0.2454,0.2454,0.2387,0.237,0.2379,0.2382,0.2371,0.2371,0.2371,0.2343,0.2314,0.2276,0.2255,0.2273,0.2281,0.234,0.2379,0.2448,0.2484,0.2491,0.2488,0.2467,0.2407,0.2382,0.2342,0.2285,0.2174,-0.4782,-0.4782,-0.4782,-0.4782,-0.4782,-0.4782,-0.4782,-0.4782,-0.4782,-0.4782,-0.4782,-0.4782,-0.4782,-0.4782,-0.4782,-0.4782,-0.4782,-0.4782,-0.4782,-0.4782,-0.477,-0.4785,-0.4694,-0.4549,-0.4384,-0.434,-0.431,-0.3851,-0.309,-0.3045,-0.2327,-0.1298,-0.0313,0.0448,0.0717,0.1705,0.2199,0.2199,0.2424,0.2515,0.256,0.2739,0.2875,0.2913,0.2759,0.2694,0.2635,0.2456,0.2392,0.2392,0.1882,0.1646,0.1646,0.1645,0.1685,0.1763,0.2195,0.2431,0.251,0.251,0.251,0.251,0.251,0.251,0.251,0.251,0.251,0.251,0.251,0.2489,0.2405,0.2432,0.237,0.2323,0.231,0.2301,0.2304,0.2307,0.2319,0.2327,0.2392,0.2425,0.2387,0.2429,0.2452,0.2462,0.2461,0.2497,0.2497,0.2495,0.2504,0.2495,0.2476,0.247,0.2417,0.2417,0.2454,0.2401,0.237,0.2336,0.2289,0.2299,0.2322,0.2378,0.2403,0.248,0.2508,0.251,0.251,0.2495,0.248,0.2434,0.2399,0.2342,0.2248,-0.4782,-0.4782,-0.4782,-0.4782,-0.4782,-0.4782,-0.4782,-0.4782,-0.4782,-0.4782,-0.4782,-0.4782,-0.4782,-0.4782,-0.4782,-0.4782,-0.4782,-0.4782,-0.4782,-0.4782,-0.4782,-0.4787,-0.4704,-0.4594,-0.4439,-0.4352,-0.4193,-0.3807,-0.2956,-0.2732,-0.1836,-0.0134,0.0403,0.112,0.1929,0.2424,0.2694,0.2739,0.2739,0.2785,0.2785,0.283,0.292,0.2908,0.2798,0.2695,0.2681,0.2575,0.251,0.251,0.2353,0.2273,0.2234,0.2234,0.2195,0.2234,0.2353,0.251,0.251,0.251,0.251,0.251,0.251,0.251,0.251,0.251,0.251,0.251,0.251,0.2504,0.2488,0.2484,0.2474,0.2419,0.2356,0.2323,0.2351,0.2399,0.2413,0.2418,0.2436,0.248,0.2485,0.2495,0.251,0.251,0.251,0.251,0.251,0.251,0.251,0.251,0.25,0.2504,0.2504,0.2504,0.2501,0.2496,0.2482,0.2471,0.2393,0.241,0.2437,0.2477,0.2439,0.2455,0.2491,0.251,0.251,0.251,0.2504,0.2491,0.2478,0.2437,0.2338,-0.4782,-0.4782,-0.4782,-0.4782,-0.4782,-0.4782,-0.4782,-0.4782,-0.4782,-0.4782,-0.4782,-0.4782,-0.4782,-0.4782,-0.4782,-0.4782,-0.4782,-0.4782,-0.4782,-0.4782,-0.4782,-0.4785,-0.4704,-0.4616,-0.4336,-0.3786,-0.3619,-0.2734,-0.1657,-0.1433,-0.0403,0.0896,0.1344,0.1837,0.2379,0.2739,0.292,0.2875,0.292,0.292,0.292,0.292,0.29,0.2828,0.274,0.2676,0.2616,0.2545,0.2511,0.251,0.251,0.251,0.251,0.251,0.251,0.251,0.251,0.251,0.251,0.251,0.251,0.251,0.251,0.251,0.251,0.251,0.251,0.251,0.251,0.251,0.251,0.251,0.251,0.2497,0.241,0.2385,0.2455,0.2419,0.2473,0.25,0.251,0.251,0.251,0.251,0.251,0.251,0.251,0.251,0.251,0.251,0.251,0.251,0.251,0.251,0.251,0.251,0.251,0.2508,0.2508,0.251,0.2485,0.2452,0.2435,0.2439,0.2425,0.2467,0.2539,0.2571,0.251,0.251,0.251,0.2507,0.2493,0.2476,0.2378,-0.4782,-0.4782,-0.4782,-0.4782,-0.4782,-0.4782,-0.4782,-0.4782,-0.4782,-0.4782,-0.4782,-0.4782,-0.4782,-0.4782,-0.4782,-0.4782,-0.4782,-0.4782,-0.4782,-0.4782,-0.4778,-0.4796,-0.4681,-0.4476,-0.3912,-0.3139,-0.2623,-0.1435,-0.0313,0.0403,0.1165,0.1884,0.2288,0.2469,0.2604,0.2785,0.2875,0.292,0.292,0.292,0.292,0.2918,0.2854,0.2855,0.2736,0.2636,0.2556,0.251,0.251,0.251,0.251,0.251,0.251,0.251,0.251,0.251,0.251,0.251,0.251,0.251,0.251,0.251,0.251,0.251,0.251,0.251,0.251,0.251,0.251,0.251,0.251,0.251,0.251,0.2508,0.2503,0.2507,0.251,0.251,0.251,0.251,0.251,0.251,0.251,0.251,0.251,0.251,0.251,0.251,0.251,0.251,0.251,0.251,0.251,0.251,0.251,0.251,0.251,0.251,0.251,0.2506,0.2445,0.241,0.2364,0.234,0.2327,0.2533,0.2806,0.2764,0.2564,0.2666,0.2782,0.2627,0.2506,0.2484,0.2439,-0.4782,-0.4782,-0.4782,-0.4782,-0.4782,-0.4782,-0.4782,-0.4782,-0.4782,-0.4782,-0.4782,-0.4782,-0.4782,-0.4782,-0.4782,-0.4782,-0.4782,-0.4782,-0.4782,-0.4782,-0.4782,-0.4778,-0.4623,-0.4216,-0.3488,-0.2725,-0.217,-0.0985,0.0313,0.0895,0.1299,0.2289,0.2515,0.2604,0.2785,0.283,0.292,0.292,0.292,0.292,0.292,0.2918,0.2862,0.2831,0.2743,0.2631,0.2537,0.251,0.251,0.251,0.251,0.251,0.251,0.251,0.251,0.251,0.251,0.251,0.251,0.251,0.251,0.251,0.251,0.251,0.251,0.251,0.251,0.251,0.251,0.251,0.251,0.251,0.251,0.251,0.251,0.251,0.251,0.251,0.251,0.251,0.251,0.251,0.251,0.251,0.251,0.251,0.251,0.251,0.251,0.251,0.251,0.251,0.251,0.251,0.2668,0.2628,0.2588,0.2549,0.251,0.2493,0.2433,0.2391,0.2339,0.2297,0.2265,0.2555,0.2945,0.2728,0.2492,0.275,0.2978,0.2705,0.2504,0.2485,0.2461,-0.4782,-0.4782,-0.4782,-0.4782,-0.4782,-0.4782,-0.4782,-0.4782,-0.4782,-0.4782,-0.4782,-0.4782,-0.4782,-0.4782,-0.4782,-0.4782,-0.4782,-0.4782,-0.4782,-0.4734,-0.4533,-0.4232,-0.3657,-0.3085,-0.2338,-0.1824,-0.0825,0.0317,0.1257,0.1657,0.2108,0.2604,0.2694,0.2784,0.2875,0.292,0.292,0.292,0.292,0.292,0.292,0.292,0.2834,0.2788,0.2699,0.2602,0.252,0.251,0.251,0.251,0.251,0.251,0.251,0.251,0.251,0.251,0.251,0.251,0.251,0.251,0.251,0.251,0.251,0.251,0.251,0.251,0.251,0.251,0.251,0.251,0.251,0.251,0.251,0.251,0.251,0.251,0.251,0.251,0.251,0.251,0.251,0.251,0.251,0.251,0.251,0.251,0.251,0.251,0.251,0.251,0.251,0.251,0.251,0.2588,0.2785,0.2785,0.2707,0.2627,0.251,0.2482,0.2414,0.2362,0.2304,0.2272,0.2282,0.2766,0.3041,0.2754,0.2732,0.3135,0.3209,0.2782,0.2507,0.2497,0.2469,-0.4782,-0.4782,-0.4782,-0.4782,-0.4782,-0.4782,-0.4782,-0.4782,-0.4782,-0.4782,-0.4782,-0.4782,-0.4782,-0.4782,-0.4782,-0.4782,-0.4782,-0.4782,-0.4782,-0.4734,-0.4029,-0.3527,-0.2808,-0.1683,-0.0828,-0.0764,0.0419,0.1647,0.2309,0.2743,0.2694,0.2875,0.2875,0.2875,0.2875,0.292,0.292,0.292,0.292,0.292,0.292,0.2917,0.2822,0.274,0.2688,0.2625,0.2568,0.2542,0.2529,0.2523,0.2515,0.2511,0.251,0.251,0.251,0.251,0.251,0.251,0.251,0.251,0.251,0.251,0.251,0.251,0.251,0.251,0.251,0.251,0.251,0.251,0.251,0.251,0.251,0.251,0.251,0.251,0.251,0.251,0.251,0.251,0.251,0.251,0.251,0.251,0.251,0.251,0.251,0.251,0.251,0.251,0.251,0.251,0.251,0.2978,0.3214,0.2982,0.2904,0.2901,0.2705,0.2488,0.2413,0.2371,0.2324,0.2265,0.2389,0.2858,0.3203,0.3191,0.3302,0.3625,0.3478,0.3054,0.2782,0.2549,0.2518,-0.4782,-0.4782,-0.4782,-0.4782,-0.4782,-0.4782,-0.4782,-0.4782,-0.4782,-0.4782,-0.4782,-0.4782,-0.4782,-0.4782,-0.4782,-0.4782,-0.4782,-0.4782,-0.4732,-0.4429,-0.3575,-0.282,-0.2011,-0.0351,0.0595,0.0873,0.151,0.2219,0.2702,0.2902,0.2922,0.292,0.292,0.292,0.292,0.292,0.292,0.292,0.292,0.292,0.292,0.2914,0.2841,0.2767,0.2738,0.27,0.265,0.2608,0.2587,0.2582,0.2538,0.2515,0.251,0.251,0.251,0.251,0.251,0.251,0.251,0.251,0.251,0.251,0.251,0.251,0.251,0.251,0.251,0.251,0.251,0.251,0.251,0.251,0.251,0.251,0.251,0.251,0.251,0.251,0.251,0.251,0.251,0.251,0.251,0.251,0.251,0.251,0.251,0.2549,0.2627,0.2588,0.2549,0.251,0.251,0.3134,0.3759,0.3372,0.3139,0.3253,0.3017,0.251,0.2476,0.244,0.239,0.2284,0.2469,0.2889,0.3176,0.3462,0.3955,0.4322,0.3889,0.3359,0.321,0.3095,0.2744,-0.4782,-0.4782,-0.4782,-0.4782,-0.4782,-0.4782,-0.4782,-0.4782,-0.4782,-0.4782,-0.4782,-0.4782,-0.4782,-0.4782,-0.4782,-0.4782,-0.4784,-0.4782,-0.4429,-0.3725,-0.2819,-0.1661,-0.0906,0.0958,0.1706,0.2121,0.2446,0.2614,0.2956,0.2947,0.2922,0.292,0.292,0.292,0.292,0.292,0.292,0.292,0.292,0.292,0.292,0.292,0.2886,0.2801,0.282,0.2734,0.2655,0.2623,0.2583,0.2555,0.2485,0.2512,0.251,0.251,0.251,0.251,0.251,0.251,0.251,0.251,0.251,0.251,0.251,0.251,0.251,0.251,0.251,0.251,0.251,0.251,0.251,0.251,0.251,0.251,0.251,0.251,0.251,0.251,0.251,0.251,0.251,0.251,0.251,0.251,0.251,0.251,0.251,0.2588,0.2707,0.2707,0.2628,0.3018,0.3096,0.3524,0.4031,0.3761,0.3569,0.3643,0.3331,0.2823,0.2535,0.2534,0.2397,0.2291,0.2584,0.2854,0.3505,0.3907,0.4476,0.4921,0.4553,0.4162,0.3893,0.36,0.3329,-0.4782,-0.4782,-0.4782,-0.4782,-0.4782,-0.4782,-0.4782,-0.4782,-0.4782,-0.4782,-0.4782,-0.4782,-0.4782,-0.4782,-0.4782,-0.4734,-0.4686,-0.4634,-0.3877,-0.2768,-0.1862,-0.0554,0.0857,0.1967,0.2519,0.2902,0.3003,0.3072,0.3025,0.2954,0.2924,0.292,0.292,0.292,0.292,0.292,0.292,0.292,0.292,0.292,0.292,0.2917,0.2897,0.2807,0.28,0.2796,0.2672,0.2638,0.2597,0.2555,0.2484,0.251,0.251,0.251,0.251,0.251,0.251,0.251,0.251,0.251,0.251,0.251,0.251,0.251,0.251,0.251,0.251,0.251,0.251,0.251,0.251,0.251,0.251,0.251,0.251,0.251,0.251,0.251,0.251,0.251,0.251,0.251,0.251,0.251,0.251,0.251,0.251,0.2707,0.2824,0.2785,0.2942,0.3526,0.3878,0.4073,0.4268,0.4151,0.4073,0.4187,0.3682,0.3098,0.2807,0.2667,0.2526,0.2398,0.2335,0.266,0.3476,0.4292,0.4787,0.5089,0.5078,0.4925,0.4506,0.4302,0.4107,-0.4782,-0.4782,-0.4782,-0.4782,-0.4782,-0.4782,-0.4782,-0.4782,-0.4782,-0.4782,-0.4782,-0.4782,-0.4782,-0.4782,-0.4782,-0.4533,-0.4182,-0.3982,-0.3224,-0.1812,-0.0755,0.0252,0.1361,0.2522,0.2927,0.3209,0.3155,0.3102,0.3054,0.2969,0.2921,0.292,0.292,0.292,0.292,0.292,0.292,0.292,0.292,0.292,0.292,0.292,0.2911,0.2862,0.2853,0.286,0.2736,0.2689,0.2642,0.258,0.2533,0.2512,0.251,0.251,0.251,0.251,0.251,0.251,0.251,0.251,0.251,0.251,0.251,0.251,0.251,0.251,0.251,0.251,0.251,0.251,0.251,0.251,0.251,0.251,0.251,0.251,0.251,0.251,0.251,0.2549,0.2588,0.2588,0.2588,0.2549,0.251,0.251,0.2549,0.2824,0.3098,0.3215,0.3215,0.3841,0.427,0.4504,0.4501,0.4384,0.4345,0.4535,0.3992,0.3333,0.3049,0.2835,0.2694,0.2569,0.2428,0.283,0.396,0.4676,0.5083,0.5494,0.5847,0.5562,0.5029,0.4924,0.4885,-0.4782,-0.4782,-0.4782,-0.4782,-0.4782,-0.4782,-0.4782,-0.4782,-0.4782,-0.4782,-0.4782,-0.4782,-0.4782,-0.4784,-0.4782,-0.423,-0.3527,-0.3275,-0.2116,-0.0554,0.0453,0.1261,0.227,0.2876,0.318,0.3196,0.3119,0.3102,0.3059,0.2987,0.292,0.292,0.292,0.292,0.292,0.292,0.292,0.292,0.292,0.292,0.292,0.292,0.292,0.292,0.292,0.2824,0.2752,0.2711,0.2642,0.2571,0.2518,0.2511,0.251,0.251,0.251,0.251,0.251,0.251,0.251,0.251,0.251,0.251,0.251,0.251,0.251,0.251,0.251,0.251,0.251,0.251,0.251,0.251,0.251,0.251,0.251,0.251,0.251,0.251,0.251,0.2588,0.2668,0.2707,0.2785,0.294,0.2942,0.2902,0.3096,0.3411,0.3802,0.4153,0.4114,0.4114,0.4504,0.4818,0.4737,0.4621,0.4423,0.4421,0.419,0.3606,0.3217,0.3005,0.2863,0.268,0.2453,0.3189,0.4413,0.4882,0.5104,0.5855,0.6712,0.6381,0.5992,0.5738,0.5622,-0.4782,-0.4782,-0.4782,-0.4782,-0.4782,-0.4782,-0.4782,-0.4782,-0.4782,-0.4782,-0.4734,-0.4684,-0.4583,-0.4433,-0.4128,-0.3323,-0.2418,-0.2215,-0.0705,0.0706,0.1513,0.2068,0.2775,0.318,0.3171,0.3156,0.3149,0.309,0.304,0.2978,0.292,0.292,0.292,0.292,0.292,0.292,0.292,0.292,0.292,0.292,0.292,0.292,0.292,0.292,0.2908,0.2824,0.2733,0.2696,0.2634,0.2565,0.252,0.2511,0.251,0.251,0.251,0.251,0.251,0.251,0.251,0.251,0.251,0.251,0.251,0.251,0.251,0.251,0.251,0.251,0.251,0.251,0.251,0.251,0.251,0.251,0.251,0.251,0.251,0.251,0.251,0.2588,0.2707,0.2982,0.31,0.3333,0.3411,0.3335,0.3608,0.3958,0.4348,0.4701,0.4701,0.4506,0.4662,0.4937,0.4896,0.4779,0.4582,0.4465,0.4192,0.388,0.3528,0.3251,0.3117,0.2851,0.2629,0.3459,0.464,0.4876,0.5161,0.6261,0.7147,0.7277,0.7091,0.6727,0.6472,-0.4782,-0.4782,-0.4782,-0.4782,-0.4782,-0.4782,-0.4782,-0.4782,-0.4782,-0.4782,-0.4734,-0.4334,-0.4133,-0.3778,-0.2919,-0.2064,-0.126,-0.0554,0.0605,0.1513,0.2017,0.2472,0.2976,0.3169,0.3148,0.315,0.3117,0.3058,0.3012,0.2961,0.2925,0.292,0.292,0.292,0.292,0.292,0.292,0.292,0.292,0.292,0.292,0.292,0.292,0.292,0.2914,0.2886,0.2778,0.2722,0.2661,0.2586,0.2535,0.2511,0.251,0.251,0.251,0.251,0.251,0.251,0.251,0.251,0.251,0.251,0.251,0.251,0.251,0.251,0.251,0.251,0.251,0.251,0.251,0.251,0.251,0.251,0.251,0.251,0.251,0.251,0.251,0.2588,0.2824,0.3217,0.3569,0.3843,0.3841,0.3802,0.3921,0.4311,0.4467,0.4779,0.4898,0.4898,0.4901,0.4979,0.4979,0.4898,0.4781,0.4779,0.4662,0.427,0.388,0.3638,0.3632,0.3354,0.3326,0.4078,0.474,0.5112,0.5757,0.6859,0.751,0.749,0.7486,0.7199,0.713,-0.4782,-0.4782,-0.4782,-0.4782,-0.4782,-0.4782,-0.4782,-0.4782,-0.4782,-0.4782,-0.4734,-0.4234,-0.3731,-0.3123,-0.2416,-0.1107,0.0151,0.0554,0.1563,0.2321,0.2826,0.2928,0.3172,0.3144,0.311,0.312,0.3046,0.3033,0.3003,0.2946,0.2926,0.292,0.292,0.292,0.292,0.292,0.292,0.292,0.292,0.292,0.292,0.292,0.292,0.292,0.292,0.2842,0.2783,0.2725,0.2665,0.2605,0.2545,0.2519,0.251,0.251,0.251,0.251,0.251,0.251,0.251,0.251,0.251,0.251,0.251,0.251,0.251,0.251,0.251,0.251,0.251,0.251,0.251,0.251,0.251,0.251,0.251,0.251,0.251,0.251,0.2668,0.2746,0.3215,0.3684,0.4038,0.4428,0.4348,0.427,0.4428,0.4587,0.4704,0.482,0.494,0.5018,0.5018,0.5018,0.5018,0.5018,0.5018,0.5018,0.5018,0.4662,0.4307,0.4538,0.4414,0.4144,0.4105,0.4838,0.5366,0.5611,0.6235,0.7157,0.748,0.7514,0.7514,0.7518,0.7518,-0.4435,-0.4533,-0.4384,-0.4535,-0.4784,-0.4636,-0.4583,-0.4535,-0.4334,-0.4332,-0.4284,-0.3731,-0.3074,-0.2317,-0.1409,-0.0302,0.1109,0.1714,0.2371,0.2826,0.313,0.318,0.321,0.3174,0.3132,0.3095,0.3021,0.3001,0.2971,0.2891,0.2879,0.292,0.292,0.292,0.292,0.292,0.292,0.292,0.292,0.292,0.292,0.292,0.292,0.292,0.292,0.286,0.2804,0.2744,0.268,0.2621,0.2565,0.2518,0.251,0.251,0.251,0.251,0.251,0.251,0.251,0.251,0.251,0.251,0.251,0.251,0.251,0.251,0.251,0.251,0.251,0.251,0.251,0.251,0.251,0.251,0.251,0.251,0.251,0.251,0.2785,0.2982,0.3452,0.3882,0.4272,0.4584,0.4665,0.4623,0.4704,0.4781,0.4859,0.494,0.4979,0.5018,0.5018,0.5018,0.5018,0.5018,0.5018,0.5018,0.5015,0.4971,0.481,0.5079,0.5115,0.4805,0.496,0.558,0.5957,0.6248,0.672,0.7365,0.7484,0.7518,0.7518,0.7518,0.7518,-0.3583,-0.3932,-0.3482,-0.3882,-0.4583,-0.4234,-0.4033,-0.3984,-0.3581,-0.3331,-0.3229,-0.2672,-0.1966,-0.1058,0.0,0.1058,0.1916,0.2675,0.3079,0.313,0.318,0.318,0.315,0.3158,0.3094,0.3093,0.3026,0.2965,0.2884,0.2879,0.292,0.292,0.292,0.292,0.292,0.292,0.292,0.292,0.292,0.292,0.292,0.292,0.292,0.292,0.292,0.2864,0.2838,0.2745,0.2688,0.2662,0.2564,0.2516,0.251,0.251,0.251,0.251,0.251,0.251,0.251,0.251,0.251,0.251,0.251,0.251,0.251,0.251,0.251,0.251,0.251,0.251,0.251,0.251,0.251,0.251,0.251,0.251,0.251,0.2668,0.2904,0.3256,0.3608,0.396,0.4389,0.4701,0.4898,0.494,0.4979,0.5018,0.5018,0.5018,0.5018,0.5018,0.5018,0.5018,0.5018,0.5018,0.5018,0.5018,0.5132,0.524,0.5428,0.5696,0.5654,0.5425,0.5851,0.6475,0.6707,0.6857,0.7211,0.7484,0.748,0.7518,0.7518,0.7518,0.7518,-0.3279,-0.343,-0.3281,-0.343,-0.3682,-0.3581,-0.3481,-0.3432,-0.323,-0.2925,-0.2368,-0.1814,-0.0806,0.0302,0.1109,0.1967,0.2725,0.2927,0.318,0.318,0.3177,0.315,0.3117,0.311,0.3098,0.3036,0.2979,0.2947,0.2877,0.292,0.292,0.292,0.292,0.292,0.292,0.292,0.292,0.292,0.292,0.292,0.292,0.292,0.292,0.292,0.292,0.292,0.2913,0.2758,0.2704,0.2681,0.2578,0.252,0.2511,0.251,0.251,0.251,0.251,0.251,0.251,0.251,0.251,0.251,0.251,0.251,0.251,0.251,0.251,0.251,0.251,0.251,0.251,0.251,0.251,0.251,0.251,0.251,0.2549,0.2824,0.31,0.3567,0.3958,0.4311,0.4701,0.4781,0.494,0.5018,0.5018,0.5018,0.5018,0.5018,0.5018,0.5018,0.5018,0.5018,0.5018,0.5132,0.5323,0.544,0.567,0.5899,0.6086,0.6391,0.6549,0.6553,0.6942,0.7334,0.7249,0.7207,0.7365,0.7518,0.7518,0.7518,0.7518,0.7518,0.7518,-0.2775,-0.2876,-0.2423,-0.2322,-0.2522,-0.2775,-0.2725,-0.2322,-0.2221,-0.1765,-0.1057,-0.0605,0.0202,0.1261,0.1866,0.2422,0.313,0.318,0.318,0.3177,0.3154,0.3128,0.3128,0.3059,0.3052,0.2994,0.2953,0.292,0.292,0.292,0.292,0.292,0.292,0.292,0.292,0.292,0.292,0.292,0.292,0.292,0.292,0.292,0.292,0.292,0.292,0.292,0.2892,0.279,0.2713,0.267,0.2608,0.2533,0.2519,0.251,0.251,0.251,0.251,0.251,0.251,0.251,0.251,0.251,0.251,0.251,0.251,0.251,0.251,0.251,0.251,0.251,0.251,0.251,0.251,0.251,0.2549,0.2549,0.2746,0.3022,0.3372,0.3841,0.4192,0.4584,0.4898,0.494,0.4979,0.5018,0.5018,0.5018,0.5018,0.5018,0.5057,0.5132,0.5132,0.5171,0.5285,0.544,0.5631,0.586,0.617,0.6475,0.6861,0.7165,0.7403,0.7603,0.768,0.768,0.7522,0.7518,0.7518,0.7518,0.7518,0.7518,0.7518,0.7518,0.7518,-0.1918,-0.2118,-0.0959,-0.0757,-0.1261,-0.1866,-0.1463,-0.0404,-0.0404,0.005,0.0806,0.0756,0.1261,0.1917,0.2068,0.2522,0.3073,0.3175,0.3168,0.315,0.3112,0.3087,0.3086,0.3016,0.3015,0.2983,0.2951,0.292,0.292,0.292,0.292,0.292,0.292,0.292,0.292,0.292,0.292,0.292,0.292,0.292,0.292,0.292,0.292,0.292,0.292,0.292,0.2896,0.2807,0.2747,0.2692,0.2631,0.2571,0.2533,0.2511,0.251,0.251,0.251,0.251,0.251,0.251,0.251,0.251,0.251,0.251,0.251,0.251,0.251,0.251,0.251,0.251,0.251,0.251,0.251,0.2549,0.2588,0.2746,0.2982,0.3335,0.3684,0.4034,0.4348,0.4662,0.4898,0.5018,0.5018,0.5018,0.5018,0.5018,0.5018,0.5018,0.5135,0.5401,0.5401,0.5401,0.5553,0.5744,0.6209,0.6514,0.6784,0.7092,0.7514,0.7859,0.794,0.8021,0.8063,0.7949,0.7638,0.7518,0.7518,0.7518,0.7518,0.7518,0.7518,0.7518,0.7518,-0.1718,-0.1717,-0.0808,-0.0505,-0.0555,-0.0252,0.0101,0.0454,0.0454,0.0908,0.1664,0.1664,0.2068,0.2826,0.2876,0.3026,0.3112,0.3141,0.3121,0.3093,0.3104,0.3055,0.3012,0.3019,0.298,0.2953,0.2929,0.292,0.292,0.292,0.292,0.292,0.292,0.292,0.292,0.292,0.292,0.292,0.292,0.292,0.292,0.292,0.292,0.292,0.292,0.292,0.286,0.2864,0.2762,0.2699,0.2636,0.2575,0.2518,0.251,0.251,0.251,0.251,0.251,0.251,0.251,0.251,0.251,0.251,0.251,0.251,0.251,0.251,0.251,0.251,0.251,0.251,0.251,0.2549,0.2627,0.2746,0.2981,0.3295,0.3684,0.4034,0.4309,0.4582,0.474,0.4979,0.5018,0.5018,0.5018,0.5018,0.5018,0.5057,0.5096,0.521,0.5479,0.5631,0.5631,0.5938,0.617,0.6745,0.7207,0.7437,0.7668,0.8089,0.8322,0.8399,0.8327,0.8178,0.7906,0.7557,0.7518,0.7518,0.7518,0.7518,0.7518,0.7518,0.7518,0.7518,-0.1566,-0.1465,-0.0404,0.0404,0.106,0.1563,0.1765,0.1714,0.1412,0.1714,0.2422,0.2472,0.2725,0.3123,0.3104,0.314,0.3134,0.3131,0.3104,0.3089,0.309,0.3051,0.3011,0.298,0.2951,0.2926,0.292,0.292,0.292,0.292,0.292,0.292,0.292,0.292,0.292,0.292,0.292,0.292,0.292,0.292,0.292,0.292,0.292,0.292,0.292,0.292,0.2917,0.2873,0.2789,0.273,0.267,0.261,0.2552,0.2529,0.2511,0.251,0.251,0.251,0.251,0.251,0.251,0.251,0.251,0.251,0.251,0.251,0.251,0.251,0.251,0.251,0.251,0.251,0.2628,0.2746,0.2981,0.3256,0.3645,0.4114,0.4387,0.4623,0.4781,0.4937,0.5018,0.5018,0.5018,0.5018,0.5018,0.5018,0.5171,0.5362,0.544,0.5631,0.5747,0.586,0.617,0.6518,0.6938,0.7437,0.7893,0.8203,0.8627,0.8665,0.8551,0.8365,0.814,0.7872,0.7638,0.7518,0.7518,0.7518,0.7518,0.7518,0.7518,0.7518,0.7518,-0.1566,-0.1465,0.0101,0.1613,0.3079,0.3079,0.3079,0.313,0.2371,0.2472,0.3079,0.318,0.3124,0.3154,0.3124,0.3143,0.3119,0.3119,0.3088,0.3086,0.3027,0.299,0.2975,0.2949,0.2932,0.2922,0.292,0.292,0.292,0.292,0.292,0.292,0.292,0.292,0.292,0.292,0.292,0.292,0.292,0.292,0.292,0.292,0.292,0.292,0.292,0.292,0.292,0.2907,0.2846,0.2785,0.2722,0.2658,0.2585,0.254,0.2516,0.251,0.251,0.251,0.251,0.251,0.251,0.251,0.251,0.251,0.251,0.251,0.251,0.251,0.251,0.251,0.251,0.251,0.2627,0.2902,0.3217,0.3567,0.4034,0.4387,0.4623,0.482,0.4898,0.5018,0.5018,0.5018,0.5018,0.5018,0.5018,0.5018,0.5249,0.5518,0.5631,0.5747,0.5822,0.5977,0.6363,0.6707,0.7053,0.7553,0.8122,0.8432,0.8665,0.8665,0.8623,0.8403,0.8178,0.7987,0.7795,0.7638,0.7518,0.7518,0.7518,0.7518,0.7518,0.7518,0.7518,-0.1566,-0.1414,0.0101,0.1714,0.313,0.318,0.318,0.318,0.3029,0.2978,0.318,0.3226,0.3203,0.3116,0.309,0.3108,0.3109,0.3058,0.3032,0.3012,0.2969,0.2954,0.2943,0.2931,0.292,0.292,0.292,0.292,0.292,0.292,0.292,0.292,0.292,0.292,0.292,0.292,0.292,0.292,0.292,0.292,0.292,0.292,0.292,0.292,0.292,0.292,0.292,0.2917,0.2837,0.2785,0.2725,0.2639,0.2538,0.2519,0.2511,0.251,0.251,0.251,0.251,0.251,0.251,0.251,0.251,0.251,0.251,0.251,0.251,0.251,0.251,0.251,0.2549,0.2588,0.2705,0.3098,0.3452,0.3919,0.4384,0.4621,0.4859,0.494,0.4979,0.5018,0.5018,0.5018,0.5018,0.5018,0.5018,0.5096,0.5404,0.5673,0.5634,0.5747,0.5864,0.6093,0.6518,0.6976,0.7361,0.7783,0.8394,0.8585,0.8703,0.8665,0.8627,0.8441,0.8255,0.8102,0.791,0.7638,0.7561,0.7561,0.7518,0.7518,0.7518,0.7518,0.7518,-0.1566,-0.1364,0.0151,0.1513,0.2623,0.3029,0.318,0.318,0.318,0.318,0.3175,0.3153,0.3121,0.3121,0.3087,0.3052,0.3048,0.2993,0.2974,0.2907,0.2898,0.2929,0.292,0.292,0.292,0.292,0.292,0.292,0.292,0.292,0.292,0.292,0.292,0.292,0.292,0.292,0.292,0.292,0.292,0.292,0.292,0.292,0.292,0.292,0.292,0.292,0.292,0.292,0.2856,0.2804,0.2743,0.2634,0.2548,0.2512,0.251,0.251,0.251,0.251,0.251,0.251,0.251,0.251,0.251,0.251,0.251,0.251,0.251,0.251,0.251,0.251,0.2746,0.2863,0.3294,0.3684,0.3919,0.4268,0.4582,0.482,0.494,0.4979,0.5018,0.5018,0.5018,0.5018,0.5018,0.5018,0.5018,0.5018,0.5365,0.5906,0.5825,0.598,0.6247,0.6402,0.6707,0.7207,0.7706,0.8165,0.8585,0.8665,0.8703,0.8703,0.8627,0.8518,0.8365,0.825,0.8059,0.7791,0.768,0.768,0.7599,0.7518,0.7518,0.7518,0.7518,-0.1465,-0.106,0.0202,0.1361,0.2169,0.2876,0.318,0.318,0.318,0.318,0.3168,0.3157,0.3132,0.3087,0.3063,0.3021,0.2983,0.2953,0.2886,0.2882,0.2924,0.292,0.292,0.292,0.292,0.292,0.292,0.292,0.292,0.292,0.292,0.292,0.292,0.292,0.292,0.292,0.292,0.292,0.292,0.292,0.292,0.292,0.292,0.292,0.292,0.292,0.292,0.292,0.2918,0.2826,0.2753,0.2636,0.2553,0.251,0.251,0.251,0.251,0.251,0.251,0.251,0.251,0.251,0.251,0.251,0.251,0.251,0.251,0.251,0.251,0.2668,0.2904,0.3182,0.3649,0.4187,0.442,0.4611,0.481,0.5,0.4995,0.5031,0.5018,0.5018,0.5018,0.5018,0.5018,0.5018,0.5018,0.5018,0.521,0.5906,0.6251,0.6633,0.7092,0.7165,0.713,0.7399,0.7897,0.8246,0.8589,0.8665,0.8703,0.8703,0.8703,0.8665,0.8551,0.8365,0.8217,0.7991,0.7915,0.7799,0.7642,0.7518,0.7518,0.7518,0.7518,-0.0808,0.0403,0.0706,0.1613,0.2826,0.313,0.318,0.318,0.318,0.318,0.3203,0.3119,0.3113,0.3112,0.3041,0.2989,0.2947,0.2877,0.2922,0.2921,0.292,0.292,0.292,0.292,0.292,0.292,0.292,0.292,0.292,0.292,0.292,0.292,0.292,0.292,0.292,0.292,0.292,0.292,0.292,0.292,0.292,0.292,0.292,0.292,0.292,0.292,0.292,0.292,0.292,0.2838,0.276,0.264,0.2563,0.2515,0.251,0.251,0.251,0.251,0.251,0.251,0.251,0.251,0.251,0.251,0.251,0.251,0.251,0.2588,0.2628,0.2785,0.3023,0.3229,0.363,0.4386,0.4826,0.4927,0.5116,0.5121,0.5094,0.5056,0.5018,0.5018,0.5018,0.5018,0.5018,0.5018,0.5018,0.5018,0.5249,0.5941,0.6633,0.7207,0.774,0.7817,0.7744,0.7663,0.805,0.8356,0.8589,0.8665,0.8703,0.8703,0.8703,0.8665,0.8589,0.8437,0.8255,0.8178,0.7991,0.7876,0.7638,0.7518,0.7518,0.7518,0.7561]}]]